[[{"header":{"parameterUnit":"m.s-1","parameterCategory":1,"la1":31.0,"la2":29.5877,"lo1":-88.7671,"lo2":-86.6584,"dy":0.0162,"dx":0.0185,"nx":115,"ny":88,"refTime":"2023-08-09T00:00:00:Z","depth":0,"parameterNumber":2,"parameterNumberName":"U-component_of_WINDS"},"data":[0.0,0.0,0.0,0.0,0.0,0.0,0.0,0.0,0.0,0.0,0.0,0.0,0.0,0.0,0.0,0.0,0.0,0.0,0.0,0.0,0.0,0.0,0.0,0.0,0.0,0.0,0.0,0.0,0.0,0.0,0.0,0.0,0.0,0.0,0.0,0.0,0.0,0.0,0.0,0.0,0.0,0.0,0.0,0.0,0.0,0.0,0.0,0.0,0.0,0.0,0.0,0.0,0.0,0.0,0.0,0.0,0.0,0.0,0.0,0.0,0.0,0.0,0.0,0.0,0.0,0.0,0.0,0.0,0.0,0.0,0.0,0.0,0.0,0.0,0.0,0.0,0.0,0.0,0.0,0.0,0.0,0.0,0.0,0.0,0.0,0.0,0.0,0.0,0.0,0.0,0.0,0.0,0.0,0.0,0.0,0.0,0.0,0.0,0.0,0.0,0.0,0.0,0.0,0.0,0.0,0.0,0.0,0.0,0.0,0.0,0.0,0.0,0.0,0.0,0.0,0.0,0.0,0.0,0.0,0.0,0.0,0.0,0.0,0.0,0.0,0.0,0.0,0.0,0.0,0.0,0.0,0.0,0.0,0.0,0.0,0.0,0.0,0.0,0.0,0.0,0.0,0.0,0.0,0.0,0.0,0.0,0.0,0.0,0.0,0.0,0.0,0.0,0.0,0.0,0.0,0.0,0.0,0.0,0.0,0.0,0.0,0.0,0.0,0.0,0.0,0.0,0.0,0.0,0.0,0.0,0.0,0.0,0.0,0.0,0.0,0.0,0.0,0.0,0.0,0.0,0.0,0.0,0.0,0.0,0.0,0.0,0.0,0.0,0.0,0.0,0.0,0.0,0.0,0.0,0.0,0.0,0.0,0.0,0.0,0.0,0.0,0.0,0.0,0.0,0.0,0.0,0.0,0.0,0.0,0.0,0.0,0.0,0.0,0.0,0.0,0.0,0.0,0.0,0.0,0.0,0.0,0.0,0.0,0.0,0.0,0.0,0.0,0.0,0.0,0.0,0.0,0.0,0.0,0.0,0.0,0.0,0.0,0.0,0.0,0.0,0.0,0.0,0.0,0.0,0.0,0.0,0.0,0.0,0.0,0.0,0.0,0.0,0.0,0.0,0.0,0.0,0.0,0.0,0.0,0.0,0.0,0.0,0.0,0.0,0.0,0.0,0.0,0.0,0.0,0.0,0.0,0.0,0.0,0.0,0.0,0.0,0.0,0.0,0.0,0.0,0.0,0.0,0.0,0.0,0.0,0.0,0.0,0.0,0.0,0.0,0.0,0.0,0.0,0.0,0.0,0.0,0.0,0.0,0.0,0.0,0.0,0.0,0.0,0.0,0.0,0.0,0.0,0.0,0.0,0.0,0.0,0.0,0.0,0.0,0.0,0.0,0.0,0.0,0.0,0.0,0.0,0.0,0.0,0.0,0.0,0.0,0.0,0.0,0.0,0.0,0.0,0.0,0.0,0.0,0.0,0.0,0.0,0.0,0.0,0.0,0.0,0.0,0.0,0.0,0.0,0.0,0.0,0.0,0.0,0.0,0.0,0.0,0.0,0.0,0.0,0.0,0.0,0.0,0.0,0.0,0.0,0.0,0.0,0.0,0.0,0.0,0.0,0.0,0.0,0.0,0.0,0.0,0.0,0.0,0.0,0.0,0.0,0.0,0.0,0.0,0.0,0.0,0.0,0.0,0.0,0.0,0.0,0.0,0.0,0.0,0.0,0.0,0.0,0.0,0.0,0.0,0.0,0.0,0.0,0.0,0.0,0.0,0.0,0.0,0.0,0.0,0.0,0.0,0.0,0.0,0.0,0.0,0.0,0.0,0.0,0.0,0.0,0.0,0.0,0.0,0.0,0.0,0.0,0.0,0.0,0.0,0.0,0.0,0.0,0.0,0.0,0.0,0.0,0.0,0.0,0.0,0.0,0.0,0.0,0.0,0.0,0.0,0.0,0.0,0.0,0.0,0.0,0.0,0.0,0.0,0.0,0.0,0.0,0.0,0.0,0.0,0.0,0.0,0.0,0.0,0.0,0.0,0.0,0.0,0.0,0.0,0.0,0.0,0.0,0.0,0.0,0.0,0.0,0.0,0.0,0.0,0.0,0.0,0.0,0.0,0.0,0.0,0.0,0.0,0.0,0.0,0.0,0.0,0.0,0.0,0.0,0.0,0.0,0.0,0.0,0.0,0.0,0.0,0.0,0.0,0.0,0.0,0.0,0.0,0.0,0.0,0.0,0.0,0.0,0.0,0.0,0.0,0.0,0.0,0.0,0.0,0.0,0.0,0.0,0.0,0.0,0.0,0.0,0.0,0.0,0.0,0.0,0.0,0.0,0.0,0.0,0.0,0.0,0.0,0.0,0.0,0.0,0.0,0.0,0.0,0.0,0.0,0.0,0.0,0.0,0.0,0.0,0.0,0.0,0.0,0.0,0.0,0.0,0.0,0.0,0.0,0.0,0.0,0.0,0.0,0.0,0.0,0.0,0.0,0.0,0.0,0.0,0.0,0.0,0.0,0.0,0.0,0.0,0.0,0.0,0.0,0.0,0.0,0.0,0.0,0.0,0.0,0.0,0.0,0.0,0.0,0.0,0.0,0.0,0.0,0.0,0.0,0.0,0.0,0.0,0.0,0.0,0.0,0.0,0.0,0.0,0.0,0.0,0.0,0.0,0.0,0.0,0.0,0.0,0.0,0.0,0.0,0.0,0.0,0.0,0.0,0.0,0.0,0.0,0.0,0.0,0.0,0.0,0.0,0.0,0.0,0.0,0.0,0.0,0.0,0.0,0.0,0.0,0.0,0.0,0.0,0.0,0.0,0.0,0.0,0.0,0.0,0.0,0.0,0.0,0.0,0.0,0.0,0.0,0.0,0.0,0.0,0.0,0.0,0.0,0.0,0.0,0.0,0.0,0.0,0.0,0.0,0.0,0.0,0.0,0.0,0.0,0.0,0.0,0.0,0.0,0.0,0.0,0.0,0.0,0.0,0.0,0.0,0.0,0.0,0.0,0.0,0.0,0.0,0.0,0.0,0.0,0.0,0.0,0.0,0.0,0.0,0.0,0.0,0.0,0.0,0.0,0.0,0.0,0.0,0.0,0.0,0.0,0.0,0.0,0.0,0.0,0.0,0.0,0.0,0.0,0.0,0.0,0.0,0.0,0.0,0.0,0.0,0.0,0.0,0.0,0.0,0.0,0.0,0.0,0.0,0.0,0.0,0.0,0.0,0.0,0.0,0.0,0.0,0.0,0.0,0.0,0.0,0.0,0.0,0.0,0.0,0.0,0.0,0.0,0.0,0.0,0.0,0.0,0.0,0.0,0.0,0.0,0.0,0.0,0.0,0.0,0.0,0.0,0.0,0.0,0.0,0.0,0.0,0.0,0.0,0.0,0.0,0.0,0.0,0.0,0.0,0.0,0.0,0.0,0.0,0.0,0.0,0.0,0.0,0.0,0.0,0.0,0.0,0.0,0.0,0.0,0.0,0.0,0.0,0.0,0.0,0.0,0.0,0.0,0.0,0.0,0.0,0.0,0.0,0.0,0.0,0.0,0.0,0.0,0.0,0.0,0.0,0.0,0.0,0.0,0.0,0.0,0.0,0.0,0.0,0.0,0.0,0.0,0.0,0.0,0.0,0.0,0.0,0.0,0.0,0.0,0.0,0.0,0.0,0.0,0.0,0.0,0.0,0.0,0.0,0.0,0.0,0.0,0.0,0.0,0.0,0.0,0.0,0.0,0.0,0.0,0.0,0.0,0.0,0.0,0.0,0.0,0.0,0.0,0.0,0.0,0.0,0.0,0.0,0.0,0.0,0.0,0.0,0.0,0.0,0.0,0.0,0.0,0.0,0.0,0.0,0.0,0.0,0.0,0.0,0.0,0.0,0.0,0.0,0.0,0.0,0.0,0.0,0.0,0.0,0.0,0.0,0.0,0.0,0.0,0.0,0.0,0.0,0.0,0.0,0.0,0.0,0.0,0.0,0.0,0.0,0.0,0.0,0.0,0.0,0.0,0.0,0.0,0.0,0.0,0.0,0.0,0.0,0.0,0.0,0.0,0.0,0.0,0.0,0.0,0.0,0.0,0.0,0.0,0.0,0.0,0.0,0.0,0.0,0.0,0.0,0.0,0.0,0.0,0.0,0.0,0.0,0.0,0.0,0.0,0.0,0.0,0.0,0.0,0.0,0.0,0.0,0.0,0.0,0.0,0.0,0.0,0.0,0.0,0.0,0.0,0.0,0.0,0.0,0.0,0.0,0.0,0.0,0.0,0.0,-4.2033,0.0,0.0,0.0,0.0,0.0,0.0,0.0,0.0,0.0,0.0,0.0,0.0,0.0,0.0,0.0,0.0,0.0,0.0,0.0,0.0,0.0,0.0,0.0,0.0,0.0,0.0,0.0,0.0,0.0,0.0,0.0,0.0,0.0,0.0,0.0,0.0,0.0,0.0,0.0,0.0,0.0,0.0,0.0,0.0,0.0,0.0,0.0,0.0,0.0,0.0,0.0,0.0,0.0,0.0,0.0,0.0,0.0,0.0,0.0,0.0,0.0,0.0,0.0,0.0,0.0,0.0,0.0,0.0,0.0,0.0,0.0,0.0,0.0,0.0,0.0,0.0,0.0,0.0,0.0,0.0,0.0,0.0,0.0,0.0,0.0,0.0,0.0,0.0,0.0,0.0,0.0,0.0,0.0,0.0,0.0,0.0,0.0,0.0,0.0,0.0,0.0,0.0,0.0,0.0,0.0,0.0,0.0,0.0,0.0,0.0,-4.3497,-4.3478,-4.3468,-4.3011,-4.2033,0.0,0.0,0.0,0.0,0.0,0.0,0.0,0.0,0.0,0.0,0.0,0.0,0.0,0.0,0.0,0.0,0.0,0.0,0.0,0.0,0.0,0.0,0.0,0.0,0.0,0.0,0.0,0.0,0.0,0.0,0.0,0.0,0.0,0.0,0.0,0.0,0.0,0.0,0.0,0.0,0.0,0.0,0.0,0.0,0.0,0.0,0.0,0.0,0.0,0.0,0.0,0.0,0.0,0.0,0.0,0.0,0.0,0.0,0.0,0.0,0.0,0.0,0.0,0.0,0.0,0.0,0.0,0.0,0.0,0.0,0.0,0.0,0.0,0.0,0.0,0.0,0.0,0.0,0.0,0.0,0.0,0.0,0.0,0.0,0.0,0.0,0.0,0.0,0.0,0.0,0.0,0.0,0.0,0.0,0.0,0.0,0.0,0.0,0.0,0.0,0.0,0.0,0.0,0.0,0.0,0.0,0.0,0.0,0.0,0.0,0.0,0.0,-4.4962,-4.4302,-4.2922,0.0,0.0,0.0,0.0,0.0,0.0,0.0,0.0,0.0,0.0,0.0,0.0,0.0,0.0,0.0,0.0,0.0,0.0,0.0,0.0,0.0,0.0,0.0,0.0,0.0,0.0,0.0,0.0,0.0,0.0,0.0,0.0,0.0,0.0,0.0,0.0,0.0,0.0,0.0,0.0,0.0,0.0,0.0,0.0,0.0,0.0,0.0,0.0,0.0,0.0,0.0,0.0,0.0,0.0,0.0,0.0,0.0,0.0,0.0,0.0,0.0,0.0,0.0,0.0,0.0,0.0,0.0,0.0,0.0,0.0,0.0,0.0,0.0,0.0,0.0,0.0,0.0,0.0,0.0,0.0,0.0,0.0,0.0,0.0,0.0,0.0,0.0,0.0,0.0,0.0,0.0,0.0,0.0,0.0,0.0,0.0,0.0,0.0,0.0,0.0,0.0,0.0,0.0,0.0,0.0,0.0,0.0,0.0,0.0,0.0,-4.5277,-4.8913,-4.8234,0.0,-4.5603,0.0,0.0,0.0,0.0,0.0,0.0,0.0,0.0,0.0,0.0,0.0,0.0,0.0,0.0,0.0,0.0,0.0,0.0,0.0,0.0,0.0,0.0,0.0,0.0,0.0,0.0,0.0,0.0,0.0,0.0,0.0,0.0,0.0,0.0,0.0,0.0,0.0,0.0,0.0,0.0,0.0,0.0,0.0,0.0,0.0,0.0,0.0,0.0,0.0,0.0,0.0,0.0,0.0,0.0,0.0,0.0,0.0,0.0,0.0,0.0,0.0,0.0,0.0,0.0,0.0,0.0,0.0,0.0,0.0,0.0,0.0,0.0,0.0,0.0,0.0,0.0,0.0,0.0,0.0,0.0,0.0,0.0,0.0,0.0,0.0,0.0,0.0,0.0,0.0,0.0,0.0,0.0,0.0,0.0,0.0,0.0,0.0,0.0,0.0,0.0,0.0,0.0,0.0,0.0,0.0,0.0,0.0,0.0,0.0,0.0,-4.592,-4.8086,-4.7499,-4.6354,0.0,0.0,0.0,0.0,0.0,0.0,0.0,0.0,0.0,0.0,0.0,0.0,0.0,0.0,0.0,0.0,0.0,0.0,0.0,0.0,0.0,0.0,0.0,0.0,0.0,0.0,0.0,0.0,0.0,0.0,0.0,0.0,0.0,0.0,0.0,0.0,0.0,0.0,0.0,0.0,0.0,0.0,0.0,0.0,0.0,0.0,0.0,0.0,0.0,0.0,0.0,0.0,0.0,0.0,0.0,0.0,0.0,0.0,0.0,0.0,0.0,0.0,0.0,0.0,0.0,0.0,0.0,0.0,0.0,0.0,0.0,0.0,0.0,0.0,0.0,0.0,0.0,0.0,0.0,0.0,0.0,0.0,0.0,0.0,0.0,0.0,0.0,0.0,0.0,0.0,0.0,0.0,0.0,0.0,0.0,0.0,0.0,0.0,0.0,0.0,0.0,0.0,0.0,0.0,0.0,0.0,0.0,0.0,0.0,0.0,-4.57,-4.6728,-4.8269,-4.7362,-4.5951,-4.4212,0.0,0.0,0.0,0.0,0.0,0.0,0.0,0.0,0.0,0.0,0.0,0.0,0.0,0.0,0.0,0.0,0.0,0.0,0.0,0.0,0.0,0.0,0.0,0.0,0.0,0.0,0.0,0.0,0.0,0.0,0.0,0.0,0.0,0.0,0.0,0.0,0.0,0.0,0.0,0.0,0.0,0.0,0.0,0.0,0.0,0.0,0.0,0.0,0.0,0.0,0.0,0.0,0.0,0.0,0.0,0.0,0.0,0.0,0.0,0.0,0.0,0.0,0.0,0.0,0.0,0.0,0.0,0.0,0.0,0.0,0.0,0.0,0.0,0.0,0.0,0.0,0.0,0.0,0.0,0.0,0.0,0.0,0.0,0.0,0.0,0.0,0.0,0.0,0.0,0.0,0.0,0.0,0.0,0.0,0.0,0.0,0.0,0.0,0.0,0.0,0.0,0.0,0.0,0.0,0.0,0.0,0.0,0.0,-5.205,-4.8159,-4.7755,-5.1483,-4.9154,-4.7111,0.0,0.0,0.0,0.0,0.0,0.0,0.0,0.0,0.0,0.0,0.0,0.0,0.0,0.0,0.0,0.0,0.0,0.0,0.0,0.0,0.0,0.0,0.0,0.0,0.0,0.0,0.0,0.0,0.0,0.0,0.0,0.0,0.0,0.0,0.0,0.0,0.0,0.0,0.0,0.0,0.0,0.0,0.0,0.0,0.0,0.0,0.0,0.0,0.0,0.0,0.0,0.0,0.0,0.0,0.0,0.0,0.0,0.0,0.0,0.0,0.0,0.0,0.0,0.0,0.0,0.0,0.0,0.0,0.0,0.0,0.0,0.0,0.0,0.0,0.0,0.0,0.0,0.0,0.0,0.0,0.0,0.0,0.0,0.0,0.0,0.0,0.0,0.0,0.0,0.0,0.0,0.0,0.0,0.0,0.0,0.0,0.0,0.0,0.0,0.0,0.0,0.0,0.0,0.0,0.0,0.0,0.0,0.0,0.0,-4.5315,-4.5736,-4.7609,-5.0949,-4.82,-4.6597,0.0,0.0,0.0,0.0,0.0,0.0,0.0,0.0,0.0,0.0,0.0,0.0,0.0,0.0,0.0,0.0,0.0,0.0,0.0,0.0,0.0,0.0,0.0,0.0,0.0,0.0,0.0,0.0,0.0,0.0,0.0,0.0,0.0,0.0,0.0,0.0,0.0,0.0,0.0,0.0,0.0,0.0,0.0,0.0,0.0,0.0,0.0,0.0,0.0,0.0,0.0,0.0,0.0,0.0,0.0,0.0,0.0,0.0,0.0,0.0,0.0,0.0,0.0,0.0,0.0,0.0,0.0,0.0,0.0,0.0,0.0,0.0,0.0,0.0,0.0,0.0,0.0,0.0,0.0,0.0,0.0,0.0,0.0,0.0,0.0,0.0,0.0,0.0,0.0,0.0,0.0,0.0,0.0,0.0,0.0,0.0,0.0,0.0,0.0,0.0,0.0,0.0,0.0,0.0,0.0,0.0,0.0,0.0,0.0,-4.3076,0.0,-4.871,-5.0178,-4.7462,-4.5663,0.0,0.0,0.0,0.0,0.0,0.0,0.0,0.0,0.0,0.0,0.0,0.0,0.0,0.0,0.0,0.0,0.0,0.0,0.0,0.0,0.0,0.0,0.0,0.0,0.0,0.0,0.0,0.0,0.0,0.0,0.0,0.0,0.0,0.0,0.0,0.0,0.0,0.0,0.0,0.0,0.0,0.0,0.0,0.0,0.0,0.0,0.0,0.0,0.0,0.0,0.0,0.0,0.0,0.0,0.0,0.0,0.0,0.0,0.0,0.0,0.0,0.0,0.0,0.0,0.0,0.0,0.0,0.0,0.0,0.0,0.0,0.0,0.0,0.0,0.0,0.0,0.0,0.0,0.0,0.0,0.0,0.0,0.0,0.0,0.0,0.0,0.0,0.0,0.0,0.0,0.0,0.0,0.0,0.0,0.0,0.0,0.0,0.0,0.0,0.0,0.0,0.0,0.0,0.0,0.0,0.0,0.0,0.0,-4.304,-4.6819,-5.0031,-5.0986,-4.9684,-4.7205,-4.4452,0.0,0.0,0.0,0.0,0.0,0.0,0.0,0.0,0.0,0.0,0.0,0.0,0.0,0.0,0.0,0.0,0.0,0.0,0.0,0.0,0.0,0.0,0.0,0.0,0.0,0.0,0.0,0.0,0.0,0.0,0.0,0.0,0.0,0.0,0.0,0.0,0.0,0.0,0.0,0.0,0.0,0.0,0.0,0.0,0.0,0.0,0.0,0.0,0.0,0.0,0.0,0.0,0.0,0.0,0.0,0.0,0.0,0.0,0.0,0.0,0.0,0.0,0.0,0.0,0.0,0.0,0.0,0.0,0.0,0.0,0.0,0.0,0.0,0.0,0.0,0.0,0.0,0.0,0.0,0.0,0.0,0.0,0.0,0.0,0.0,0.0,0.0,0.0,0.0,0.0,0.0,0.0,0.0,0.0,0.0,0.0,0.0,0.0,0.0,0.0,0.0,0.0,0.0,0.0,0.0,0.0,0.0,0.0,0.0,-4.304,-4.6636,-4.9994,-5.2564,-4.7278,-4.5644,0.0,0.0,0.0,0.0,0.0,0.0,0.0,0.0,0.0,0.0,0.0,0.0,0.0,0.0,0.0,0.0,0.0,0.0,0.0,0.0,0.0,0.0,0.0,0.0,0.0,0.0,0.0,0.0,0.0,0.0,0.0,0.0,0.0,0.0,0.0,0.0,0.0,0.0,0.0,0.0,0.0,0.0,0.0,0.0,0.0,0.0,0.0,0.0,0.0,0.0,0.0,0.0,0.0,0.0,0.0,0.0,0.0,0.0,0.0,0.0,0.0,0.0,0.0,0.0,0.0,0.0,0.0,0.0,0.0,0.0,0.0,0.0,0.0,0.0,0.0,0.0,0.0,0.0,0.0,0.0,0.0,0.0,0.0,0.0,0.0,0.0,0.0,0.0,0.0,0.0,0.0,0.0,0.0,0.0,0.0,0.0,0.0,0.0,0.0,0.0,0.0,0.0,0.0,0.0,0.0,0.0,0.0,0.0,0.0,-4.4488,-4.8196,-5.1426,-5.3885,-4.8306,-4.6397,-4.8545,0.0,0.0,0.0,0.0,0.0,0.0,0.0,0.0,0.0,0.0,0.0,0.0,0.0,0.0,0.0,0.0,0.0,0.0,0.0,0.0,0.0,0.0,0.0,0.0,0.0,0.0,0.0,0.0,0.0,0.0,0.0,0.0,0.0,0.0,0.0,0.0,0.0,0.0,0.0,0.0,0.0,0.0,0.0,0.0,0.0,0.0,0.0,0.0,0.0,0.0,0.0,0.0,0.0,0.0,0.0,0.0,0.0,0.0,0.0,0.0,0.0,0.0,0.0,0.0,0.0,0.0,0.0,0.0,0.0,0.0,0.0,0.0,0.0,0.0,0.0,0.0,0.0,0.0,0.0,0.0,0.0,0.0,0.0,0.0,0.0,0.0,0.0,0.0,0.0,0.0,0.0,0.0,0.0,0.0,0.0,0.0,0.0,0.0,0.0,0.0,0.0,0.0,0.0,0.0,0.0,0.0,0.0,0.0,-4.9867,-5.387,-5.5244,-5.3775,-5.0325,-4.7021,0.0,0.0,0.0,0.0,0.0,0.0,0.0,0.0,0.0,0.0,0.0,0.0,0.0,0.0,0.0,0.0,0.0,0.0,0.0,0.0,0.0,0.0,0.0,0.0,0.0,0.0,0.0,0.0,0.0,0.0,0.0,0.0,0.0,0.0,0.0,0.0,0.0,0.0,0.0,0.0,0.0,0.0,0.0,0.0,0.0,0.0,0.0,0.0,0.0,0.0,0.0,0.0,0.0,0.0,0.0,0.0,0.0,0.0,0.0,0.0,0.0,0.0,0.0,0.0,0.0,0.0,0.0,0.0,0.0,0.0,0.0,0.0,0.0,0.0,0.0,0.0,0.0,0.0,0.0,0.0,0.0,0.0,0.0,0.0,0.0,0.0,0.0,0.0,0.0,0.0,0.0,0.0,0.0,0.0,0.0,0.0,0.0,0.0,0.0,0.0,0.0,0.0,0.0,0.0,0.0,0.0,0.0,0.0,0.0,-5.3151,-5.8253,-6.0419,-5.9318,-5.3408,-5.0031,0.0,0.0,0.0,0.0,0.0,0.0,0.0,0.0,0.0,0.0,0.0,0.0,0.0,0.0,0.0,0.0,0.0,0.0,0.0,0.0,0.0,0.0,0.0,0.0,0.0,0.0,0.0,0.0,0.0,0.0,0.0,0.0,0.0,0.0,0.0,0.0,0.0,0.0,0.0,0.0,0.0,0.0,0.0,0.0,0.0,0.0,0.0,0.0,0.0,0.0,0.0,0.0,0.0,0.0,0.0,0.0,0.0,0.0,0.0,0.0,0.0,0.0,0.0,0.0,0.0,0.0,0.0,0.0,0.0,0.0,0.0,0.0,0.0,0.0,0.0,0.0,0.0,0.0,0.0,0.0,0.0,0.0,0.0,0.0,0.0,0.0,0.0,0.0,0.0,0.0,0.0,0.0,0.0,0.0,0.0,0.0,0.0,0.0,0.0,0.0,0.0,0.0,0.0,0.0,0.0,0.0,0.0,0.0,-5.1316,-5.5354,-6.0272,-6.2915,-6.3135,-5.8107,-5.3775,0.0,0.0,0.0,0.0,0.0,0.0,0.0,0.0,0.0,0.0,0.0,0.0,0.0,0.0,0.0,0.0,0.0,0.0,0.0,0.0,0.0,0.0,0.0,0.0,0.0,0.0,0.0,0.0,0.0,0.0,0.0,0.0,0.0,0.0,0.0,0.0,0.0,0.0,0.0,0.0,0.0,0.0,0.0,0.0,0.0,0.0,0.0,0.0,0.0,0.0,0.0,0.0,0.0,0.0,0.0,0.0,0.0,0.0,0.0,0.0,0.0,0.0,0.0,0.0,0.0,0.0,0.0,0.0,0.0,0.0,0.0,0.0,0.0,0.0,0.0,0.0,0.0,0.0,0.0,0.0,0.0,0.0,0.0,0.0,0.0,0.0,0.0,0.0,0.0,0.0,0.0,0.0,0.0,0.0,0.0,0.0,0.0,0.0,0.0,0.0,0.0,0.0,0.0,0.0,0.0,0.0,0.0,0.0,-5.2747,-5.6748,-6.0933,-6.3697,-6.5044,-6.2695,-5.735,0.0,0.0,0.0,0.0,0.0,0.0,0.0,0.0,0.0,0.0,0.0,0.0,0.0,0.0,0.0,0.0,0.0,0.0,0.0,0.0,0.0,0.0,0.0,0.0,0.0,0.0,0.0,0.0,0.0,0.0,0.0,0.0,0.0,0.0,0.0,0.0,0.0,0.0,0.0,0.0,0.0,0.0,0.0,0.0,0.0,0.0,0.0,0.0,0.0,0.0,0.0,0.0,0.0,0.0,0.0,0.0,0.0,0.0,0.0,0.0,0.0,0.0,0.0,0.0,0.0,0.0,0.0,0.0,0.0,0.0,0.0,0.0,0.0,0.0,0.0,0.0,0.0,0.0,0.0,0.0,0.0,0.0,0.0,0.0,0.0,0.0,0.0,0.0,0.0,0.0,0.0,0.0,0.0,0.0,0.0,0.0,0.0,0.0,0.0,0.0,0.0,0.0,0.0,0.0,0.0,0.0,0.0,0.0,-5.2747,-5.6785,-6.2034,-6.464,-6.4347,-6.1337,-5.6822,0.0,0.0,0.0,0.0,0.0,0.0,0.0,0.0,0.0,0.0,0.0,0.0,0.0,0.0,0.0,0.0,0.0,0.0,0.0,0.0,0.0,0.0,0.0,0.0,0.0,0.0,0.0,0.0,0.0,0.0,0.0,0.0,0.0,0.0,0.0,0.0,0.0,0.0,0.0,0.0,0.0,0.0,0.0,0.0,0.0,0.0,0.0,0.0,-3.7628,0.0,0.0,0.0,0.0,0.0,0.0,0.0,0.0,0.0,0.0,0.0,0.0,0.0,0.0,0.0,0.0,0.0,0.0,0.0,0.0,0.0,0.0,0.0,0.0,0.0,0.0,0.0,0.0,0.0,0.0,0.0,0.0,0.0,0.0,0.0,0.0,0.0,0.0,0.0,0.0,0.0,0.0,0.0,0.0,0.0,0.0,0.0,0.0,0.0,0.0,0.0,0.0,0.0,0.0,0.0,0.0,0.0,0.0,0.0,-5.3482,-5.785,-6.1973,-6.431,-6.453,-6.1851,-5.7421,0.0,0.0,0.0,0.0,0.0,0.0,0.0,0.0,0.0,0.0,0.0,0.0,0.0,0.0,0.0,0.0,0.0,0.0,0.0,0.0,0.0,0.0,0.0,0.0,0.0,0.0,0.0,0.0,0.0,0.0,0.0,0.0,0.0,0.0,0.0,0.0,0.0,0.0,0.0,0.0,0.0,0.0,0.0,0.0,0.0,0.0,0.0,0.0,0.0,0.0,0.0,0.0,0.0,0.0,0.0,0.0,0.0,0.0,0.0,0.0,0.0,0.0,0.0,0.0,0.0,0.0,0.0,0.0,0.0,0.0,0.0,0.0,0.0,0.0,0.0,0.0,0.0,0.0,0.0,0.0,0.0,0.0,0.0,0.0,0.0,0.0,0.0,0.0,0.0,0.0,0.0,0.0,0.0,0.0,0.0,0.0,0.0,0.0,0.0,0.0,0.0,0.0,0.0,0.0,0.0,0.0,0.0,-4.9921,-5.4032,-5.8854,-6.1349,-6.322,-6.4494,-6.2511,-5.8055,-5.1122,0.0,0.0,0.0,0.0,0.0,0.0,0.0,0.0,0.0,0.0,0.0,0.0,0.0,0.0,0.0,0.0,0.0,0.0,0.0,0.0,0.0,0.0,0.0,0.0,0.0,0.0,0.0,0.0,0.0,0.0,0.0,0.0,0.0,0.0,0.0,0.0,0.0,0.0,-3.3948,-3.5857,0.0,0.0,0.0,0.0,0.0,0.0,0.0,0.0,-3.8289,0.0,0.0,0.0,0.0,0.0,0.0,0.0,0.0,0.0,0.0,0.0,0.0,0.0,0.0,0.0,0.0,0.0,0.0,0.0,0.0,0.0,0.0,0.0,0.0,0.0,0.0,0.0,0.0,0.0,0.0,0.0,0.0,0.0,0.0,0.0,0.0,0.0,0.0,0.0,0.0,0.0,0.0,0.0,0.0,0.0,0.0,0.0,0.0,0.0,0.0,0.0,0.0,0.0,0.0,0.0,0.0,-4.9921,-4.9958,-5.2601,-5.807,-6.0529,-6.163,-6.1227,-6.0823,-5.7085,-4.9865,0.0,0.0,0.0,0.0,0.0,0.0,0.0,0.0,0.0,0.0,0.0,0.0,0.0,0.0,0.0,0.0,0.0,0.0,0.0,0.0,0.0,0.0,0.0,0.0,0.0,0.0,0.0,0.0,0.0,0.0,0.0,0.0,0.0,0.0,0.0,0.0,0.0,0.0,0.0,-3.8051,-3.9322,0.0,0.0,0.0,0.0,0.0,0.0,0.0,0.0,-3.6464,0.0,0.0,0.0,0.0,0.0,0.0,0.0,0.0,0.0,0.0,0.0,0.0,0.0,0.0,0.0,0.0,0.0,0.0,0.0,0.0,0.0,0.0,0.0,0.0,0.0,0.0,0.0,0.0,0.0,0.0,0.0,0.0,0.0,0.0,0.0,0.0,0.0,0.0,0.0,0.0,0.0,0.0,0.0,0.0,0.0,0.0,0.0,0.0,0.0,0.0,0.0,0.0,0.0,0.0,0.0,-4.8617,-4.9742,-5.254,-5.7279,-5.9009,-5.9842,-5.9779,-5.6988,-5.3266,0.0,0.0,0.0,0.0,0.0,0.0,0.0,0.0,0.0,0.0,0.0,0.0,0.0,0.0,0.0,0.0,0.0,0.0,0.0,0.0,0.0,0.0,0.0,0.0,0.0,0.0,0.0,0.0,0.0,0.0,0.0,0.0,0.0,0.0,0.0,0.0,0.0,0.0,0.0,0.0,-3.8164,-3.9501,-3.9573,0.0,0.0,0.0,0.0,0.0,0.0,-3.6796,-3.5676,0.0,0.0,0.0,0.0,0.0,0.0,0.0,0.0,0.0,0.0,0.0,0.0,0.0,0.0,0.0,0.0,0.0,0.0,0.0,0.0,0.0,0.0,0.0,0.0,0.0,0.0,0.0,0.0,0.0,0.0,0.0,0.0,0.0,0.0,0.0,0.0,0.0,0.0,0.0,0.0,0.0,0.0,0.0,0.0,0.0,0.0,0.0,0.0,0.0,0.0,0.0,0.0,0.0,0.0,0.0,-4.6659,-4.9097,-5.2306,-5.6247,-5.7441,-5.8082,-5.8268,-5.3758,-5.0043,0.0,0.0,0.0,0.0,0.0,0.0,0.0,0.0,0.0,0.0,0.0,0.0,0.0,0.0,0.0,0.0,0.0,0.0,0.0,0.0,0.0,0.0,0.0,0.0,0.0,0.0,0.0,0.0,0.0,0.0,0.0,0.0,0.0,0.0,0.0,0.0,0.0,0.0,0.0,0.0,0.0,-3.999,-4.0087,-4.0493,0.0,0.0,0.0,0.0,-3.8122,-3.7258,0.0,0.0,0.0,0.0,0.0,0.0,0.0,0.0,0.0,0.0,0.0,0.0,0.0,0.0,0.0,0.0,0.0,0.0,0.0,0.0,0.0,0.0,0.0,0.0,0.0,0.0,0.0,0.0,0.0,0.0,0.0,0.0,0.0,0.0,0.0,0.0,0.0,0.0,0.0,0.0,0.0,0.0,0.0,0.0,0.0,0.0,0.0,0.0,0.0,0.0,0.0,0.0,0.0,0.0,0.0,0.0,-4.5432,-4.7582,-5.0689,-5.4677,-5.6298,-5.6475,-5.5174,-5.3677,-5.0449,0.0,0.0,0.0,0.0,0.0,0.0,0.0,0.0,0.0,0.0,0.0,0.0,0.0,0.0,0.0,0.0,0.0,0.0,0.0,0.0,0.0,0.0,0.0,0.0,0.0,0.0,0.0,0.0,0.0,0.0,0.0,0.0,0.0,0.0,0.0,0.0,0.0,0.0,0.0,0.0,0.0,-4.2083,-4.0355,-4.1779,-4.2072,0.0,0.0,0.0,-3.9532,-3.9346,0.0,0.0,0.0,0.0,0.0,0.0,0.0,0.0,0.0,0.0,0.0,0.0,0.0,0.0,0.0,0.0,0.0,0.0,0.0,0.0,0.0,0.0,0.0,0.0,0.0,0.0,0.0,0.0,0.0,0.0,0.0,0.0,0.0,0.0,0.0,0.0,0.0,0.0,0.0,0.0,0.0,0.0,0.0,0.0,0.0,0.0,0.0,0.0,0.0,0.0,0.0,0.0,0.0,0.0,0.0,-4.1065,-4.4524,-4.6423,-4.9249,-5.3124,-5.3549,-5.3762,-5.3964,-4.9671,-4.6495,0.0,0.0,0.0,0.0,0.0,0.0,0.0,0.0,0.0,0.0,0.0,0.0,0.0,0.0,0.0,0.0,0.0,0.0,0.0,0.0,0.0,0.0,0.0,0.0,0.0,0.0,0.0,0.0,0.0,0.0,0.0,0.0,0.0,0.0,0.0,0.0,0.0,0.0,0.0,0.0,0.0,0.0,-4.0608,-4.1799,0.0,0.0,0.0,-3.9326,-3.9692,0.0,0.0,0.0,0.0,0.0,0.0,0.0,0.0,0.0,0.0,0.0,0.0,0.0,0.0,0.0,0.0,0.0,0.0,0.0,0.0,0.0,0.0,0.0,0.0,0.0,0.0,0.0,0.0,0.0,0.0,0.0,0.0,0.0,0.0,0.0,0.0,0.0,0.0,0.0,0.0,0.0,0.0,0.0,0.0,0.0,0.0,0.0,0.0,0.0,0.0,0.0,0.0,0.0,0.0,0.0,0.0,0.0,-4.3314,-4.5432,-4.8107,-5.1335,-5.1298,-5.1605,-5.2226,-4.679,0.0,0.0,0.0,0.0,0.0,0.0,0.0,0.0,0.0,0.0,0.0,0.0,0.0,0.0,0.0,0.0,0.0,0.0,0.0,0.0,0.0,0.0,0.0,0.0,0.0,0.0,0.0,-2.6742,0.0,0.0,0.0,0.0,0.0,0.0,0.0,0.0,0.0,0.0,0.0,0.0,0.0,0.0,-3.9951,-4.0561,-4.1814,-4.2319,0.0,0.0,-3.972,-3.9336,-3.8867,-3.7597,0.0,0.0,0.0,0.0,0.0,0.0,0.0,0.0,0.0,0.0,0.0,0.0,0.0,0.0,0.0,0.0,0.0,0.0,0.0,0.0,0.0,0.0,0.0,0.0,0.0,0.0,0.0,0.0,0.0,0.0,0.0,0.0,0.0,0.0,0.0,0.0,0.0,0.0,0.0,0.0,0.0,0.0,0.0,0.0,0.0,0.0,0.0,0.0,0.0,0.0,0.0,0.0,0.0,0.0,0.0,-4.1452,-4.4783,-4.7374,-4.9209,-5.0539,-5.0574,-4.9314,-4.7311,-4.4688,0.0,0.0,0.0,0.0,0.0,0.0,0.0,0.0,0.0,0.0,0.0,0.0,0.0,0.0,0.0,0.0,0.0,0.0,0.0,0.0,0.0,0.0,0.0,0.0,0.0,0.0,0.0,0.0,0.0,0.0,0.0,0.0,0.0,0.0,0.0,0.0,0.0,0.0,0.0,0.0,0.0,-4.0666,-3.9971,-4.2238,-4.3443,0.0,0.0,-4.004,-3.8697,-3.9967,-3.9667,-3.5222,0.0,0.0,0.0,0.0,0.0,0.0,0.0,0.0,0.0,0.0,0.0,0.0,0.0,0.0,0.0,0.0,0.0,0.0,0.0,0.0,0.0,0.0,0.0,0.0,0.0,0.0,0.0,0.0,0.0,0.0,0.0,0.0,0.0,0.0,0.0,0.0,0.0,0.0,0.0,0.0,0.0,0.0,0.0,0.0,0.0,0.0,0.0,0.0,0.0,0.0,0.0,0.0,0.0,-3.918,-4.1204,-4.3912,-4.6504,-4.8883,-4.912,-4.912,-4.8984,-4.6136,-4.3095,0.0,0.0,0.0,0.0,0.0,0.0,0.0,0.0,0.0,0.0,0.0,0.0,0.0,0.0,0.0,0.0,0.0,0.0,0.0,0.0,0.0,0.0,0.0,0.0,0.0,0.0,0.0,0.0,-2.7977,-2.8694,-2.9062,0.0,0.0,0.0,0.0,0.0,0.0,0.0,0.0,0.0,0.0,-3.8935,-4.0092,-4.1698,0.0,0.0,-4.0031,-3.9531,-3.8552,-3.8362,-3.7499,-3.4923,-3.3125,0.0,0.0,0.0,0.0,0.0,0.0,0.0,0.0,0.0,0.0,0.0,0.0,0.0,0.0,0.0,0.0,0.0,0.0,0.0,0.0,0.0,0.0,0.0,0.0,0.0,0.0,0.0,0.0,0.0,0.0,0.0,0.0,0.0,0.0,0.0,0.0,0.0,0.0,0.0,0.0,0.0,0.0,0.0,0.0,0.0,0.0,0.0,0.0,0.0,0.0,0.0,0.0,-3.887,-4.0865,-4.3098,-4.5432,-4.797,-4.7733,-4.7733,-4.7936,-4.5026,-4.2117,0.0,0.0,0.0,0.0,0.0,0.0,0.0,0.0,0.0,0.0,0.0,0.0,0.0,0.0,0.0,0.0,0.0,0.0,0.0,0.0,0.0,0.0,0.0,0.0,0.0,0.0,0.0,0.0,-2.8661,-2.9029,-2.8952,0.0,0.0,0.0,0.0,0.0,0.0,0.0,0.0,0.0,0.0,-3.7493,-3.9385,-4.0462,-4.0776,-3.9847,-3.9379,-3.896,-3.8452,-3.7315,-3.5878,-3.4204,0.0,0.0,0.0,0.0,0.0,0.0,0.0,0.0,0.0,0.0,0.0,0.0,0.0,0.0,0.0,0.0,0.0,0.0,0.0,0.0,0.0,0.0,0.0,0.0,0.0,0.0,0.0,0.0,0.0,0.0,0.0,0.0,0.0,0.0,0.0,0.0,0.0,0.0,0.0,0.0,0.0,0.0,0.0,0.0,0.0,0.0,0.0,0.0,0.0,0.0,0.0,0.0,0.0,0.0,-4.0113,-4.232,-4.4187,-4.5771,-4.6447,-4.6481,-4.5838,-4.4248,-4.2327,-4.0096,0.0,0.0,0.0,0.0,0.0,0.0,0.0,0.0,0.0,0.0,0.0,0.0,0.0,0.0,0.0,0.0,0.0,0.0,0.0,0.0,0.0,0.0,0.0,0.0,0.0,0.0,-3.0852,-2.9929,-2.8952,0.0,0.0,0.0,0.0,0.0,0.0,0.0,0.0,0.0,0.0,-3.4444,-3.672,-3.7409,-3.8637,-3.9655,-4.0187,-3.923,-3.8392,-3.8332,-3.7285,-3.5609,0.0,0.0,0.0,0.0,0.0,0.0,0.0,0.0,0.0,0.0,0.0,0.0,0.0,0.0,0.0,0.0,0.0,0.0,0.0,0.0,0.0,0.0,0.0,0.0,0.0,0.0,0.0,-4.7241,-4.7425,0.0,0.0,0.0,0.0,0.0,0.0,0.0,0.0,0.0,0.0,0.0,-4.7687,-4.8218,0.0,0.0,0.0,0.0,0.0,0.0,0.0,0.0,0.0,0.0,0.0,0.0,-3.8633,-4.0113,-4.2286,-4.4147,-4.5669,-4.594,-4.5974,-4.5703,-4.3741,-4.1407,-3.8734,0.0,0.0,0.0,0.0,0.0,0.0,0.0,0.0,0.0,0.0,0.0,0.0,0.0,0.0,0.0,0.0,0.0,0.0,0.0,0.0,0.0,0.0,0.0,0.0,0.0,-3.0479,0.0,0.0,0.0,0.0,0.0,0.0,0.0,0.0,0.0,0.0,0.0,-3.0941,-3.3814,-3.513,-3.6207,-3.7255,-3.8182,-3.8512,0.0,0.0,0.0,0.0,0.0,0.0,0.0,0.0,0.0,0.0,0.0,0.0,0.0,0.0,-3.3723,-3.2437,-3.1809,-3.1511,-3.1511,0.0,0.0,0.0,0.0,0.0,0.0,0.0,0.0,0.0,0.0,0.0,0.0,0.0,0.0,0.0,0.0,-4.871,0.0,0.0,0.0,0.0,0.0,0.0,0.0,0.0,-4.8636,-4.9675,-4.9695,-5.0227,-4.9858,0.0,-4.7127,-4.4445,0.0,0.0,0.0,0.0,0.0,0.0,0.0,0.0,-3.887,-4.0113,-4.2016,-4.3775,-4.5229,-4.506,-4.4925,-4.4891,-4.2726,-4.0257,-3.7584,-3.4709,-3.322,0.0,0.0,0.0,0.0,0.0,0.0,0.0,0.0,0.0,0.0,0.0,0.0,0.0,0.0,0.0,0.0,0.0,0.0,0.0,0.0,0.0,0.0,0.0,-3.0663,0.0,0.0,0.0,0.0,0.0,0.0,0.0,0.0,0.0,-3.0673,-3.0702,-3.1898,-3.54,-3.5669,-3.5968,-3.7225,0.0,0.0,0.0,0.0,0.0,0.0,0.0,-3.4713,-3.4203,-3.3963,-3.3754,-3.3544,-3.4233,-3.4741,-3.4563,0.0,0.0,-3.3754,-3.3006,-3.2557,-3.2527,-3.2527,-3.2587,-3.2826,-3.2615,-3.2584,0.0,0.0,0.0,0.0,0.0,0.0,0.0,0.0,-5.0251,-5.1593,0.0,-5.1079,0.0,0.0,0.0,0.0,0.0,0.0,0.0,0.0,-5.216,-5.2835,-5.0204,-5.0212,-4.9811,-4.9184,-4.9013,-4.7421,-4.4406,-3.9267,0.0,0.0,0.0,0.0,0.0,0.0,-3.9402,-4.018,-4.1636,-4.3064,-4.4479,-4.3809,-4.3375,-4.3274,-4.1279,-3.9174,-3.7032,-3.6761,-3.5746,-3.366,-3.4066,0.0,0.0,0.0,0.0,0.0,0.0,0.0,0.0,0.0,0.0,0.0,0.0,0.0,0.0,0.0,0.0,0.0,0.0,0.0,0.0,-3.0431,0.0,0.0,0.0,0.0,0.0,0.0,0.0,0.0,0.0,0.0,-3.154,-3.2198,-3.3574,-3.6241,0.0,0.0,0.0,0.0,-3.6447,-3.6447,-3.6447,-3.648,-3.6447,-3.5908,-3.507,-3.3814,0.0,0.0,-3.3664,-3.4651,-3.528,-3.4683,-3.4593,-3.4743,-3.528,-3.4741,-3.4354,-3.4324,-3.3395,-3.2886,-3.3245,-3.2253,-3.1332,-5.9648,0.0,0.0,0.0,0.0,-5.3151,-5.4473,-5.6689,-5.5354,-5.4913,-5.5133,-5.3078,0.0,0.0,0.0,0.0,0.0,0.0,-5.0472,-5.1516,-5.3518,-5.4532,-5.4802,-5.4802,-5.4199,-5.2953,-5.1275,-4.9224,-4.6743,-4.2645,-4.0296,-3.9647,0.0,0.0,0.0,0.0,-4.0121,-4.0933,-4.2354,-4.3301,-4.3713,-4.3511,-4.2929,-4.1854,-4.1212,-4.0087,-3.843,-3.7371,-3.6491,-3.5847,-3.3986,0.0,0.0,0.0,0.0,0.0,0.0,0.0,0.0,0.0,0.0,0.0,0.0,0.0,0.0,0.0,0.0,0.0,0.0,0.0,-3.1048,-3.0692,-3.0354,0.0,0.0,0.0,0.0,0.0,0.0,0.0,0.0,0.0,-3.4053,-3.4083,-3.4923,0.0,0.0,-3.6507,-3.7285,-3.6477,-3.5789,-3.5789,0.0,0.0,0.0,-3.5609,-3.537,-3.4981,-3.51,-3.513,-3.4981,-3.525,-3.5429,-3.522,-3.522,-3.513,-3.4801,-3.4233,-3.3814,-3.3784,-3.3814,-3.3963,-3.4143,-3.4046,-3.3981,-6.4494,-5.9685,-5.7152,-5.6418,-5.7005,-5.6859,-5.7703,-5.9111,-5.785,-5.7373,-5.7373,-5.5464,-5.3628,-5.1793,-4.9921,0.0,0.0,0.0,-5.227,-5.3739,-5.484,-5.5684,-5.6308,-5.6345,-5.5688,-5.4467,-5.2444,-5.0509,-4.8645,-4.5575,-4.3304,-4.1831,0.0,0.0,-3.8836,-3.9952,-4.0899,-4.1644,-4.2828,-4.3403,-4.3375,-4.2834,-4.1982,-4.0798,-4.0764,-4.0324,-3.9445,-3.799,-3.71,-3.6795,-3.4493,-3.2903,0.0,0.0,0.0,0.0,0.0,0.0,0.0,0.0,0.0,0.0,0.0,-2.9323,0.0,0.0,0.0,0.0,-2.9254,-3.0,-3.0528,-3.0036,0.0,0.0,0.0,0.0,0.0,0.0,0.0,-3.0821,-3.169,-3.2975,-3.4831,-3.5222,-3.6058,-3.8157,-3.7075,-3.6417,-3.7285,0.0,-3.5489,-3.5489,-3.5489,-3.5489,-3.5489,-3.5489,-3.5489,-3.5489,-3.5489,-3.5489,-3.5489,-3.5489,-3.54,-3.519,-3.51,-3.4891,-3.4203,-3.3754,-3.3514,-3.3514,-3.3814,-3.4114,-3.4083,-3.4412,-3.4592,-6.8201,-6.6439,-6.2585,-6.0419,-5.9588,-6.0272,-6.0199,-5.9404,-5.8584,-5.8988,-6.0126,-5.785,-5.6308,-5.5354,-5.3282,0.0,-5.3445,-5.4216,-5.462,-5.473,-5.6161,-5.6418,-5.5706,-5.5559,-5.5097,-5.4399,-5.2895,-5.1455,-5.0039,-4.8022,-4.6209,-4.4643,-4.1248,-3.979,-4.0299,-4.1001,-4.1711,-4.2354,-4.3064,-4.3341,-4.3206,-4.1847,-4.0764,-4.0045,-3.9977,-3.991,-3.9808,-3.8464,-3.7381,-3.6626,-3.5204,-3.3728,-3.2327,0.0,0.0,0.0,0.0,0.0,0.0,0.0,0.0,0.0,0.0,0.0,0.0,0.0,0.0,0.0,-2.7485,0.0,-2.9215,-2.8909,0.0,0.0,0.0,-2.9801,-2.9771,-3.0342,-3.1001,-3.157,0.0,0.0,0.0,0.0,-3.6836,-3.8003,-3.6656,-3.6028,-3.7225,-3.6294,-3.5489,-3.5489,-3.5489,-3.5489,-3.537,-3.528,-3.525,-3.534,-3.537,-3.528,-3.534,-3.528,-3.507,-3.4532,-3.4414,-3.4204,-3.3514,-3.3335,-3.3335,-3.3185,-3.3365,-3.3514,-3.3455,-3.3514,-3.3544,-7.0146,-6.9045,-6.688,-6.442,-6.1973,-6.2144,-6.212,-6.1789,-6.0456,-5.9722,-5.9331,-5.7607,-5.6014,-5.4693,-5.473,-5.484,-5.506,-5.5868,-5.6565,-5.7116,-5.6895,-5.6712,-5.6455,-5.528,-5.4583,-5.4363,-5.3405,-5.2216,-5.0844,-5.0269,-4.8428,-4.5513,-4.4471,-4.3263,-4.1873,-4.2523,-4.2936,-4.3132,-4.3308,-4.2834,-4.1745,-4.0832,-4.0011,-3.9276,-3.8734,-3.8159,-3.7608,-3.6671,-3.5791,-3.5069,-3.4167,-3.2983,-3.1529,-3.1819,0.0,0.0,0.0,0.0,0.0,0.0,0.0,0.0,0.0,-2.9339,-2.9172,0.0,-2.9653,0.0,-2.7837,-2.8102,-2.9412,-2.9422,0.0,0.0,-3.1086,-3.1629,-3.1122,-3.2078,-3.2856,-3.3006,-3.3754,-3.4502,-3.519,-3.5549,-3.5848,-3.6148,-3.6237,-3.6537,-3.7255,-3.6327,-3.5489,-3.5459,-3.5459,-3.531,-3.4801,-3.4292,-3.4173,-3.4651,-3.4322,-3.4143,-3.4683,-3.4292,-3.3903,-3.3754,-3.3724,-3.3455,-3.2856,-3.2347,-3.178,-3.145,-3.2407,-3.3335,-3.2856,-3.3125,-3.3185,-7.0624,-6.9412,-6.7834,-6.5705,-6.3429,-6.3759,-6.3723,-6.3246,-6.163,-6.0493,-5.9648,-5.8033,-5.6859,-5.6051,-5.6455,-5.6675,-5.6675,-5.7116,-5.7373,-5.7446,-5.7005,-5.6418,-5.5721,-5.484,-5.4216,-5.3827,-5.3076,-5.2172,-5.1067,-5.0079,-4.8435,-4.6206,-4.5473,-4.4544,-4.3362,-4.3369,-4.3544,-4.3944,-4.3234,-4.2388,-4.1238,-4.046,-3.991,-3.9503,-3.8768,-3.8058,-3.7337,-3.6231,-3.5397,-3.4979,-3.3964,-3.2882,-3.1785,-3.1785,-3.1123,0.0,0.0,0.0,0.0,0.0,0.0,0.0,0.0,0.0,0.0,0.0,-2.952,0.0,-2.8293,0.0,-2.9834,-2.9983,-3.0133,-3.0462,-3.1421,-3.2019,-3.1959,-3.2587,-3.3155,-3.3455,-3.3814,-3.4203,-3.4562,-3.4622,-3.4592,-3.4622,-3.4921,-3.537,-3.5908,-3.5459,-3.4951,-3.4681,-3.4622,-3.4502,-3.4114,-3.3785,-3.3604,-3.3933,-3.3754,-3.3634,-3.3963,-3.3754,-3.3425,-3.3125,-3.2826,-3.2407,-3.1749,-3.112,-3.0522,-3.0372,-3.0971,-3.1509,-3.13,-3.1509,-3.1422,-7.0293,-6.8752,-6.7173,-6.5705,-6.4457,-6.4934,-6.4677,-6.3796,-6.2181,-6.0933,-6.0015,-5.8621,-5.7997,-5.7997,-5.7997,-5.7997,-5.7997,-5.7997,-5.7629,-5.6969,-5.6748,-5.5904,-5.4546,-5.4326,-5.3842,-5.3039,-5.2404,-5.1716,-5.092,-4.9116,-4.7741,-4.6811,-4.5614,-4.4868,-4.4581,-4.391,-4.3809,-4.4276,-4.299,-4.1948,-4.1204,-4.0561,-4.018,-3.9943,-3.9039,-3.8193,-3.7347,-3.5938,-3.5194,-3.5126,-3.3943,-3.2983,-3.2327,-3.1718,-3.1021,0.0,-3.0446,0.0,0.0,0.0,0.0,0.0,0.0,0.0,0.0,-2.8225,-2.9099,-3.0366,-2.8879,-2.8543,-3.0223,-3.0462,-3.0492,-3.0522,-3.1182,-3.1869,-3.2407,-3.2557,-3.2856,-3.3425,-3.3514,-3.3514,-3.3544,-3.3514,-3.3514,-3.3604,-3.3634,-3.3844,-3.4174,-3.4354,-3.4204,-3.3544,-3.3425,-3.3425,-3.3365,-3.3275,-3.3215,-3.3305,-3.3215,-3.3245,-3.3185,-3.3095,-3.2856,-3.2228,-3.16,-3.1062,-3.0492,-2.9894,-2.9532,-2.9502,-2.9502,-2.9502,-2.9564,-2.9741,-2.9344,-6.9779,-6.8752,-6.7173,-6.6329,-6.5962,-6.4824,-6.3833,-6.2952,-6.1337,-5.9795,-5.8437,-5.8143,-5.7997,-5.7997,-5.7997,-5.7997,-5.7997,-5.7997,-5.7923,-5.7703,-5.6418,-5.5647,-5.528,-5.4032,-5.304,-5.2335,-5.2159,-5.1469,-5.023,-5.0408,-4.9207,-4.6844,-4.7071,-4.6316,-4.4677,0.0,0.0,0.0,-4.2422,-4.1948,-4.1238,-4.1068,-4.0426,-3.9208,-3.728,0.0,-3.4303,-3.3389,-3.2936,-3.2936,-3.2666,0.0,0.0,0.0,0.0,0.0,0.0,0.0,0.0,0.0,0.0,0.0,-3.2487,-3.177,-2.9394,-2.9256,-2.9701,-3.0385,-2.9705,-2.9382,-2.9714,-3.0223,-3.0492,-3.0552,-3.1599,-3.2348,-3.2527,-3.2976,-3.3365,-3.3484,-3.3484,-3.3484,-3.3455,-3.3514,-3.3484,-3.3425,-3.3484,-3.3335,-3.2946,-3.3365,-3.3604,-3.3484,-3.3006,-3.2706,-3.2676,-3.2258,-3.2168,-3.2467,-3.2198,-3.1929,-3.1869,-3.148,-3.0911,-3.0342,-3.0043,-2.9924,-2.9744,-2.9235,-2.8786,-2.8786,-2.8393,-2.8154,-2.8667,-2.9205,-2.9388,-6.9192,0.0,-6.6402,-6.5448,0.0,-6.3796,-6.2989,-6.2144,-6.0933,-5.9501,-5.7997,-5.7997,-5.7997,-5.7997,-5.7997,-5.7997,-5.796,-5.7593,-5.7189,-5.6748,-5.5574,-5.4803,-5.4399,-5.3592,-5.2813,-5.2112,-5.1777,-5.1025,-5.0027,-4.9652,-4.8592,-4.6815,-4.6783,-4.6032,-4.4649,-4.4181,-4.3436,-4.2286,-4.1948,-4.1407,-4.0722,-4.0663,-4.029,-3.9537,0.0,0.0,0.0,0.0,0.0,0.0,0.0,0.0,0.0,0.0,0.0,-3.1326,-3.2239,-3.2679,-3.2327,-3.2327,-3.2476,-3.2814,-3.3213,-3.2749,-3.1077,-3.0735,-3.0732,-3.1006,-3.0765,-3.0573,-3.055,-3.0793,-3.1122,-3.148,-3.1809,-3.2108,-3.2467,-3.2497,-3.2527,-3.2497,-3.2497,-3.2527,-3.2527,-3.2527,-3.2497,-3.2497,-3.2527,-3.2437,-3.2138,-3.2587,-3.2916,-3.2557,-3.2258,-3.2019,-3.1959,-3.178,-3.157,-3.1869,-3.172,-3.1391,-3.1062,-3.0731,-3.0313,-2.9741,-2.9352,-2.9142,-2.9056,-2.8573,-2.8124,-2.8094,-2.7824,-2.7705,-2.8064,-2.8393,-2.8412,-6.8568,-6.6439,-6.5632,-6.4457,-6.3025,-6.2879,-6.2291,-6.1337,0.0,0.0,0.0,-5.7997,-5.7997,-5.7997,-5.7997,-5.7997,-5.7923,-5.7189,-5.6455,-5.5757,-5.484,-5.4069,-5.3445,-5.3277,-5.2791,-5.2089,-5.1419,-5.0716,-4.997,-4.8703,-4.7733,-4.6989,-4.638,-4.5669,-4.479,-4.3876,-4.3098,-4.2489,-4.1779,-4.1102,-4.0519,-4.035,-4.0248,-4.0113,-3.8667,-3.755,-3.6795,-3.4844,-3.3774,-3.3795,-3.3085,-3.2699,-3.2699,-3.3152,-3.2848,-3.1732,-3.2138,-3.2496,-3.2496,-3.1955,-3.2171,-3.3525,-3.364,-3.3389,-3.2727,-3.2237,-3.1946,-3.1935,-3.184,-3.177,-3.1679,-3.1538,-3.1778,-3.2434,-3.1927,-3.1778,-3.2345,-3.1898,-3.157,-3.1511,-3.157,-3.1511,-3.154,-3.157,-3.1511,-3.1511,-3.16,-3.1511,-3.157,-3.1989,-3.2138,-3.172,-3.163,-3.154,-3.1511,-3.1511,-3.1511,-3.154,-3.1421,-3.1092,-3.0552,-3.0342,-3.0043,-2.9262,-2.8816,-2.8607,-2.8427,-2.8004,-2.7615,-2.7585,-2.7585,-2.7564,-2.7433,-2.7408,-2.7314,-6.8054,-6.6439,-6.5632,-6.4751,-6.387,-6.3135,-6.1961,-6.0529,-5.9722,-5.8841,-5.7997,-5.7997,-5.7997,-5.7997,-5.7997,-5.7997,-5.796,-5.7152,-5.6748,0.0,-5.5097,-5.4326,-5.4216,-5.3534,-5.2813,-5.2089,-5.1419,-5.0716,-5.0004,-4.9214,-4.8477,-4.7834,-4.7665,-4.6887,-4.5534,-4.4119,-4.3341,-4.324,-4.2523,-4.2083,-4.1982,-4.1373,-4.073,-4.0062,-3.8676,-3.755,-3.6829,-3.5825,-3.5295,-3.5261,-3.4607,-3.4223,-3.4167,-3.3694,-3.3322,-3.3119,-3.3186,-3.3254,-3.3254,-3.3152,-3.3457,-3.4235,-3.4373,-3.4075,-3.3429,-3.3356,-3.3316,-3.3284,-3.2787,-3.2451,-3.241,-3.1881,-3.1798,-3.2397,-3.1942,-3.1799,-3.2456,-3.1944,-3.1511,-3.1511,-3.1511,-3.1511,-3.1511,-3.1511,-3.1511,-3.1511,-3.1511,-3.1511,-3.1511,-3.157,-3.16,-3.154,-3.1511,-3.1511,-3.1511,-3.1511,-3.1481,-3.1511,-3.1002,-3.0492,-2.9804,-2.9714,-2.9295,-2.8124,-2.8304,-2.8308,-2.7914,-2.7675,-2.7585,-2.7585,-2.7585,-2.7408,-2.6893,-2.6736,-2.6788,-6.732,-6.5815,-6.5007,-6.4163,-6.3282,-6.2071,-6.1117,-6.0309,-5.9098,-5.8364,-5.7997,-5.7997,-5.7997,-5.7997,-5.7997,-5.774,-5.7299,-5.6492,-5.5904,-5.5427,-5.4289,-5.3739,-5.3739,-5.335,-5.285,-5.2089,-5.1419,-5.0716,-5.0004,-4.9346,-4.8646,-4.7906,-4.753,-4.6752,-4.5737,-4.4993,-4.4451,-4.4045,-4.2895,-4.2083,-4.1711,-4.1373,-4.0865,-4.0121,-3.9039,-3.8362,-3.8014,-3.6874,-3.6265,-3.6231,-3.552,-3.4945,-3.4506,-3.4573,-3.4213,-3.347,-3.3795,-3.3998,-3.3998,-3.437,-3.4551,-3.4527,-3.4878,-3.4947,-3.4676,-3.4665,-3.452,-3.4145,-3.3515,-3.3002,-3.2656,-3.2299,-3.2107,-3.2023,-3.2051,-3.2079,-3.1966,-3.1739,-3.1511,-3.1511,-3.1511,-3.1511,-3.1511,-3.1511,-3.1511,-3.1511,-3.1511,-3.1511,-3.1511,-3.1511,-3.1511,-3.1511,-3.1511,-3.1511,-3.1511,-3.1511,-3.1361,-3.1032,-3.0731,-3.0103,-2.9295,-2.9056,-2.8637,-2.7824,-2.7884,-2.7914,-2.7615,-2.7585,-2.7585,-2.7585,-2.7585,-2.7306,-2.6736,-2.6203,-2.5933,-6.6769,-6.5264,-6.464,-6.3759,-6.267,-6.108,-6.0419,-6.0236,-5.8694,-5.7997,-5.7997,-5.7997,-5.7886,-5.774,-5.774,-5.7299,-5.6492,-5.5684,-5.4987,-5.4363,-5.3592,-5.3203,-5.3203,-5.3203,-5.2915,-5.2289,-5.1494,-5.0796,-5.023,-4.9436,-4.8714,-4.8139,-4.7428,-4.6786,-4.621,-4.5872,-4.5432,-4.479,-4.3504,-4.2455,-4.1711,-4.1373,-4.0933,-4.0383,-3.9639,-3.9242,-3.9199,-3.8014,-3.7303,-3.7269,-3.6535,-3.5769,-3.5081,-3.5554,-3.5261,-3.4134,-3.4438,-3.4742,-3.4776,-3.5284,-3.5363,-3.481,-3.5261,-3.56,-3.56,-3.56,-3.5385,-3.483,-3.4227,-3.3624,-3.3182,-3.2922,-3.2652,-3.2241,-3.2544,-3.2625,-3.2104,-3.1853,-3.1653,-3.1568,-3.1511,-3.1511,-3.1511,-3.1511,-3.1511,-3.1511,-3.1511,-3.1511,-3.1511,-3.1511,-3.1511,-3.1511,-3.1511,-3.1511,-3.1511,-3.1511,-3.1301,-3.0791,-3.0462,-2.9894,-2.9116,-2.8786,-2.8338,-2.7824,-2.7764,-2.7794,-2.7675,-2.7433,-2.7331,-2.7255,-2.7097,-2.6759,-2.6014,-2.5301,-2.4879,-6.6733,-6.5411,-6.5191,-6.4273,-6.2633,-6.108,-6.0382,-6.0162,-5.8694,-5.7997,-5.7997,-5.7997,-5.7593,-5.6969,-5.6932,-5.6528,-5.5684,-5.4876,-5.4473,-5.4289,-5.3592,-5.3203,-5.3167,-5.3203,-5.3146,-5.2893,-5.1703,-5.0981,-5.0796,-4.961,-4.8951,-4.8815,-4.8173,-4.7736,-4.7534,-4.638,-4.5703,-4.5602,-4.479,-4.3978,-4.3172,-4.1914,-4.117,-4.1102,-4.0417,-4.0011,-3.9943,-3.9208,-3.8768,-3.8734,-3.8091,-3.7347,-3.6694,-3.666,-3.6299,-3.5464,-3.5464,-3.5498,-3.5498,-3.5532,-3.5566,-3.5498,-3.5532,-3.56,-3.56,-3.56,-3.5577,-3.5362,-3.4854,-3.4447,-3.4399,-3.3846,-3.3675,-3.3896,-3.3726,-3.3469,-3.3235,-3.2868,-3.2244,-3.1568,-3.1511,-3.1511,-3.1511,-3.1511,-3.1511,-3.1511,-3.1511,-3.1511,-3.1511,-3.1511,-3.1511,-3.1511,-3.1511,-3.1481,-3.1451,-3.1511,-3.1301,-3.1212,-3.0432,-2.9714,-2.9352,-2.8876,-2.8368,-2.7824,-2.8034,-2.8098,-2.7535,-2.7097,-2.6683,-2.6522,-2.6149,-2.5439,-2.4652,-2.4018,-2.3695,-6.6329,-6.5264,-6.4787,-6.3613,-6.2034,-6.0896,-6.0126,-5.9575,-5.851,-5.7997,-5.7997,-5.7997,-5.7556,-5.6822,-5.6785,-5.6124,-5.4876,-5.4546,-5.4142,-5.3702,-5.3335,-5.3203,-5.3146,-5.2747,-5.2554,-5.244,-5.1112,-5.0445,-5.0349,-4.9462,-4.9018,-4.8984,-4.868,-4.8342,-4.7872,-4.7297,-4.6786,-4.6346,-4.5602,-4.5094,-4.4654,-4.3301,-4.2083,-4.1271,-4.0899,-4.0527,-4.0146,-3.9808,-3.9673,-3.9639,-3.9368,-3.887,-3.8149,-3.7686,-3.7313,-3.6975,-3.6535,-3.6096,-3.5633,-3.56,-3.56,-3.56,-3.56,-3.56,-3.56,-3.56,-3.56,-3.5532,-3.5005,-3.4616,-3.4592,-3.4317,-3.4178,-3.4071,-3.4071,-3.3896,-3.305,-3.2788,-3.2327,-3.1625,-3.1511,-3.1511,-3.1511,-3.1511,-3.1511,-3.1511,-3.1511,-3.1511,-3.1511,-3.1511,-3.1511,-3.1511,-3.1511,-3.1301,-3.1062,-3.0883,-3.0793,-3.0492,-3.0283,-3.0013,-2.9175,-2.8846,-2.8368,-2.7735,-2.7863,-2.7717,-2.7029,-2.6788,-2.6418,-2.596,-2.5273,-2.4624,-2.4337,-2.3662,-2.3395,-6.6219,-6.5191,-6.3943,-6.2695,-6.152,-6.0493,-5.9735,-5.9148,-5.8364,-5.7997,-5.7997,-5.7997,-5.7409,-5.6565,-5.6492,-5.5611,-5.4216,-5.4069,-5.3775,-5.3203,-5.3203,-5.3203,-5.3124,-5.2463,-5.2112,-5.1862,-5.0689,-4.9953,-4.9756,-4.929,-4.9018,-4.9018,-4.9018,-4.8748,-4.821,-4.8041,-4.7665,-4.7056,-4.621,-4.5703,-4.55,-4.4418,-4.3031,-4.1644,-4.1305,-4.0865,-4.0146,-4.0113,-4.0113,-4.0113,-4.0113,-3.9774,-3.9039,-3.8497,-3.8024,-3.7618,-3.7134,-3.6434,-3.5667,-3.56,-3.56,-3.56,-3.56,-3.56,-3.56,-3.56,-3.56,-3.5577,-3.5144,-3.4911,-3.4887,-3.4854,-3.464,-3.4252,-3.4616,-3.4325,-3.3103,-3.2868,-3.2516,-3.1682,-3.1511,-3.1511,-3.1511,-3.1511,-3.1511,-3.1511,-3.1511,-3.1511,-3.1511,-3.1511,-3.1511,-3.1481,-3.1361,-3.1122,-3.0821,-3.0911,-3.0552,-3.0342,-3.0462,-3.0133,-2.9205,-2.8966,-2.8363,-2.7758,-2.7513,-2.7023,-2.6336,-2.6068,-2.566,-2.4937,-2.4339,-2.4018,-2.3872,-2.3395,-2.3185,-6.6733,-6.5007,-6.2732,-6.1704,-6.1447,-5.9942,-5.9258,-5.9061,-5.8327,-5.7997,-5.7997,-5.7997,-5.7116,-5.5721,-5.5721,-5.4803,-5.3424,-5.3335,-5.3277,-5.3203,-5.3203,-5.3203,-5.3124,-5.245,-5.2089,-5.1886,-5.0627,-4.9693,-4.9107,-4.9015,-4.9018,-4.9018,-4.9018,-4.8984,-4.8815,-4.8274,-4.7936,-4.7703,-4.6549,-4.5771,-4.5669,-4.4959,-4.3836,-4.2422,-4.1576,-4.0899,-4.0248,-4.0113,-4.0113,-4.0113,-4.0113,-3.9774,-3.9106,-3.8971,-3.8362,-3.71,-3.6863,-3.6468,-3.5735,-3.56,-3.56,-3.56,-3.56,-3.56,-3.56,-3.56,-3.56,-3.56,-3.5532,-3.5476,-3.5407,-3.5385,-3.5407,-3.5316,-3.5407,-3.484,-3.3617,-3.3339,-3.2864,-3.1823,-3.1511,-3.1511,-3.1511,-3.1511,-3.1511,-3.1511,-3.1511,-3.1451,-3.1421,-3.1451,-3.1481,-3.1331,-3.1062,-3.0763,-3.1271,-3.1002,-3.1092,-3.0883,-3.0342,-3.0342,-3.0013,-2.951,-2.8505,-2.7569,-2.6973,-2.6285,-2.5577,-2.4909,-2.4279,-2.3754,-2.3577,-2.3335,-2.3454,-2.3245,-2.3095,-6.5191,-6.3613,-6.2181,-6.1006,-6.0015,-5.9404,-5.8927,-5.8437,-5.8143,-5.7997,-5.7997,-5.7997,-5.7116,-5.5633,-5.5633,-5.473,-5.3277,-5.3203,-5.3203,-5.3203,-5.3203,-5.3203,-5.3124,-5.2427,-5.1874,-5.1343,-5.0472,-4.9664,-4.9077,-4.9018,-4.9018,-4.9018,-4.9018,-4.9018,-4.8951,-4.8748,-4.8612,-4.8511,-4.7597,-4.7124,-4.6955,-4.594,-4.479,-4.3802,-4.2557,-4.1542,-4.0832,-4.035,-4.0113,-4.0113,-4.0113,-4.0011,-3.974,-3.9706,-3.8826,-3.7134,-3.7246,-3.6941,-3.5836,-3.56,-3.56,-3.56,-3.56,-3.56,-3.56,-3.56,-3.56,-3.56,-3.56,-3.5487,-3.5144,-3.5339,-3.543,-3.5052,-3.4958,-3.4447,-3.3339,-3.2949,-3.2571,-3.1739,-3.1511,-3.1511,-3.1511,-3.1511,-3.1511,-3.1511,-3.1511,-3.1331,-3.1032,-3.1182,-3.1391,-3.1032,-3.1032,-3.1212,-3.1391,-3.0673,-3.0253,-3.0223,-2.9953,-2.9597,-2.9268,-2.8685,-2.7748,-2.6907,-2.6265,-2.555,-2.4824,-2.4192,-2.3484,-2.3335,-2.3095,-2.3095,-2.3095,-2.3095,-2.3095,-6.3445,-6.234,-6.1263,-6.0236,-5.9221,-5.8891,-5.851,-5.7997,-5.7997,-5.7997,-5.7997,-5.7997,-5.7116,-5.5757,-5.5633,-5.473,-5.3277,-5.3203,-5.3203,-5.3203,-5.3203,-5.3203,-5.306,-5.2242,-5.1544,-5.1008,-5.0118,-4.9402,-4.9046,-4.9018,-4.9018,-4.9018,-4.9018,-4.9018,-4.9018,-4.9018,-4.9018,-4.8883,-4.8277,-4.78,-4.7462,-4.6346,-4.5365,-4.4547,-4.3301,-4.2185,-4.1271,-4.0493,-4.0113,-4.0113,-4.0113,-4.0113,-4.0113,-4.0113,-3.9233,-3.754,-3.7618,-3.7222,-3.587,-3.56,-3.56,-3.56,-3.56,-3.56,-3.56,-3.56,-3.56,-3.56,-3.56,-3.5339,-3.4901,-3.5191,-3.5316,-3.4712,-3.4423,-3.3921,-3.3082,-3.2734,-3.2299,-3.1682,-3.1511,-3.1511,-3.1511,-3.1511,-3.1511,-3.1511,-3.1511,-3.1271,-3.1002,-3.1152,-3.1391,-3.0943,-3.1212,-3.1391,-3.1391,-3.0791,-3.0313,-3.0193,-2.9953,-2.9418,-2.8613,-2.7919,-2.7109,-2.6299,-2.5494,-2.4765,-2.4105,-2.3514,-2.3245,-2.3125,-2.3095,-2.3095,-2.3095,-2.3095,-2.3095,-6.163,-6.1325,-5.9845,-5.9258,-5.9024,-5.84,-5.8033,-5.7997,-5.7997,-5.7997,-5.7997,-5.7997,-5.7079,-5.5831,-5.5633,-5.473,-5.3387,-5.3203,-5.3203,-5.3203,-5.3203,-5.3146,-5.3039,-5.1874,-5.1189,-5.0929,-4.9698,-4.9046,-4.9018,-4.9018,-4.9018,-4.9018,-4.9018,-4.9018,-4.9018,-4.9018,-4.9018,-4.8849,-4.8308,-4.7597,-4.6819,-4.6143,-4.5399,-4.4654,-4.3809,-4.2665,-4.1339,-4.0587,-4.018,-4.0113,-4.0113,-4.0113,-4.0113,-4.0113,-3.9436,-3.8193,-3.7922,-3.7121,-3.5904,-3.5633,-3.56,-3.56,-3.56,-3.56,-3.56,-3.56,-3.56,-3.56,-3.5577,-3.5316,-3.4783,-3.5098,-3.5247,-3.4664,-3.4053,-3.3649,-3.3391,-3.2949,-3.2299,-3.1653,-3.1511,-3.1511,-3.1511,-3.1511,-3.1511,-3.1511,-3.1511,-3.1421,-3.1241,-3.1361,-3.1481,-3.1391,-3.1421,-3.1481,-3.1271,-3.1001,-3.0731,-3.0462,-3.0135,-2.9689,-2.8571,-2.7728,-2.6637,-2.5771,-2.4761,-2.4073,-2.3725,-2.3185,-2.3185,-2.3095,-2.3095,-2.3095,-2.3095,-2.3095,-2.3095,-5.9968,-5.9918,-5.9404,-5.8877,-5.84,-5.8107,-5.7997,-5.7997,-5.7997,-5.7997,-5.7997,-5.7997,-5.7116,-5.5868,-5.5574,-5.473,-5.3277,-5.3203,-5.3203,-5.3203,-5.3203,-5.2937,-5.245,-5.1994,-5.1292,-5.0335,-4.9432,-4.9018,-4.9018,-4.9018,-4.9018,-4.9018,-4.9018,-4.9018,-4.9018,-4.9018,-4.9018,-4.8917,-4.8308,-4.7736,-4.7462,-4.6346,-4.5568,-4.5263,-4.4113,-4.2929,-4.1982,-4.1238,-4.0595,-4.0146,-4.0113,-4.0113,-4.0113,-4.0113,-3.9639,-3.8768,-3.8159,-3.7516,-3.6535,-3.587,-3.56,-3.56,-3.56,-3.56,-3.56,-3.56,-3.56,-3.56,-3.5577,-3.5201,-3.4325,-3.452,-3.4616,-3.4003,-3.3694,-3.3365,-3.2922,-3.2299,-3.1796,-3.1567,-3.1511,-3.1511,-3.1511,-3.1511,-3.1511,-3.1511,-3.1511,-3.1391,-3.1002,-3.1301,-3.1241,-3.0943,-3.1182,-3.1481,-3.1331,-3.1182,-3.0971,-3.0349,-2.9876,-2.9241,-2.8241,-2.7086,-2.605,-2.5177,-2.4181,-2.3603,-2.3245,-2.3095,-2.3095,-2.3095,-2.3095,-2.3095,-2.3095,-2.3095,-2.3095,-5.8539,-5.8744,-5.8767,-5.8474,-5.7997,-5.7997,-5.7997,-5.7997,-5.7997,-5.7997,-5.7997,-5.7997,-5.7299,-5.6235,-5.6051,-5.5133,-5.3739,-5.3665,-5.3482,-5.324,-5.3203,-5.2915,-5.2404,-5.1886,-5.1008,-4.9809,-4.9195,-4.9018,-4.9018,-4.9018,-4.9018,-4.9018,-4.9018,-4.9018,-4.9018,-4.9018,-4.9018,-4.8917,-4.8545,-4.8071,-4.7428,-4.6616,-4.5838,-4.5229,-4.435,-4.3335,-4.2388,-4.1847,-4.1136,-4.0316,-4.0113,-4.0113,-4.0113,-4.0079,-3.9774,-3.9063,-3.8294,-3.755,-3.6863,-3.6062,-3.56,-3.56,-3.56,-3.56,-3.56,-3.56,-3.56,-3.56,-3.5339,-3.4759,-3.3953,-3.4194,-3.4244,-3.37,-3.3365,-3.2917,-3.2299,-3.1796,-3.1509,-3.1511,-3.1511,-3.1511,-3.1511,-3.1511,-3.1511,-3.1511,-3.1511,-3.1451,-3.1062,-3.1271,-3.1092,-3.1002,-3.1271,-3.1451,-3.1481,-3.1361,-3.1152,-3.0352,-2.9442,-2.8557,-2.7537,-2.6106,-2.4902,-2.4353,-2.3514,-2.3395,-2.3095,-2.3095,-2.3095,-2.3095,-2.3095,-2.3095,-2.3095,-2.3095,-2.3095,-5.7262,-5.7904,-5.7997,-5.8033,-5.7997,-5.7997,-5.7997,-5.7997,-5.7997,-5.7997,-5.7997,-5.7997,-5.7519,-5.6895,-5.6675,-5.5831,-5.4656,-5.4289,-5.3959,-5.3482,-5.324,-5.306,-5.2599,-5.1555,-5.0369,-4.9226,-4.9015,-4.9018,-4.9018,-4.9018,-4.9018,-4.9018,-4.9018,-4.9018,-4.9018,-4.9018,-4.9018,-4.8984,-4.8883,-4.8139,-4.6955,-4.6684,-4.6041,-4.475,-4.4547,-4.387,-4.2692,-4.2151,-4.1467,-4.0316,-4.0113,-4.0113,-4.0113,-4.0113,-3.9808,-3.9174,-3.8396,-3.7719,-3.6907,-3.6231,-3.5701,-3.56,-3.56,-3.56,-3.56,-3.56,-3.56,-3.5577,-3.5144,-3.452,-3.4021,-3.435,-3.4374,-3.3777,-3.3261,-3.2571,-3.1739,-3.1567,-3.1511,-3.1511,-3.1511,-3.1511,-3.1511,-3.1511,-3.1511,-3.1511,-3.1511,-3.1451,-3.1421,-3.1421,-3.1481,-3.1481,-3.1451,-3.1451,-3.1511,-3.1481,-3.1271,-3.0682,-2.9454,-2.8022,-2.7003,-2.5601,-2.425,-2.3662,-2.3305,-2.3155,-2.3095,-2.3095,-2.3095,-2.3095,-2.3095,-2.3095,-2.3095,-2.3095,-2.3095,-5.6465,-5.7216,-5.7774,-5.7997,-5.7997,-5.7997,-5.7997,-5.7997,-5.7997,-5.7997,-5.7997,-5.7997,-5.7593,-5.6859,-5.6822,-5.6235,-5.5317,-5.4693,-5.4363,-5.4032,-5.3445,-5.2568,-5.1679,-5.077,-4.9896,-4.9107,-4.9018,-4.9018,-4.9018,-4.9018,-4.9018,-4.9018,-4.9018,-4.9018,-4.9018,-4.9018,-4.9018,-4.8917,-4.8443,-4.78,-4.6921,-4.6278,-4.5568,-4.475,-4.4581,-4.4079,-4.3098,-4.2049,-4.1102,-4.0214,-4.0113,-4.0113,-4.0113,-4.0113,-4.0011,-3.9706,-3.9073,-3.8362,-3.7618,-3.6874,-3.6231,-3.5667,-3.56,-3.56,-3.56,-3.56,-3.56,-3.5577,-3.5385,-3.5028,-3.4592,-3.4878,-3.4911,-3.439,-3.3751,-3.3082,-3.2382,-3.1824,-3.1511,-3.1511,-3.1511,-3.1511,-3.1511,-3.1511,-3.1511,-3.1511,-3.1511,-3.1511,-3.1511,-3.1511,-3.1511,-3.1511,-3.1481,-3.1481,-3.1511,-3.1511,-3.1333,-3.0922,-2.955,-2.757,-2.6609,-2.5488,-2.4297,-2.3335,-2.3245,-2.3095,-2.3095,-2.3095,-2.3095,-2.3095,-2.3095,-2.3095,-2.3095,-2.3095,-2.3095,-5.59,-5.6938,-5.7376,-5.7726,-5.7997,-5.7997,-5.7997,-5.7997,-5.7997,-5.7997,-5.7997,-5.7997,-5.774,-5.7336,-5.7299,-5.6638,-5.5611,-5.5097,-5.4546,-5.3769,-5.3054,-5.2149,-5.1215,-5.0581,-4.9947,-4.9077,-4.9018,-4.9018,-4.9018,-4.9018,-4.9018,-4.9018,-4.9018,-4.9018,-4.9018,-4.9018,-4.9018,-4.8951,-4.8545,-4.7902,-4.6819,-4.6413,-4.5602,-4.4852,-4.4547,-4.4113,-4.2963,-4.1813,-4.0865,-4.0282,-4.0113,-4.0113,-4.0113,-4.0113,-4.0113,-4.0079,-3.9411,-3.8667,-3.7956,-3.7212,-3.6434,-3.5825,-3.56,-3.56,-3.56,-3.56,-3.56,-3.56,-3.5362,-3.5005,-3.4783,-3.4948,-3.5098,-3.4958,-3.4423,-3.3649,-3.2707,-3.2244,-3.1824,-3.1625,-3.1511,-3.1511,-3.1511,-3.1511,-3.1511,-3.1511,-3.1511,-3.1511,-3.1511,-3.1511,-3.1511,-3.1511,-3.1421,-3.1391,-3.1182,-3.1092,-3.047,-3.0122,-2.9,-2.7088,-2.5842,-2.4922,-2.4119,-2.3215,-2.3155,-2.3095,-2.3095,-2.3095,-2.3095,-2.3095,-2.3095,-2.3095,-2.3095,-2.3095,-2.3095,-5.5472,-5.6747,-5.6861,-5.7327,-5.795,-5.7997,-5.7997,-5.7997,-5.7997,-5.7997,-5.7997,-5.7997,-5.7923,-5.7997,-5.7813,-5.7152,-5.5757,-5.5574,-5.4422,-5.3368,-5.244,-5.1752,-5.0929,-5.077,-5.0061,-4.9168,-4.9018,-4.9018,-4.9018,-4.9018,-4.9018,-4.9018,-4.9018,-4.9018,-4.9018,-4.9018,-4.9018,-4.9018,-4.8951,-4.8139,-4.7056,-4.665,-4.5974,-4.4818,-4.4581,-4.3836,-4.2658,-4.1677,-4.0967,-4.0113,-4.0113,-4.0113,-4.0113,-4.0113,-4.0113,-4.0045,-3.9537,-3.8836,-3.799,-3.7313,-3.6535,-3.5859,-3.56,-3.56,-3.56,-3.56,-3.56,-3.56,-3.5052,-3.4911,-3.483,-3.4783,-3.5052,-3.5316,-3.4981,-3.4128,-3.3082,-3.2625,-3.2327,-3.1625,-3.1511,-3.1511,-3.1511,-3.1511,-3.1511,-3.1511,-3.1511,-3.1511,-3.1511,-3.1511,-3.1511,-3.1511,-3.1391,-3.1271,-3.0943,-3.0642,-2.9756,-2.8971,-2.7818,-2.6302,-2.4766,-2.3891,-2.348,-2.3095,-2.3095,-2.3095,-2.3095,-2.3095,-2.3095,-2.3095,-2.3095,-2.3095,-2.3095,-2.3095,-2.3095,-5.5114,-5.6004,-5.6642,-5.7327,-5.7914,-5.7997,-5.7997,-5.7997,-5.7997,-5.7997,-5.7997,-5.7997,-5.7997,-5.7997,-5.796,-5.7446,-5.6418,-5.575,-5.4436,-5.248,-5.2206,-5.1368,-5.05,-5.0286,-4.978,-4.9138,-4.9018,-4.9018,-4.9018,-4.9018,-4.9018,-4.9018,-4.9018,-4.9018,-4.9018,-4.9018,-4.9018,-4.9018,-4.9018,-4.8274,-4.7158,-4.6786,-4.6075,-4.475,-4.4581,-4.3802,-4.2625,-4.2117,-4.1433,-4.0451,-4.0113,-4.0113,-4.0113,-4.0113,-4.0113,-4.0079,-3.9943,-3.9276,-3.8159,-3.7652,-3.7043,-3.5802,-3.56,-3.56,-3.56,-3.56,-3.56,-3.56,-3.5453,-3.5316,-3.5316,-3.5362,-3.543,-3.5509,-3.5407,-3.4816,-3.3649,-3.2922,-3.2382,-3.1739,-3.1511,-3.1511,-3.1511,-3.1511,-3.1511,-3.1511,-3.1511,-3.1511,-3.1511,-3.1511,-3.1511,-3.1511,-3.1451,-3.1301,-3.0853,-3.0345,-2.9396,-2.8497,-2.7297,-2.6467,-2.4924,-2.3543,-2.3395,-2.3215,-2.3095,-2.3095,-2.3095,-2.3095,-2.3095,-2.3095,-2.3095,-2.3095,-2.3095,-2.3095,-2.3095,-5.4513,-5.5262,-5.6004,-5.6773,-5.7474,-5.7857,-5.7997,-5.7997,-5.7997,-5.7997,-5.7997,-5.7997,-5.7997,-5.7997,-5.796,-5.7556,-5.6548,-5.5113,-5.3494,-5.1846,-5.1282,-5.0681,-5.0118,-4.9664,-4.9316,-4.9049,-4.9018,-4.9018,-4.9018,-4.9018,-4.9018,-4.9018,-4.9018,-4.9018,-4.9018,-4.9018,-4.9018,-4.9018,-4.8984,-4.8443,-4.7496,-4.6921,-4.6075,-4.4919,-4.4547,-4.3904,-4.2455,-4.2286,-4.1474,-4.0519,-4.0113,-4.0113,-4.0113,-4.0113,-4.0113,-4.0113,-4.0079,-3.9377,-3.8328,-3.7821,-3.7246,-3.5735,-3.56,-3.56,-3.56,-3.56,-3.56,-3.56,-3.56,-3.56,-3.56,-3.56,-3.56,-3.56,-3.56,-3.5005,-3.3903,-3.3261,-3.2625,-3.1853,-3.1511,-3.1511,-3.1511,-3.1511,-3.1511,-3.1511,-3.1511,-3.1511,-3.1511,-3.1511,-3.1511,-3.1511,-3.1511,-3.1301,-3.0793,-3.0108,-2.9155,-2.8293,-2.7397,-2.6963,-2.6246,-2.4865,-2.3603,-2.3424,-2.3215,-2.3095,-2.3095,-2.3095,-2.3095,-2.3095,-2.3095,-2.3095,-2.3095,-2.3095,-2.3095,-5.3913,-5.4665,-5.5408,-5.6177,-5.6964,-5.7679,-5.7997,-5.7997,-5.7997,-5.7997,-5.7923,-5.7886,-5.7703,-5.774,-5.7556,-5.713,-5.5793,-5.4026,-5.2094,-5.0999,-5.0445,-5.0061,-4.9693,-4.9316,-4.9077,-4.9018,-4.9018,-4.9018,-4.9018,-4.9018,-4.9018,-4.9018,-4.9018,-4.9018,-4.9018,-4.9018,-4.9018,-4.9018,-4.8984,-4.8646,-4.7834,-4.7158,-4.6041,-4.4886,-4.4581,-4.3972,-4.2828,-4.2354,-4.1704,-4.0383,-4.018,-4.0113,-4.0113,-4.0113,-4.0113,-4.0113,-4.0113,-3.9469,-3.8464,-3.7956,-3.7313,-3.587,-3.5633,-3.56,-3.56,-3.56,-3.56,-3.56,-3.56,-3.56,-3.56,-3.56,-3.56,-3.56,-3.56,-3.4958,-3.3978,-3.3598,-3.2891,-3.1823,-3.1511,-3.1511,-3.1511,-3.1511,-3.1511,-3.1511,-3.1511,-3.1511,-3.1511,-3.1481,-3.1481,-3.1481,-3.1511,-3.0943,-3.0432,-2.9806,-2.8856,-2.8185,-2.7375,-2.7198,-2.7018,-2.5966,-2.4597,-2.3662,-2.3365,-2.3245,-2.3125,-2.3095,-2.3095,-2.3095,-2.3095,-2.3095,-2.3095,-2.3095,-2.3095,-5.3946,-5.4668,-5.5408,-5.6177,-5.6938,-5.7642,-5.7973,-5.7997,-5.7997,-5.7997,-5.7923,-5.7336,-5.7152,-5.6969,-5.6271,-5.5254,-5.3917,-5.2365,-5.1149,-5.0314,-4.9947,-4.9722,-4.9256,-4.9138,-4.9018,-4.9018,-4.9018,-4.9018,-4.9018,-4.9018,-4.9018,-4.9018,-4.9018,-4.9018,-4.9018,-4.9018,-4.9018,-4.9018,-4.8984,-4.8646,-4.8037,-4.7158,-4.6104,-4.4784,-4.4581,-4.4079,-4.3301,-4.2591,-4.188,-4.1068,-4.0451,-4.018,-4.0113,-4.0113,-4.0113,-4.0113,-4.0113,-3.9673,-3.8836,-3.8159,-3.7516,-3.6671,-3.5994,-3.5633,-3.56,-3.56,-3.56,-3.56,-3.56,-3.56,-3.56,-3.56,-3.56,-3.56,-3.5532,-3.5052,-3.4003,-3.3521,-3.3024,-3.1768,-3.1538,-3.1511,-3.1511,-3.1511,-3.1511,-3.1511,-3.1511,-3.1511,-3.1511,-3.1451,-3.1421,-3.1451,-3.1511,-3.0731,-2.9924,-2.9325,-2.8581,-2.8043,-2.7454,-2.7218,-2.6989,-2.6611,-2.5742,-2.4901,-2.3891,-2.3395,-2.3275,-2.3275,-2.3365,-2.3518,-2.3365,-2.3125,-2.3245,-2.3335,-2.3095,-5.3718,-5.4106,-5.4818,-5.5581,-5.634,-5.7116,-5.7642,-5.7973,-5.7997,-5.7997,-5.7886,-5.7593,-5.7409,-5.7121,-5.6184,-5.4494,-5.2457,-5.1641,-5.0556,-4.9742,-4.9462,-4.9376,-4.8984,-4.9018,-4.9018,-4.9018,-4.9018,-4.9018,-4.9018,-4.9018,-4.9018,-4.9018,-4.9018,-4.9018,-4.9018,-4.9018,-4.9018,-4.9018,-4.8984,-4.8815,-4.8342,-4.7394,-4.6041,-4.5021,-4.4547,-4.4181,-4.3504,-4.3166,-4.232,-4.1407,-4.0865,-4.046,-4.0214,-4.0113,-4.0113,-4.0113,-4.0079,-3.9783,-3.9039,-3.8294,-3.755,-3.6806,-3.6062,-3.5667,-3.56,-3.56,-3.56,-3.56,-3.56,-3.56,-3.56,-3.56,-3.56,-3.56,-3.56,-3.4958,-3.4028,-3.37,-3.2783,-3.1796,-3.1567,-3.1511,-3.1511,-3.1511,-3.1511,-3.1511,-3.1511,-3.1511,-3.1511,-3.1301,-3.1152,-3.1212,-3.1182,-3.0642,-2.9834,-2.9235,-2.8607,-2.8034,-2.756,-2.7331,-2.7155,-2.6899,-2.6759,-2.6301,-2.529,-2.4227,-2.3897,-2.4044,-2.3989,-2.393,-2.3636,-2.3484,-2.3543,-2.3514,-2.3335,-5.3518,-5.3551,-5.4296,-5.5029,-5.578,-5.6563,-5.7351,-5.789,-5.7997,-5.7997,-5.796,-5.7753,-5.7597,-5.706,-5.5455,-5.3397,-5.1095,-5.0905,-5.0031,-4.9331,-4.9111,-4.8984,-4.9018,-4.9018,-4.9018,-4.9018,-4.9018,-4.9018,-4.9018,-4.9018,-4.9018,-4.9018,-4.9018,-4.9018,-4.9018,-4.9018,-4.9018,-4.9018,-4.9018,-4.8951,-4.8308,-4.7394,-4.6075,-4.4784,-4.4581,-4.431,-4.3809,-4.3409,-4.2699,-4.1813,-4.1238,-4.0865,-4.0248,-4.0113,-4.0113,-4.0113,-4.0113,-3.9774,-3.9242,-3.8328,-3.7652,-3.7144,-3.6163,-3.5735,-3.56,-3.56,-3.56,-3.56,-3.56,-3.56,-3.56,-3.56,-3.56,-3.56,-3.5532,-3.5155,-3.4103,-3.3443,-3.2864,-3.2132,-3.171,-3.1511,-3.1511,-3.1511,-3.1511,-3.1511,-3.1511,-3.1511,-3.1421,-3.0911,-3.0761,-3.0851,-3.0761,-3.0402,-2.9834,-2.9352,-2.8757,-2.8244,-2.7794,-2.7484,-2.742,-2.7299,-2.7251,-2.7214,-2.6722,-2.5758,-2.5288,-2.4763,-2.4652,-2.4452,-2.3989,-2.393,-2.4279,-2.4047,-2.3691,-5.3518,-5.3551,-5.4296,-5.5029,-5.5752,-5.6536,-5.7266,-5.789,-5.7973,-5.7997,-5.785,-5.7231,-5.6635,-5.5429,-5.3145,-5.1331,-5.031,-4.9701,-4.9369,-4.9018,-4.9018,-4.9018,-4.9018,-4.9018,-4.9018,-4.9018,-4.9018,-4.9018,-4.9018,-4.9018,-4.9018,-4.9018,-4.9018,-4.9018,-4.9018,-4.9018,-4.9018,-4.9018,-4.9018,-4.8443,-4.7394,-4.6955,-4.6007,-4.5089,-4.4615,-4.4547,-4.4215,-4.3741,-4.2902,-4.2185,-4.1508,-4.0865,-4.0248,-4.0113,-4.0113,-4.0113,-4.0113,-4.0045,-3.974,-3.8667,-3.7889,-3.7381,-3.6411,-3.5769,-3.5633,-3.5701,-3.5735,-3.56,-3.56,-3.56,-3.56,-3.56,-3.56,-3.5532,-3.543,-3.4793,-3.3878,-3.3287,-3.2707,-3.2104,-3.1538,-3.1511,-3.1511,-3.1511,-3.1511,-3.1511,-3.1481,-3.1481,-3.1391,-3.0943,-3.0313,-3.0342,-3.0522,-3.0223,-2.9894,-2.9412,-2.9082,-2.8487,-2.8244,-2.7854,-2.7757,-2.7802,-2.791,-2.778,-2.7449,-2.7315,-2.6891,-2.6301,-2.5577,-2.5326,-2.5291,-2.5239,-2.5217,-2.4793,-2.4282,-5.3518,-5.3551,-5.3849,-5.4388,-5.5114,-5.5928,-5.6668,-5.7376,-5.7821,-5.774,-5.7354,-5.7024,-5.5775,-5.3792,-5.1888,-5.0626,-4.9599,-4.9138,-4.9018,-4.9018,-4.9018,-4.9018,-4.9018,-4.9018,-4.9018,-4.9018,-4.9018,-4.9018,-4.9018,-4.9018,-4.9018,-4.9018,-4.9018,-4.9018,-4.9018,-4.9018,-4.9018,-4.9018,-4.8917,-4.8443,-4.7597,-4.6955,-4.6278,-4.5229,-4.4823,-4.4649,-4.4418,-4.3842,-4.3064,-4.232,-4.161,-4.0865,-4.0316,-4.0113,-4.0113,-4.0113,-4.0113,-4.0113,-3.991,-3.87,-3.8159,-3.7584,-3.658,-3.5667,-3.5667,-3.5994,-3.5994,-3.5633,-3.56,-3.56,-3.56,-3.56,-3.5339,-3.5191,-3.5168,-3.4325,-3.3598,-3.3182,-3.2598,-3.1992,-3.1511,-3.1511,-3.1511,-3.1511,-3.1481,-3.1481,-3.1421,-3.1331,-3.1391,-3.1331,-3.0582,-2.9774,-3.0013,-3.0133,-2.9834,-2.9472,-2.9472,-2.9142,-2.9142,-2.8753,-2.8338,-2.8338,-2.8487,-2.8577,-2.8387,-2.8298,-2.8279,-2.7513,-2.6526,-2.6581,-2.6805,-2.6664,-2.6469,-2.5828,-2.5301,-5.3179,-5.3213,-5.3416,-5.3913,-5.4603,-5.5203,-5.5869,-5.6649,-5.7143,-5.7085,-5.6624,-5.6279,-5.4684,-5.2555,-5.1479,-5.0484,-4.908,-4.9018,-4.9018,-4.9018,-4.9018,-4.9018,-4.9018,-4.9018,-4.9018,-4.9018,-4.9018,-4.9018,-4.9018,-4.9018,-4.9018,-4.9018,-4.9018,-4.9018,-4.9018,-4.9018,-4.9018,-4.9018,-4.9018,-4.8477,-4.7631,-4.7293,-4.6447,-4.5635,-4.506,-4.4784,-4.4547,-4.4113,-4.3403,-4.232,-4.188,-4.1136,-4.0316,-4.0113,-4.0113,-4.0113,-4.0113,-4.0113,-3.9808,-3.9039,-3.8328,-3.7787,-3.711,-3.6332,-3.6028,-3.6524,-3.6491,-3.5667,-3.56,-3.56,-3.56,-3.56,-3.543,-3.5098,-3.4807,-3.3903,-3.3135,-3.2841,-3.2434,-3.1881,-3.1511,-3.1511,-3.1511,-3.1511,-3.1481,-3.1481,-3.1361,-3.1182,-3.1092,-3.1122,-3.0225,-2.9205,-2.9355,-2.9594,-2.9505,-2.9355,-2.9445,-2.9684,-2.9714,-2.9505,-2.9026,-2.9056,-2.9265,-2.9295,-2.9235,-2.9459,-2.9542,-2.8479,-2.7511,-2.7645,-2.7806,-2.79,-2.7654,-2.6978,-2.6021,-5.2401,-5.2435,-5.3179,-5.3913,-5.4541,-5.4668,-5.5107,-5.5682,-5.5856,-5.583,-5.5492,-5.4889,-5.3311,-5.1751,-5.1035,-5.0224,-4.9018,-4.9018,-4.9018,-4.9018,-4.9018,-4.9018,-4.9018,-4.9018,-4.9018,-4.9018,-4.9018,-4.9018,-4.8951,-4.8849,-4.8917,-4.9018,-4.9018,-4.9018,-4.9018,-4.9018,-4.9018,-4.9018,-4.9018,-4.8376,-4.7699,-4.7259,-4.6752,-4.5399,-4.5263,-4.5297,-4.4649,-4.4316,-4.3741,-4.2489,-4.2049,-4.1474,-4.0519,-4.018,-4.0113,-4.0113,-4.0113,-4.0113,-3.9842,-3.9343,-3.8971,-3.8667,-3.8159,-3.7313,-3.6806,-3.6705,-3.64,-3.5938,-3.5938,-3.5791,-3.5701,-3.5611,-3.5484,-3.4887,-3.435,-3.3617,-3.2971,-3.2598,-3.2216,-3.1682,-3.1511,-3.1511,-3.1511,-3.1511,-3.1511,-3.1481,-3.1241,-3.1062,-3.0345,-3.0135,-2.9355,-2.8667,-2.8727,-2.8876,-2.8966,-2.9116,-2.9594,-2.9983,-3.0163,-2.9924,-2.9594,-2.9744,-2.9894,-2.9953,-2.9924,-3.0372,-3.0614,-2.9745,-2.9076,-2.8845,-2.878,-2.8812,-2.8483,-2.7807,-2.6587,-5.23,-5.2401,-5.3179,-5.3651,-5.3979,-5.4422,-5.452,-5.4444,-5.4818,-5.4479,-5.3591,-5.237,-5.136,-5.0629,-5.0008,-4.9593,-4.9018,-4.9018,-4.9018,-4.9018,-4.9018,-4.9018,-4.9018,-4.9018,-4.9018,-4.9018,-4.9018,-4.9018,-4.8984,-4.8714,-4.8748,-4.8849,-4.8951,-4.9018,-4.9018,-4.8951,-4.8951,-4.8984,-4.8984,-4.8578,-4.8274,-4.7361,-4.6819,-4.6177,-4.4993,-4.4959,-4.4581,-4.4079,-4.3538,-4.2929,-4.2151,-4.1373,-4.0722,-4.035,-4.0146,-4.0113,-4.0113,-4.0113,-4.0011,-3.9436,-3.8836,-3.8464,-3.8362,-3.8261,-3.7584,-3.7483,-3.7381,-3.7009,-3.6489,-3.6241,-3.6309,-3.5917,-3.5355,-3.4546,-3.3853,-3.3235,-3.2756,-3.2382,-3.2048,-3.1567,-3.1511,-3.1511,-3.1511,-3.1511,-3.1511,-3.1481,-3.1212,-3.0853,-3.0193,-2.9804,-2.9265,-2.8903,-2.8966,-2.9205,-2.9355,-2.9624,-2.9894,-3.0223,-3.0582,-3.0432,-3.0223,-3.0163,-3.0313,-3.0432,-3.0522,-3.0761,-3.0881,-3.0881,-3.0552,-3.0016,-2.9763,-2.9661,-2.9174,-2.8432,-2.7229,-5.1792,-5.2063,-5.2807,-5.3281,-5.3584,-5.4042,-5.3836,-5.3316,-5.3689,-5.3072,-5.1675,-5.069,-5.0078,-4.9755,-4.9593,-4.9221,-4.9086,-4.9018,-4.9018,-4.9018,-4.9018,-4.9018,-4.9018,-4.9018,-4.9018,-4.9018,-4.9018,-4.9018,-4.8984,-4.8446,-4.8646,-4.8849,-4.8781,-4.8646,-4.8646,-4.868,-4.868,-4.868,-4.868,-4.8511,-4.8139,-4.7394,-4.6583,-4.6346,-4.5432,-4.4919,-4.4649,-4.4147,-4.3606,-4.2895,-4.2151,-4.1407,-4.0865,-4.0426,-4.0146,-4.0113,-4.0113,-4.0113,-3.9943,-3.9673,-3.9106,-3.8971,-3.9106,-3.8903,-3.8464,-3.8227,-3.8091,-3.7706,-3.7172,-3.6693,-3.6535,-3.5679,-3.4896,-3.4046,-3.3319,-3.2734,-3.2379,-3.2023,-3.1796,-3.1511,-3.1511,-3.1511,-3.1511,-3.1481,-3.1271,-3.1212,-3.0941,-3.0642,-3.0223,-2.9953,-3.0013,-2.9711,-2.9562,-2.9804,-3.0043,-3.0103,-3.0193,-3.0432,-3.0761,-3.1002,-3.0913,-3.0821,-3.0791,-3.0911,-3.1002,-3.1062,-3.1122,-3.1152,-3.1122,-3.1032,-3.0481,-2.9784,-2.9211,-2.8436,-2.7647,-5.0608,-5.1285,-5.2029,-5.2739,-5.3315,-5.3517,-5.3094,-5.236,-5.2235,-5.1507,-5.0425,-5.06,-5.0227,-4.9458,-4.9526,-4.9424,-4.9086,-4.9018,-4.9018,-4.9018,-4.9018,-4.9018,-4.9018,-4.9018,-4.9018,-4.9018,-4.9018,-4.9018,-4.9018,-4.868,-4.8815,-4.868,-4.8342,-4.7936,-4.7906,-4.7906,-4.7906,-4.7936,-4.7936,-4.7597,-4.7192,-4.6819,-4.6346,-4.594,-4.55,-4.4993,-4.4649,-4.4479,-4.3876,-4.3031,-4.2455,-4.167,-4.0756,-4.035,-4.0113,-4.0113,-4.0113,-4.0113,-4.0079,-4.0045,-3.991,-3.974,-3.9774,-3.9571,-3.9106,-3.887,-3.856,-3.7999,-3.7186,-3.6431,-3.58,-3.5059,-3.431,-3.3535,-3.2823,-3.2327,-3.1994,-3.1796,-3.1596,-3.1511,-3.1511,-3.1511,-3.1511,-3.1421,-3.1122,-3.0883,-3.0642,-3.0402,-3.0253,-3.0342,-3.0522,-3.0372,-3.0163,-3.0193,-3.0402,-3.0402,-3.0492,-3.0731,-3.0971,-3.1212,-3.1361,-3.1241,-3.1271,-3.1391,-3.1361,-3.1301,-3.1391,-3.1451,-3.1361,-3.1096,-3.0192,-2.9459,-2.8941,-2.8363,-2.7604,-5.0236,-5.0541,-5.1285,-5.1725,-5.2131,-5.3112,-5.2769,-5.1503,-5.06,-4.983,-4.9492,-4.9695,-4.9593,-4.9187,-4.9187,-4.9255,-4.9086,-4.9018,-4.9018,-4.9018,-4.9018,-4.9018,-4.9018,-4.9018,-4.9018,-4.9018,-4.9018,-4.9018,-4.8984,-4.8714,-4.8714,-4.8612,-4.7868,-4.7225,-4.7158,-4.7158,-4.7158,-4.7158,-4.7158,-4.7022,-4.6752,-4.6346,-4.594,-4.5669,-4.5297,-4.4857,-4.4581,-4.4479,-4.4039,-4.3328,-4.2787,-4.1907,-4.1162,-4.0756,-4.0113,-4.0113,-4.0113,-4.0113,-4.0113,-4.0079,-4.0113,-4.0113,-4.0079,-3.9977,-3.974,-3.9208,-3.8672,-3.7953,-3.7074,-3.6182,-3.5234,-3.4473,-3.3693,-3.2975,-3.2327,-3.1908,-3.1625,-3.1567,-3.1511,-3.1511,-3.1511,-3.1511,-3.1511,-3.1511,-3.1241,-3.1182,-3.1002,-3.1032,-3.0943,-3.1002,-3.1152,-3.0971,-3.0791,-3.0731,-3.0731,-3.0761,-3.0881,-3.1092,-3.1212,-3.1361,-3.1481,-3.1511,-3.1481,-3.1451,-3.1481,-3.1511,-3.1511,-3.1481,-3.1421,-3.104,-3.0133,-2.9419,-2.8993,-2.833,-2.7504,-4.9864,-5.0135,-5.0608,-5.098,-5.1352,-5.23,-5.1961,-5.0744,-4.956,-4.9018,-4.9018,-4.9018,-4.9018,-4.9018,-4.9018,-4.9018,-4.9018,-4.9018,-4.9018,-4.9018,-4.9018,-4.9018,-4.9018,-4.8984,-4.9018,-4.9018,-4.9018,-4.9018,-4.8984,-4.8545,-4.8443,-4.824,-4.7428,-4.6786,-4.6549,-4.6413,-4.6583,-4.665,-4.6684,-4.6413,-4.6143,-4.5838,-4.5466,-4.5399,-4.506,-4.4479,-4.4248,-4.4113,-4.3944,-4.3369,-4.2625,-4.1813,-4.1339,-4.079,-4.0113,-4.0113,-4.0113,-4.0113,-4.0113,-4.0113,-4.0113,-4.0113,-4.0113,-4.0113,-3.9902,-3.9118,-3.8538,-3.7812,-3.6875,-3.5664,-3.4582,-3.3799,-3.3154,-3.241,-3.2055,-3.1657,-3.1569,-3.154,-3.1511,-3.1511,-3.1511,-3.1511,-3.1511,-3.1511,-3.1421,-3.1451,-3.1451,-3.1511,-3.1511,-3.1511,-3.1511,-3.1301,-3.1182,-3.1122,-3.1062,-3.1092,-3.1241,-3.1451,-3.1511,-3.1511,-3.1511,-3.1511,-3.1511,-3.1511,-3.1511,-3.1511,-3.1511,-3.1481,-3.1364,-3.0896,-3.0063,-2.9513,-2.9097,-2.8195,-2.7196,-4.9424,-4.9999,-5.0033,-5.0473,-5.1048,-5.1116,-5.0744,-5.0067,-4.9323,-4.9018,-4.9018,-4.9018,-4.9018,-4.9018,-4.9018,-4.9018,-4.9018,-4.9018,-4.8917,-4.8951,-4.8917,-4.8951,-4.8917,-4.8951,-4.8984,-4.9018,-4.9018,-4.9018,-4.8984,-4.8849,-4.8545,-4.797,-4.7225,-4.6616,-4.6244,-4.5872,-4.6007,-4.6041,-4.5906,-4.5703,-4.55,-4.5094,-4.5094,-4.5094,-4.4919,-4.4248,-4.3876,-4.3572,-4.2828,-4.2117,-4.1373,-4.0865,-4.0451,-4.0146,-4.0113,-4.0113,-4.0113,-4.0113,-4.0113,-4.0113,-4.0113,-4.0113,-4.0113,-4.0113,-3.9792,-3.9023,-3.8308,-3.7389,-3.6364,-3.5054,-3.3844,-3.3262,-3.2645,-3.2225,-3.1866,-3.169,-3.163,-3.16,-3.1511,-3.1511,-3.1511,-3.1511,-3.1511,-3.1511,-3.1511,-3.1511,-3.1511,-3.1511,-3.1511,-3.1511,-3.1511,-3.1481,-3.1421,-3.1451,-3.1421,-3.1331,-3.1361,-3.1511,-3.1511,-3.1511,-3.1511,-3.1511,-3.1511,-3.1511,-3.1511,-3.1511,-3.1511,-3.1394,-3.1248,-3.0688,-3.0086,-2.9192,-2.8652,-2.7571,-2.6714,-4.912,-4.9323,-4.9323,-4.9424,-4.9627,-4.9661,-4.9796,-4.9965,-4.9323,-4.9018,-4.9018,-4.9018,-4.8951,-4.9018,-4.9018,-4.8951,-4.8984,-4.8917,-4.8578,-4.8578,-4.8714,-4.8545,-4.8578,-4.8748,-4.8917,-4.9018,-4.9018,-4.8984,-4.8951,-4.8984,-4.8545,-4.7872,-4.709,-4.6616,-4.6109,-4.5432,-4.5326,-4.5258,-4.5156,-4.5089,-4.4993,-4.475,-4.4823,-4.4818,-4.4784,-4.4113,-4.3538,-4.3335,-4.2692,-4.2049,-4.1441,-4.1001,-4.0967,-4.0451,-4.0113,-4.0113,-4.0113,-4.0113,-4.0113,-4.0113,-4.0113,-4.0113,-4.0113,-4.0113,-3.9834,-3.9154,-3.8175,-3.71,-3.5989,-3.4792,-3.3839,-3.3155,-3.2706,-3.2348,-3.2079,-3.1989,-3.1869,-3.163,-3.154,-3.1511,-3.1511,-3.1511,-3.1511,-3.1511,-3.1511,-3.1511,-3.1511,-3.1511,-3.1511,-3.1511,-3.1511,-3.1511,-3.1511,-3.1511,-3.1511,-3.1421,-3.1451,-3.1511,-3.1511,-3.1511,-3.1511,-3.1511,-3.1511,-3.1511,-3.1511,-3.1511,-3.1511,-3.1365,-3.1278,-3.0837,-3.0208,-2.916,-2.813,-2.7162,-2.6508,-4.9018,-4.9018,-4.9018,-4.9018,-4.9018,-4.9018,-4.9289,-4.9526,-4.9187,-4.9018,-4.8984,-4.868,-4.8714,-4.8883,-4.8409,-4.8206,-4.8511,-4.8105,-4.7902,-4.824,-4.8376,-4.8477,-4.8545,-4.8714,-4.8951,-4.8984,-4.8917,-4.8815,-4.8612,-4.824,-4.7834,-4.7838,-4.6955,-4.6481,-4.6007,-4.5292,-4.4716,-4.4682,-4.4649,-4.4581,-4.4581,-4.4581,-4.4581,-4.4547,-4.4547,-4.3978,-4.3132,-4.2997,-4.2455,-4.167,-4.0899,-4.0764,-4.0696,-4.0316,-4.0113,-4.0113,-4.0113,-4.0113,-4.0113,-4.0113,-4.0113,-4.0113,-4.0113,-4.0113,-3.9682,-3.9054,-3.8029,-3.6929,-3.582,-3.4751,-3.394,-3.3245,-3.2976,-3.2647,-3.2497,-3.2348,-3.2049,-3.172,-3.16,-3.1511,-3.1511,-3.1511,-3.1511,-3.1511,-3.1511,-3.1511,-3.1511,-3.1511,-3.1511,-3.1511,-3.1511,-3.1511,-3.1511,-3.1511,-3.1511,-3.1511,-3.1511,-3.1511,-3.1511,-3.1511,-3.1511,-3.1511,-3.1511,-3.1511,-3.1511,-3.1511,-3.1511,-3.1482,-3.1366,-3.0866,-3.0299,-2.9348,-2.8233,-2.7129,-2.6645,-4.8815,-4.8781,-4.8849,-4.8714,-4.8815,-4.8714,-4.8748,-4.8815,-4.8714,-4.8849,-4.8714,-4.8176,-4.824,-4.8308,-4.7597,-4.7428,-4.7564,-4.7361,-4.7428,-4.7838,-4.7973,-4.8206,-4.8545,-4.8883,-4.8714,-4.8815,-4.8646,-4.8173,-4.7733,-4.7428,-4.7394,-4.7635,-4.6452,-4.5805,-4.5466,-4.5021,-4.4615,-4.4581,-4.4581,-4.4581,-4.4581,-4.4581,-4.4581,-4.4445,-4.4242,-4.3809,-4.2625,-4.1982,-4.1576,-4.062,-4.0146,-4.018,-4.018,-4.0146,-4.0113,-4.0113,-4.0113,-4.0113,-4.0113,-4.0113,-4.0113,-4.0113,-4.0113,-4.0113,-3.9741,-3.9068,-3.8073,-3.7199,-3.6171,-3.5185,-3.4332,-3.4115,-3.3873,-3.3455,-3.3125,-3.3006,-3.2826,-3.2377,-3.1899,-3.178,-3.157,-3.157,-3.1511,-3.1511,-3.1511,-3.1511,-3.1511,-3.1511,-3.1511,-3.1511,-3.1511,-3.1511,-3.1511,-3.1511,-3.1511,-3.1511,-3.1511,-3.1511,-3.1511,-3.1511,-3.1511,-3.1511,-3.1511,-3.1511,-3.1511,-3.1511,-3.1511,-3.1482,-3.1336,-3.0925,-3.0299,-2.9504,-2.846,-2.7371,-2.6748,-4.7327,-4.7327,-4.7327,-4.7327,-4.7327,-4.7327,-4.7361,-4.7327,-4.7327,-4.7665,-4.8037,-4.7936,-4.7665,-4.7361,-4.6921,-4.6819,-4.6887,-4.6718,-4.6887,-4.7259,-4.7564,-4.7906,-4.8176,-4.8308,-4.8206,-4.797,-4.7699,-4.7327,-4.7124,-4.6853,-4.6515,-4.6278,-4.5635,-4.5432,-4.4959,-4.4615,-4.4615,-4.4581,-4.4479,-4.4479,-4.4479,-4.4445,-4.4412,-4.3978,-4.3606,-4.2997,-4.2049,-4.1474,-4.0933,-4.0282,-4.0146,-4.0113,-4.0113,-4.0113,-4.0113,-4.0113,-4.0113,-4.0113,-4.0113,-4.0113,-4.0113,-4.0113,-4.0113,-4.0113,-3.9808,-3.9123,-3.8341,-3.7523,-3.6733,-3.5768,-3.4967,-3.487,-3.4651,-3.4113,-3.3694,-3.3634,-3.3544,-3.2916,-3.2287,-3.1959,-3.172,-3.16,-3.1511,-3.1511,-3.1511,-3.1511,-3.1511,-3.1511,-3.1511,-3.1511,-3.1511,-3.1511,-3.1511,-3.1511,-3.1511,-3.1511,-3.1511,-3.1511,-3.1511,-3.1511,-3.1511,-3.1511,-3.1511,-3.1511,-3.1511,-3.1511,-3.1511,-3.1511,-3.1278,-3.0984,-3.0599,-2.9936,-2.9066,-2.8032,-2.7263,-4.6786,-4.6786,-4.6786,-4.6786,-4.6786,-4.6786,-4.6786,-4.6786,-4.6786,-4.6819,-4.6921,-4.6921,-4.6853,-4.6515,-4.6177,-4.6143,-4.6177,-4.5935,-4.6341,-4.6786,-4.7192,-4.7534,-4.7736,-4.7804,-4.7631,-4.7361,-4.6752,-4.6413,-4.6549,-4.6007,-4.5534,-4.5568,-4.5432,-4.5026,-4.4581,-4.4581,-4.4547,-4.4581,-4.4276,-4.4079,-4.4147,-4.4242,-4.4113,-4.3673,-4.3139,-4.2462,-4.1745,-4.117,-4.073,-4.0316,-4.0113,-4.0113,-4.0113,-4.0113,-4.0113,-4.0113,-4.0113,-4.0113,-4.0113,-4.0113,-4.0113,-4.0113,-4.0113,-4.0113,-4.0113,-3.9458,-3.8782,-3.8056,-3.8056,-3.7205,-3.5615,-3.5086,-3.466,-3.4148,-3.3965,-3.3873,-3.3395,-3.2706,-3.2138,-3.175,-3.16,-3.154,-3.1511,-3.1511,-3.1511,-3.1511,-3.1511,-3.1511,-3.1511,-3.1511,-3.1511,-3.1511,-3.1511,-3.1511,-3.1511,-3.1511,-3.1511,-3.1511,-3.1511,-3.1511,-3.1511,-3.1511,-3.1511,-3.1511,-3.1511,-3.1511,-3.1511,-3.1511,-3.1511,-3.1307,-3.0925,-3.048,-2.9535,-2.862,-2.7901,-4.6447,-4.6515,-4.6481,-4.6481,-4.6515,-4.6481,-4.6447,-4.6447,-4.6481,-4.6143,-4.5669,-4.5635,-4.5974,-4.5838,-4.5359,-4.5331,-4.5365,-4.5432,-4.5872,-4.6515,-4.6819,-4.7361,-4.7601,-4.7567,-4.6989,-4.6413,-4.5838,-4.594,-4.6206,-4.5495,-4.5094,-4.5331,-4.5026,-4.4547,-4.4479,-4.4384,-4.4282,-4.391,-4.3572,-4.3335,-4.3572,-4.3876,-4.3538,-4.3301,-4.3003,-4.2361,-4.1508,-4.0933,-4.0595,-4.0392,-4.0113,-4.0113,-4.0113,-4.0113,-4.0113,-4.0113,-4.0113,-4.0113,-4.0113,-4.0113,-4.0113,-4.0113,-4.0113,-4.0113,-4.0087,-3.9773,-3.9129,-3.8745,-3.8745,-3.7947,-3.6349,-3.5272,-3.4785,-3.4481,-3.4356,-3.4083,-3.3365,-3.2736,-3.2288,-3.1809,-3.163,-3.16,-3.154,-3.1511,-3.1511,-3.1511,-3.1511,-3.1511,-3.1511,-3.1511,-3.1511,-3.1511,-3.1511,-3.1511,-3.1511,-3.1511,-3.1511,-3.1511,-3.1511,-3.1511,-3.1511,-3.1511,-3.1511,-3.1511,-3.1511,-3.1511,-3.1511,-3.1511,-3.1511,-3.1511,-3.1278,-3.0837,-3.0056,-2.916,-2.846,-4.5021,-4.5055,-4.5021,-4.5055,-4.5055,-4.5021,-4.5021,-4.5021,-4.5055,-4.4919,-4.4891,-4.4852,-4.4953,-4.5055,-4.4818,-4.4818,-4.4953,-4.506,-4.5872,-4.6684,-4.665,-4.7192,-4.7297,-4.6752,-4.5771,-4.5297,-4.5026,-4.5021,-4.5427,-4.4953,-4.4649,-4.4818,-4.4756,-4.4248,-4.3707,-4.3606,-4.3436,-4.3064,-4.2794,-4.2523,-4.2489,-4.2557,-4.2219,-4.1948,-4.161,-4.1035,-4.0553,-4.0316,-4.0214,-4.0146,-4.0113,-4.0113,-4.0113,-4.0113,-4.0113,-4.0113,-4.0113,-4.0113,-4.0113,-4.0113,-4.0113,-4.0113,-4.0113,-4.0113,-4.0113,-4.0087,-3.9428,-3.8772,-3.8497,-3.7732,-3.6445,-3.5761,-3.5264,-3.5168,-3.507,-3.4412,-3.3724,-3.3365,-3.3036,-3.2437,-3.1959,-3.1839,-3.163,-3.163,-3.157,-3.154,-3.1511,-3.1511,-3.1511,-3.1511,-3.1511,-3.1511,-3.1511,-3.1511,-3.1511,-3.1511,-3.1511,-3.1511,-3.1511,-3.1511,-3.1511,-3.1511,-3.1511,-3.1511,-3.1511,-3.1511,-3.1511,-3.1511,-3.1511,-3.1511,-3.1511,-3.1161,-3.0359,-2.9721,-2.9066]},{"header":{"parameterUnit":"m.s-1","parameterCategory":1,"la1":31.0,"la2":29.5877,"lo1":-88.7671,"lo2":-86.6584,"dy":0.0162,"dx":0.0185,"nx":115,"ny":88,"refTime":"2023-08-09T00:00:00:Z","depth":0,"parameterNumber":3,"parameterNumberName":"V-component_of_WINDS"},"data":[0.0,0.0,0.0,0.0,0.0,0.0,0.0,0.0,0.0,0.0,0.0,0.0,0.0,0.0,0.0,0.0,0.0,0.0,0.0,0.0,0.0,0.0,0.0,0.0,0.0,0.0,0.0,0.0,0.0,0.0,0.0,0.0,0.0,0.0,0.0,0.0,0.0,0.0,0.0,0.0,0.0,0.0,0.0,0.0,0.0,0.0,0.0,0.0,0.0,0.0,0.0,0.0,0.0,0.0,0.0,0.0,0.0,0.0,0.0,0.0,0.0,0.0,0.0,0.0,0.0,0.0,0.0,0.0,0.0,0.0,0.0,0.0,0.0,0.0,0.0,0.0,0.0,0.0,0.0,0.0,0.0,0.0,0.0,0.0,0.0,0.0,0.0,0.0,0.0,0.0,0.0,0.0,0.0,0.0,0.0,0.0,0.0,0.0,0.0,0.0,0.0,0.0,0.0,0.0,0.0,0.0,0.0,0.0,0.0,0.0,0.0,0.0,0.0,0.0,0.0,0.0,0.0,0.0,0.0,0.0,0.0,0.0,0.0,0.0,0.0,0.0,0.0,0.0,0.0,0.0,0.0,0.0,0.0,0.0,0.0,0.0,0.0,0.0,0.0,0.0,0.0,0.0,0.0,0.0,0.0,0.0,0.0,0.0,0.0,0.0,0.0,0.0,0.0,0.0,0.0,0.0,0.0,0.0,0.0,0.0,0.0,0.0,0.0,0.0,0.0,0.0,0.0,0.0,0.0,0.0,0.0,0.0,0.0,0.0,0.0,0.0,0.0,0.0,0.0,0.0,0.0,0.0,0.0,0.0,0.0,0.0,0.0,0.0,0.0,0.0,0.0,0.0,0.0,0.0,0.0,0.0,0.0,0.0,0.0,0.0,0.0,0.0,0.0,0.0,0.0,0.0,0.0,0.0,0.0,0.0,0.0,0.0,0.0,0.0,0.0,0.0,0.0,0.0,0.0,0.0,0.0,0.0,0.0,0.0,0.0,0.0,0.0,0.0,0.0,0.0,0.0,0.0,0.0,0.0,0.0,0.0,0.0,0.0,0.0,0.0,0.0,0.0,0.0,0.0,0.0,0.0,0.0,0.0,0.0,0.0,0.0,0.0,0.0,0.0,0.0,0.0,0.0,0.0,0.0,0.0,0.0,0.0,0.0,0.0,0.0,0.0,0.0,0.0,0.0,0.0,0.0,0.0,0.0,0.0,0.0,0.0,0.0,0.0,0.0,0.0,0.0,0.0,0.0,0.0,0.0,0.0,0.0,0.0,0.0,0.0,0.0,0.0,0.0,0.0,0.0,0.0,0.0,0.0,0.0,0.0,0.0,0.0,0.0,0.0,0.0,0.0,0.0,0.0,0.0,0.0,0.0,0.0,0.0,0.0,0.0,0.0,0.0,0.0,0.0,0.0,0.0,0.0,0.0,0.0,0.0,0.0,0.0,0.0,0.0,0.0,0.0,0.0,0.0,0.0,0.0,0.0,0.0,0.0,0.0,0.0,0.0,0.0,0.0,0.0,0.0,0.0,0.0,0.0,0.0,0.0,0.0,0.0,0.0,0.0,0.0,0.0,0.0,0.0,0.0,0.0,0.0,0.0,0.0,0.0,0.0,0.0,0.0,0.0,0.0,0.0,0.0,0.0,0.0,0.0,0.0,0.0,0.0,0.0,0.0,0.0,0.0,0.0,0.0,0.0,0.0,0.0,0.0,0.0,0.0,0.0,0.0,0.0,0.0,0.0,0.0,0.0,0.0,0.0,0.0,0.0,0.0,0.0,0.0,0.0,0.0,0.0,0.0,0.0,0.0,0.0,0.0,0.0,0.0,0.0,0.0,0.0,0.0,0.0,0.0,0.0,0.0,0.0,0.0,0.0,0.0,0.0,0.0,0.0,0.0,0.0,0.0,0.0,0.0,0.0,0.0,0.0,0.0,0.0,0.0,0.0,0.0,0.0,0.0,0.0,0.0,0.0,0.0,0.0,0.0,0.0,0.0,0.0,0.0,0.0,0.0,0.0,0.0,0.0,0.0,0.0,0.0,0.0,0.0,0.0,0.0,0.0,0.0,0.0,0.0,0.0,0.0,0.0,0.0,0.0,0.0,0.0,0.0,0.0,0.0,0.0,0.0,0.0,0.0,0.0,0.0,0.0,0.0,0.0,0.0,0.0,0.0,0.0,0.0,0.0,0.0,0.0,0.0,0.0,0.0,0.0,0.0,0.0,0.0,0.0,0.0,0.0,0.0,0.0,0.0,0.0,0.0,0.0,0.0,0.0,0.0,0.0,0.0,0.0,0.0,0.0,0.0,0.0,0.0,0.0,0.0,0.0,0.0,0.0,0.0,0.0,0.0,0.0,0.0,0.0,0.0,0.0,0.0,0.0,0.0,0.0,0.0,0.0,0.0,0.0,0.0,0.0,0.0,0.0,0.0,0.0,0.0,0.0,0.0,0.0,0.0,0.0,0.0,0.0,0.0,0.0,0.0,0.0,0.0,0.0,0.0,0.0,0.0,0.0,0.0,0.0,0.0,0.0,0.0,0.0,0.0,0.0,0.0,0.0,0.0,0.0,0.0,0.0,0.0,0.0,0.0,0.0,0.0,0.0,0.0,0.0,0.0,0.0,0.0,0.0,0.0,0.0,0.0,0.0,0.0,0.0,0.0,0.0,0.0,0.0,0.0,0.0,0.0,0.0,0.0,0.0,0.0,0.0,0.0,0.0,0.0,0.0,0.0,0.0,0.0,0.0,0.0,0.0,0.0,0.0,0.0,0.0,0.0,0.0,0.0,0.0,0.0,0.0,0.0,0.0,0.0,0.0,0.0,0.0,0.0,0.0,0.0,0.0,0.0,0.0,0.0,0.0,0.0,0.0,0.0,0.0,0.0,0.0,0.0,0.0,0.0,0.0,0.0,0.0,0.0,0.0,0.0,0.0,0.0,0.0,0.0,0.0,0.0,0.0,0.0,0.0,0.0,0.0,0.0,0.0,0.0,0.0,0.0,0.0,0.0,0.0,0.0,0.0,0.0,0.0,0.0,0.0,0.0,0.0,0.0,0.0,0.0,0.0,0.0,0.0,0.0,0.0,0.0,0.0,0.0,0.0,0.0,0.0,0.0,0.0,0.0,0.0,0.0,0.0,0.0,0.0,0.0,0.0,0.0,0.0,0.0,0.0,0.0,0.0,0.0,0.0,0.0,0.0,0.0,0.0,0.0,0.0,0.0,0.0,0.0,0.0,0.0,0.0,0.0,0.0,0.0,0.0,0.0,0.0,0.0,0.0,0.0,0.0,0.0,0.0,0.0,0.0,0.0,0.0,0.0,0.0,0.0,0.0,0.0,0.0,0.0,0.0,0.0,0.0,0.0,0.0,0.0,0.0,0.0,0.0,0.0,0.0,0.0,0.0,0.0,0.0,0.0,0.0,0.0,0.0,0.0,0.0,0.0,0.0,0.0,0.0,0.0,0.0,0.0,0.0,0.0,0.0,0.0,0.0,0.0,0.0,0.0,0.0,0.0,0.0,0.0,0.0,0.0,0.0,0.0,0.0,0.0,0.0,0.0,0.0,0.0,0.0,0.0,0.0,0.0,0.0,0.0,0.0,0.0,0.0,0.0,0.0,0.0,0.0,0.0,0.0,0.0,0.0,0.0,0.0,0.0,0.0,0.0,0.0,0.0,0.0,0.0,0.0,0.0,0.0,0.0,0.0,0.0,0.0,0.0,0.0,0.0,0.0,0.0,0.0,0.0,0.0,0.0,0.0,0.0,0.0,0.0,0.0,0.0,0.0,0.0,0.0,0.0,0.0,0.0,0.0,0.0,0.0,0.0,0.0,0.0,0.0,0.0,0.0,0.0,0.0,0.0,0.0,0.0,0.0,0.0,0.0,0.0,0.0,0.0,0.0,0.0,0.0,0.0,0.0,0.0,0.0,0.0,0.0,0.0,0.0,0.0,0.0,0.0,0.0,0.0,0.0,0.0,0.0,0.0,0.0,0.0,0.0,0.0,0.0,0.0,0.0,0.0,0.0,0.0,0.0,0.0,0.0,0.0,0.0,0.0,0.0,0.0,0.0,0.0,0.0,0.0,0.0,0.0,0.0,0.0,0.0,0.0,0.0,0.0,0.0,0.0,0.0,0.0,0.0,0.0,0.0,0.0,0.0,0.0,0.0,0.0,0.0,0.0,0.0,0.0,0.0,0.0,0.0,0.0,0.0,0.0,0.0,0.0,0.0,0.0,0.0,0.0,0.0,0.0,0.0,0.0,0.0,0.0,0.0,0.0,0.0,-1.1558,0.0,0.0,0.0,0.0,0.0,0.0,0.0,0.0,0.0,0.0,0.0,0.0,0.0,0.0,0.0,0.0,0.0,0.0,0.0,0.0,0.0,0.0,0.0,0.0,0.0,0.0,0.0,0.0,0.0,0.0,0.0,0.0,0.0,0.0,0.0,0.0,0.0,0.0,0.0,0.0,0.0,0.0,0.0,0.0,0.0,0.0,0.0,0.0,0.0,0.0,0.0,0.0,0.0,0.0,0.0,0.0,0.0,0.0,0.0,0.0,0.0,0.0,0.0,0.0,0.0,0.0,0.0,0.0,0.0,0.0,0.0,0.0,0.0,0.0,0.0,0.0,0.0,0.0,0.0,0.0,0.0,0.0,0.0,0.0,0.0,0.0,0.0,0.0,0.0,0.0,0.0,0.0,0.0,0.0,0.0,0.0,0.0,0.0,0.0,0.0,0.0,0.0,0.0,0.0,0.0,0.0,0.0,0.0,0.0,0.0,-1.5832,-1.5771,-1.4492,-1.3098,-1.1558,0.0,0.0,0.0,0.0,0.0,0.0,0.0,0.0,0.0,0.0,0.0,0.0,0.0,0.0,0.0,0.0,0.0,0.0,0.0,0.0,0.0,0.0,0.0,0.0,0.0,0.0,0.0,0.0,0.0,0.0,0.0,0.0,0.0,0.0,0.0,0.0,0.0,0.0,0.0,0.0,0.0,0.0,0.0,0.0,0.0,0.0,0.0,0.0,0.0,0.0,0.0,0.0,0.0,0.0,0.0,0.0,0.0,0.0,0.0,0.0,0.0,0.0,0.0,0.0,0.0,0.0,0.0,0.0,0.0,0.0,0.0,0.0,0.0,0.0,0.0,0.0,0.0,0.0,0.0,0.0,0.0,0.0,0.0,0.0,0.0,0.0,0.0,0.0,0.0,0.0,0.0,0.0,0.0,0.0,0.0,0.0,0.0,0.0,0.0,0.0,0.0,0.0,0.0,0.0,0.0,0.0,0.0,0.0,0.0,0.0,0.0,0.0,-1.5317,-1.4075,-1.2714,0.0,0.0,0.0,0.0,0.0,0.0,0.0,0.0,0.0,0.0,0.0,0.0,0.0,0.0,0.0,0.0,0.0,0.0,0.0,0.0,0.0,0.0,0.0,0.0,0.0,0.0,0.0,0.0,0.0,0.0,0.0,0.0,0.0,0.0,0.0,0.0,0.0,0.0,0.0,0.0,0.0,0.0,0.0,0.0,0.0,0.0,0.0,0.0,0.0,0.0,0.0,0.0,0.0,0.0,0.0,0.0,0.0,0.0,0.0,0.0,0.0,0.0,0.0,0.0,0.0,0.0,0.0,0.0,0.0,0.0,0.0,0.0,0.0,0.0,0.0,0.0,0.0,0.0,0.0,0.0,0.0,0.0,0.0,0.0,0.0,0.0,0.0,0.0,0.0,0.0,0.0,0.0,0.0,0.0,0.0,0.0,0.0,0.0,0.0,0.0,0.0,0.0,0.0,0.0,0.0,0.0,0.0,0.0,0.0,0.0,-1.6424,-1.7742,-1.7437,0.0,-1.6093,0.0,0.0,0.0,0.0,0.0,0.0,0.0,0.0,0.0,0.0,0.0,0.0,0.0,0.0,0.0,0.0,0.0,0.0,0.0,0.0,0.0,0.0,0.0,0.0,0.0,0.0,0.0,0.0,0.0,0.0,0.0,0.0,0.0,0.0,0.0,0.0,0.0,0.0,0.0,0.0,0.0,0.0,0.0,0.0,0.0,0.0,0.0,0.0,0.0,0.0,0.0,0.0,0.0,0.0,0.0,0.0,0.0,0.0,0.0,0.0,0.0,0.0,0.0,0.0,0.0,0.0,0.0,0.0,0.0,0.0,0.0,0.0,0.0,0.0,0.0,0.0,0.0,0.0,0.0,0.0,0.0,0.0,0.0,0.0,0.0,0.0,0.0,0.0,0.0,0.0,0.0,0.0,0.0,0.0,0.0,0.0,0.0,0.0,0.0,0.0,0.0,0.0,0.0,0.0,0.0,0.0,0.0,0.0,0.0,0.0,-1.6714,-1.7502,-1.6588,-1.6074,0.0,0.0,0.0,0.0,0.0,0.0,0.0,0.0,0.0,0.0,0.0,0.0,0.0,0.0,0.0,0.0,0.0,0.0,0.0,0.0,0.0,0.0,0.0,0.0,0.0,0.0,0.0,0.0,0.0,0.0,0.0,0.0,0.0,0.0,0.0,0.0,0.0,0.0,0.0,0.0,0.0,0.0,0.0,0.0,0.0,0.0,0.0,0.0,0.0,0.0,0.0,0.0,0.0,0.0,0.0,0.0,0.0,0.0,0.0,0.0,0.0,0.0,0.0,0.0,0.0,0.0,0.0,0.0,0.0,0.0,0.0,0.0,0.0,0.0,0.0,0.0,0.0,0.0,0.0,0.0,0.0,0.0,0.0,0.0,0.0,0.0,0.0,0.0,0.0,0.0,0.0,0.0,0.0,0.0,0.0,0.0,0.0,0.0,0.0,0.0,0.0,0.0,0.0,0.0,0.0,0.0,0.0,0.0,0.0,0.0,-1.6633,-1.7007,-1.7569,-1.5904,-1.5319,-1.6037,0.0,0.0,0.0,0.0,0.0,0.0,0.0,0.0,0.0,0.0,0.0,0.0,0.0,0.0,0.0,0.0,0.0,0.0,0.0,0.0,0.0,0.0,0.0,0.0,0.0,0.0,0.0,0.0,0.0,0.0,0.0,0.0,0.0,0.0,0.0,0.0,0.0,0.0,0.0,0.0,0.0,0.0,0.0,0.0,0.0,0.0,0.0,0.0,0.0,0.0,0.0,0.0,0.0,0.0,0.0,0.0,0.0,0.0,0.0,0.0,0.0,0.0,0.0,0.0,0.0,0.0,0.0,0.0,0.0,0.0,0.0,0.0,0.0,0.0,0.0,0.0,0.0,0.0,0.0,0.0,0.0,0.0,0.0,0.0,0.0,0.0,0.0,0.0,0.0,0.0,0.0,0.0,0.0,0.0,0.0,0.0,0.0,0.0,0.0,0.0,0.0,0.0,0.0,0.0,0.0,0.0,0.0,0.0,-1.8945,-1.7528,-1.7382,-1.8675,-1.6209,-1.5421,0.0,0.0,0.0,0.0,0.0,0.0,0.0,0.0,0.0,0.0,0.0,0.0,0.0,0.0,0.0,0.0,0.0,0.0,0.0,0.0,0.0,0.0,0.0,0.0,0.0,0.0,0.0,0.0,0.0,0.0,0.0,0.0,0.0,0.0,0.0,0.0,0.0,0.0,0.0,0.0,0.0,0.0,0.0,0.0,0.0,0.0,0.0,0.0,0.0,0.0,0.0,0.0,0.0,0.0,0.0,0.0,0.0,0.0,0.0,0.0,0.0,0.0,0.0,0.0,0.0,0.0,0.0,0.0,0.0,0.0,0.0,0.0,0.0,0.0,0.0,0.0,0.0,0.0,0.0,0.0,0.0,0.0,0.0,0.0,0.0,0.0,0.0,0.0,0.0,0.0,0.0,0.0,0.0,0.0,0.0,0.0,0.0,0.0,0.0,0.0,0.0,0.0,0.0,0.0,0.0,0.0,0.0,0.0,0.0,-1.6549,-1.6647,-1.7328,-1.8544,-1.695,-1.6329,0.0,0.0,0.0,0.0,0.0,0.0,0.0,0.0,0.0,0.0,0.0,0.0,0.0,0.0,0.0,0.0,0.0,0.0,0.0,0.0,0.0,0.0,0.0,0.0,0.0,0.0,0.0,0.0,0.0,0.0,0.0,0.0,0.0,0.0,0.0,0.0,0.0,0.0,0.0,0.0,0.0,0.0,0.0,0.0,0.0,0.0,0.0,0.0,0.0,0.0,0.0,0.0,0.0,0.0,0.0,0.0,0.0,0.0,0.0,0.0,0.0,0.0,0.0,0.0,0.0,0.0,0.0,0.0,0.0,0.0,0.0,0.0,0.0,0.0,0.0,0.0,0.0,0.0,0.0,0.0,0.0,0.0,0.0,0.0,0.0,0.0,0.0,0.0,0.0,0.0,0.0,0.0,0.0,0.0,0.0,0.0,0.0,0.0,0.0,0.0,0.0,0.0,0.0,0.0,0.0,0.0,0.0,0.0,0.0,-1.5732,0.0,-1.7729,-1.8263,-1.7275,-1.662,0.0,0.0,0.0,0.0,0.0,0.0,0.0,0.0,0.0,0.0,0.0,0.0,0.0,0.0,0.0,0.0,0.0,0.0,0.0,0.0,0.0,0.0,0.0,0.0,0.0,0.0,0.0,0.0,0.0,0.0,0.0,0.0,0.0,0.0,0.0,0.0,0.0,0.0,0.0,0.0,0.0,0.0,0.0,0.0,0.0,0.0,0.0,0.0,0.0,0.0,0.0,0.0,0.0,0.0,0.0,0.0,0.0,0.0,0.0,0.0,0.0,0.0,0.0,0.0,0.0,0.0,0.0,0.0,0.0,0.0,0.0,0.0,0.0,0.0,0.0,0.0,0.0,0.0,0.0,0.0,0.0,0.0,0.0,0.0,0.0,0.0,0.0,0.0,0.0,0.0,0.0,0.0,0.0,0.0,0.0,0.0,0.0,0.0,0.0,0.0,0.0,0.0,0.0,0.0,0.0,0.0,0.0,0.0,-1.5718,-1.7099,-1.821,-1.8557,-1.8022,-1.7181,-1.6179,0.0,0.0,0.0,0.0,0.0,0.0,0.0,0.0,0.0,0.0,0.0,0.0,0.0,0.0,0.0,0.0,0.0,0.0,0.0,0.0,0.0,0.0,0.0,0.0,0.0,0.0,0.0,0.0,0.0,0.0,0.0,0.0,0.0,0.0,0.0,0.0,0.0,0.0,0.0,0.0,0.0,0.0,0.0,0.0,0.0,0.0,0.0,0.0,0.0,0.0,0.0,0.0,0.0,0.0,0.0,0.0,0.0,0.0,0.0,0.0,0.0,0.0,0.0,0.0,0.0,0.0,0.0,0.0,0.0,0.0,0.0,0.0,0.0,0.0,0.0,0.0,0.0,0.0,0.0,0.0,0.0,0.0,0.0,0.0,0.0,0.0,0.0,0.0,0.0,0.0,0.0,0.0,0.0,0.0,0.0,0.0,0.0,0.0,0.0,0.0,0.0,0.0,0.0,0.0,0.0,0.0,0.0,0.0,0.0,-1.5718,-1.7032,-1.8196,-1.9132,-1.7208,-1.6557,0.0,0.0,0.0,0.0,0.0,0.0,0.0,0.0,0.0,0.0,0.0,0.0,0.0,0.0,0.0,0.0,0.0,0.0,0.0,0.0,0.0,0.0,0.0,0.0,0.0,0.0,0.0,0.0,0.0,0.0,0.0,0.0,0.0,0.0,0.0,0.0,0.0,0.0,0.0,0.0,0.0,0.0,0.0,0.0,0.0,0.0,0.0,0.0,0.0,0.0,0.0,0.0,0.0,0.0,0.0,0.0,0.0,0.0,0.0,0.0,0.0,0.0,0.0,0.0,0.0,0.0,0.0,0.0,0.0,0.0,0.0,0.0,0.0,0.0,0.0,0.0,0.0,0.0,0.0,0.0,0.0,0.0,0.0,0.0,0.0,0.0,0.0,0.0,0.0,0.0,0.0,0.0,0.0,0.0,0.0,0.0,0.0,0.0,0.0,0.0,0.0,0.0,0.0,0.0,0.0,0.0,0.0,0.0,0.0,-1.6192,-1.7542,-1.8718,-1.9613,-1.7582,-1.6887,-1.7609,0.0,0.0,0.0,0.0,0.0,0.0,0.0,0.0,0.0,0.0,0.0,0.0,0.0,0.0,0.0,0.0,0.0,0.0,0.0,0.0,0.0,0.0,0.0,0.0,0.0,0.0,0.0,0.0,0.0,0.0,0.0,0.0,0.0,0.0,0.0,0.0,0.0,0.0,0.0,0.0,0.0,0.0,0.0,0.0,0.0,0.0,0.0,0.0,0.0,0.0,0.0,0.0,0.0,0.0,0.0,0.0,0.0,0.0,0.0,0.0,0.0,0.0,0.0,0.0,0.0,0.0,0.0,0.0,0.0,0.0,0.0,0.0,0.0,0.0,0.0,0.0,0.0,0.0,0.0,0.0,0.0,0.0,0.0,0.0,0.0,0.0,0.0,0.0,0.0,0.0,0.0,0.0,0.0,0.0,0.0,0.0,0.0,0.0,0.0,0.0,0.0,0.0,0.0,0.0,0.0,0.0,0.0,0.0,-1.8089,-1.9541,-2.0107,-1.9573,-1.8317,-1.7114,0.0,0.0,0.0,0.0,0.0,0.0,0.0,0.0,0.0,0.0,0.0,0.0,0.0,0.0,0.0,0.0,0.0,0.0,0.0,0.0,0.0,0.0,0.0,0.0,0.0,0.0,0.0,0.0,0.0,0.0,0.0,0.0,0.0,0.0,0.0,0.0,0.0,0.0,0.0,0.0,0.0,0.0,0.0,0.0,0.0,0.0,0.0,0.0,0.0,0.0,0.0,0.0,0.0,0.0,0.0,0.0,0.0,0.0,0.0,0.0,0.0,0.0,0.0,0.0,0.0,0.0,0.0,0.0,0.0,0.0,0.0,0.0,0.0,0.0,0.0,0.0,0.0,0.0,0.0,0.0,0.0,0.0,0.0,0.0,0.0,0.0,0.0,0.0,0.0,0.0,0.0,0.0,0.0,0.0,0.0,0.0,0.0,0.0,0.0,0.0,0.0,0.0,0.0,0.0,0.0,0.0,0.0,0.0,0.0,-1.9345,-2.1203,-2.1991,-2.159,-1.9439,-1.821,0.0,0.0,0.0,0.0,0.0,0.0,0.0,0.0,0.0,0.0,0.0,0.0,0.0,0.0,0.0,0.0,0.0,0.0,0.0,0.0,0.0,0.0,0.0,0.0,0.0,0.0,0.0,0.0,0.0,0.0,0.0,0.0,0.0,0.0,0.0,0.0,0.0,0.0,0.0,0.0,0.0,0.0,0.0,0.0,0.0,0.0,0.0,0.0,0.0,0.0,0.0,0.0,0.0,0.0,0.0,0.0,0.0,0.0,0.0,0.0,0.0,0.0,0.0,0.0,0.0,0.0,0.0,0.0,0.0,0.0,0.0,0.0,0.0,0.0,0.0,0.0,0.0,0.0,0.0,0.0,0.0,0.0,0.0,0.0,0.0,0.0,0.0,0.0,0.0,0.0,0.0,0.0,0.0,0.0,0.0,0.0,0.0,0.0,0.0,0.0,0.0,0.0,0.0,0.0,0.0,0.0,0.0,0.0,-1.8677,-2.0147,-2.1937,-2.2899,-2.2979,-2.1149,-1.9573,0.0,0.0,0.0,0.0,0.0,0.0,0.0,0.0,0.0,0.0,0.0,0.0,0.0,0.0,0.0,0.0,0.0,0.0,0.0,0.0,0.0,0.0,0.0,0.0,0.0,0.0,0.0,0.0,0.0,0.0,0.0,0.0,0.0,0.0,0.0,0.0,0.0,0.0,0.0,0.0,0.0,0.0,0.0,0.0,0.0,0.0,0.0,0.0,0.0,0.0,0.0,0.0,0.0,0.0,0.0,0.0,0.0,0.0,0.0,0.0,0.0,0.0,0.0,0.0,0.0,0.0,0.0,0.0,0.0,0.0,0.0,0.0,0.0,0.0,0.0,0.0,0.0,0.0,0.0,0.0,0.0,0.0,0.0,0.0,0.0,0.0,0.0,0.0,0.0,0.0,0.0,0.0,0.0,0.0,0.0,0.0,0.0,0.0,0.0,0.0,0.0,0.0,0.0,0.0,0.0,0.0,0.0,0.0,-1.9199,-2.0655,-2.2178,-2.3263,-2.3674,-2.2819,-2.0944,0.0,0.0,0.0,0.0,0.0,0.0,0.0,0.0,0.0,0.0,0.0,0.0,0.0,0.0,0.0,0.0,0.0,0.0,0.0,0.0,0.0,0.0,0.0,0.0,0.0,0.0,0.0,0.0,0.0,0.0,0.0,0.0,0.0,0.0,0.0,0.0,0.0,0.0,0.0,0.0,0.0,0.0,0.0,0.0,0.0,0.0,0.0,0.0,0.0,0.0,0.0,0.0,0.0,0.0,0.0,0.0,0.0,0.0,0.0,0.0,0.0,0.0,0.0,0.0,0.0,0.0,0.0,0.0,0.0,0.0,0.0,0.0,0.0,0.0,0.0,0.0,0.0,0.0,0.0,0.0,0.0,0.0,0.0,0.0,0.0,0.0,0.0,0.0,0.0,0.0,0.0,0.0,0.0,0.0,0.0,0.0,0.0,0.0,0.0,0.0,0.0,0.0,0.0,0.0,0.0,0.0,0.0,0.0,-1.9199,-2.0668,-2.2579,-2.3527,-2.342,-2.2325,-2.1245,0.0,0.0,0.0,0.0,0.0,0.0,0.0,0.0,0.0,0.0,0.0,0.0,0.0,0.0,0.0,0.0,0.0,0.0,0.0,0.0,0.0,0.0,0.0,0.0,0.0,0.0,0.0,0.0,0.0,0.0,0.0,0.0,0.0,0.0,0.0,0.0,0.0,0.0,0.0,0.0,0.0,0.0,0.0,0.0,0.0,0.0,0.0,0.0,-2.1779,0.0,0.0,0.0,0.0,0.0,0.0,0.0,0.0,0.0,0.0,0.0,0.0,0.0,0.0,0.0,0.0,0.0,0.0,0.0,0.0,0.0,0.0,0.0,0.0,0.0,0.0,0.0,0.0,0.0,0.0,0.0,0.0,0.0,0.0,0.0,0.0,0.0,0.0,0.0,0.0,0.0,0.0,0.0,0.0,0.0,0.0,0.0,0.0,0.0,0.0,0.0,0.0,0.0,0.0,0.0,0.0,0.0,0.0,0.0,-1.9466,-2.1056,-2.2633,-2.3407,-2.3487,-2.2512,-2.154,0.0,0.0,0.0,0.0,0.0,0.0,0.0,0.0,0.0,0.0,0.0,0.0,0.0,0.0,0.0,0.0,0.0,0.0,0.0,0.0,0.0,0.0,0.0,0.0,0.0,0.0,0.0,0.0,0.0,0.0,0.0,0.0,0.0,0.0,0.0,0.0,0.0,0.0,0.0,0.0,0.0,0.0,0.0,0.0,0.0,0.0,0.0,0.0,0.0,0.0,0.0,0.0,0.0,0.0,0.0,0.0,0.0,0.0,0.0,0.0,0.0,0.0,0.0,0.0,0.0,0.0,0.0,0.0,0.0,0.0,0.0,0.0,0.0,0.0,0.0,0.0,0.0,0.0,0.0,0.0,0.0,0.0,0.0,0.0,0.0,0.0,0.0,0.0,0.0,0.0,0.0,0.0,0.0,0.0,0.0,0.0,0.0,0.0,0.0,0.0,0.0,0.0,0.0,0.0,0.0,0.0,0.0,-1.817,-1.9666,-2.1494,-2.2405,-2.3088,-2.3474,-2.2752,-2.185,-2.0914,0.0,0.0,0.0,0.0,0.0,0.0,0.0,0.0,0.0,0.0,0.0,0.0,0.0,0.0,0.0,0.0,0.0,0.0,0.0,0.0,0.0,0.0,0.0,0.0,0.0,0.0,0.0,0.0,0.0,0.0,0.0,0.0,0.0,0.0,0.0,0.0,0.0,0.0,-1.9947,-2.1016,0.0,0.0,0.0,0.0,0.0,0.0,0.0,0.0,-2.2274,0.0,0.0,0.0,0.0,0.0,0.0,0.0,0.0,0.0,0.0,0.0,0.0,0.0,0.0,0.0,0.0,0.0,0.0,0.0,0.0,0.0,0.0,0.0,0.0,0.0,0.0,0.0,0.0,0.0,0.0,0.0,0.0,0.0,0.0,0.0,0.0,0.0,0.0,0.0,0.0,0.0,0.0,0.0,0.0,0.0,0.0,0.0,0.0,0.0,0.0,0.0,0.0,0.0,0.0,0.0,0.0,-1.817,-1.8183,-1.9145,-2.1136,-2.2031,-2.2432,-2.2285,-2.2138,-2.1984,-2.1682,0.0,0.0,0.0,0.0,0.0,0.0,0.0,0.0,0.0,0.0,0.0,0.0,0.0,0.0,0.0,0.0,0.0,0.0,0.0,0.0,0.0,0.0,0.0,0.0,0.0,0.0,0.0,0.0,0.0,0.0,0.0,0.0,0.0,0.0,0.0,0.0,0.0,0.0,0.0,-2.395,-2.4274,0.0,0.0,0.0,0.0,0.0,0.0,0.0,0.0,-2.273,0.0,0.0,0.0,0.0,0.0,0.0,0.0,0.0,0.0,0.0,0.0,0.0,0.0,0.0,0.0,0.0,0.0,0.0,0.0,0.0,0.0,0.0,0.0,0.0,0.0,0.0,0.0,0.0,0.0,0.0,0.0,0.0,0.0,0.0,0.0,0.0,0.0,0.0,0.0,0.0,0.0,0.0,0.0,0.0,0.0,0.0,0.0,0.0,0.0,0.0,0.0,0.0,0.0,0.0,0.0,-1.7755,-1.9094,-2.063,-2.2347,-2.3916,-2.4254,-2.3247,-2.2233,-2.1656,0.0,0.0,0.0,0.0,0.0,0.0,0.0,0.0,0.0,0.0,0.0,0.0,0.0,0.0,0.0,0.0,0.0,0.0,0.0,0.0,0.0,0.0,0.0,0.0,0.0,0.0,0.0,0.0,0.0,0.0,0.0,0.0,0.0,0.0,0.0,0.0,0.0,0.0,0.0,0.0,-2.4138,-2.4504,-2.302,0.0,0.0,0.0,0.0,0.0,0.0,-2.2937,-2.3168,0.0,0.0,0.0,0.0,0.0,0.0,0.0,0.0,0.0,0.0,0.0,0.0,0.0,0.0,0.0,0.0,0.0,0.0,0.0,0.0,0.0,0.0,0.0,0.0,0.0,0.0,0.0,0.0,0.0,0.0,0.0,0.0,0.0,0.0,0.0,0.0,0.0,0.0,0.0,0.0,0.0,0.0,0.0,0.0,0.0,0.0,0.0,0.0,0.0,0.0,0.0,0.0,0.0,0.0,0.0,-1.7969,-2.0086,-2.2135,-2.3948,-2.58,-2.6088,-2.4584,-2.2612,-2.1565,0.0,0.0,0.0,0.0,0.0,0.0,0.0,0.0,0.0,0.0,0.0,0.0,0.0,0.0,0.0,0.0,0.0,0.0,0.0,0.0,0.0,0.0,0.0,0.0,0.0,0.0,0.0,0.0,0.0,0.0,0.0,0.0,0.0,0.0,0.0,0.0,0.0,0.0,0.0,0.0,0.0,-2.5049,-2.3378,-2.3379,0.0,0.0,0.0,0.0,-2.4638,-2.4602,0.0,0.0,0.0,0.0,0.0,0.0,0.0,0.0,0.0,0.0,0.0,0.0,0.0,0.0,0.0,0.0,0.0,0.0,0.0,0.0,0.0,0.0,0.0,0.0,0.0,0.0,0.0,0.0,0.0,0.0,0.0,0.0,0.0,0.0,0.0,0.0,0.0,0.0,0.0,0.0,0.0,0.0,0.0,0.0,0.0,0.0,0.0,0.0,0.0,0.0,0.0,0.0,0.0,0.0,0.0,0.0,-2.0406,-2.0566,-2.204,-2.499,-2.5954,-2.6035,-2.5217,-2.32,-2.2198,0.0,0.0,0.0,0.0,0.0,0.0,0.0,0.0,0.0,0.0,0.0,0.0,0.0,0.0,0.0,0.0,0.0,0.0,0.0,0.0,0.0,0.0,0.0,0.0,0.0,0.0,0.0,0.0,0.0,0.0,0.0,0.0,0.0,0.0,0.0,0.0,0.0,0.0,0.0,0.0,0.0,-2.7788,-2.3771,-2.4121,-2.4782,0.0,0.0,0.0,-2.717,-2.8783,0.0,0.0,0.0,0.0,0.0,0.0,0.0,0.0,0.0,0.0,0.0,0.0,0.0,0.0,0.0,0.0,0.0,0.0,0.0,0.0,0.0,0.0,0.0,0.0,0.0,0.0,0.0,0.0,0.0,0.0,0.0,0.0,0.0,0.0,0.0,0.0,0.0,0.0,0.0,0.0,0.0,0.0,0.0,0.0,0.0,0.0,0.0,0.0,0.0,0.0,0.0,0.0,0.0,0.0,0.0,-1.8498,-2.0703,-2.208,-2.3954,-2.6342,-2.758,-2.7764,-2.6759,-2.4159,-2.274,0.0,0.0,0.0,0.0,0.0,0.0,0.0,0.0,0.0,0.0,0.0,0.0,0.0,0.0,0.0,0.0,0.0,0.0,0.0,0.0,0.0,0.0,0.0,0.0,0.0,0.0,0.0,0.0,0.0,0.0,0.0,0.0,0.0,0.0,0.0,0.0,0.0,0.0,0.0,0.0,0.0,0.0,-2.5313,-2.5615,0.0,0.0,0.0,-2.7536,-2.917,0.0,0.0,0.0,0.0,0.0,0.0,0.0,0.0,0.0,0.0,0.0,0.0,0.0,0.0,0.0,0.0,0.0,0.0,0.0,0.0,0.0,0.0,0.0,0.0,0.0,0.0,0.0,0.0,0.0,0.0,0.0,0.0,0.0,0.0,0.0,0.0,0.0,0.0,0.0,0.0,0.0,0.0,0.0,0.0,0.0,0.0,0.0,0.0,0.0,0.0,0.0,0.0,0.0,0.0,0.0,0.0,0.0,-2.1419,-2.3462,-2.5512,-2.7511,-2.8876,-2.9048,-2.7915,-2.5076,0.0,0.0,0.0,0.0,0.0,0.0,0.0,0.0,0.0,0.0,0.0,0.0,0.0,0.0,0.0,0.0,0.0,0.0,0.0,0.0,0.0,0.0,0.0,0.0,0.0,0.0,0.0,-1.5478,0.0,0.0,0.0,0.0,0.0,0.0,0.0,0.0,0.0,0.0,0.0,0.0,0.0,0.0,-2.7457,-2.6974,-2.7415,-2.821,0.0,0.0,-2.9526,-3.0802,-3.064,-3.0041,0.0,0.0,0.0,0.0,0.0,0.0,0.0,0.0,0.0,0.0,0.0,0.0,0.0,0.0,0.0,0.0,0.0,0.0,0.0,0.0,0.0,0.0,0.0,0.0,0.0,0.0,0.0,0.0,0.0,0.0,0.0,0.0,0.0,0.0,0.0,0.0,0.0,0.0,0.0,0.0,0.0,0.0,0.0,0.0,0.0,0.0,0.0,0.0,0.0,0.0,0.0,0.0,0.0,0.0,0.0,-2.3512,-2.4189,-2.5722,-2.8125,-2.9105,-2.9199,-2.8257,-2.5755,-2.4201,0.0,0.0,0.0,0.0,0.0,0.0,0.0,0.0,0.0,0.0,0.0,0.0,0.0,0.0,0.0,0.0,0.0,0.0,0.0,0.0,0.0,0.0,0.0,0.0,0.0,0.0,0.0,0.0,0.0,0.0,0.0,0.0,0.0,0.0,0.0,0.0,0.0,0.0,0.0,0.0,0.0,-2.9954,-2.8248,-2.9507,-3.0916,0.0,0.0,-3.1424,-3.197,-3.3314,-3.3064,-2.949,0.0,0.0,0.0,0.0,0.0,0.0,0.0,0.0,0.0,0.0,0.0,0.0,0.0,0.0,0.0,0.0,0.0,0.0,0.0,0.0,0.0,0.0,0.0,0.0,0.0,0.0,0.0,0.0,0.0,0.0,0.0,0.0,0.0,0.0,0.0,0.0,0.0,0.0,0.0,0.0,0.0,0.0,0.0,0.0,0.0,0.0,0.0,0.0,0.0,0.0,0.0,0.0,0.0,-2.2054,-2.3789,-2.4718,-2.6244,-2.8223,-2.8359,-2.8359,-2.8281,-2.6102,-2.4258,0.0,0.0,0.0,0.0,0.0,0.0,0.0,0.0,0.0,0.0,0.0,0.0,0.0,0.0,0.0,0.0,0.0,0.0,0.0,0.0,0.0,0.0,0.0,0.0,0.0,0.0,0.0,0.0,-1.6152,-1.686,-1.7766,0.0,0.0,0.0,0.0,0.0,0.0,0.0,0.0,0.0,0.0,-2.9207,-3.0007,-3.0925,0.0,0.0,-3.2561,-3.237,-3.2206,-3.219,-3.1395,-2.9239,-2.7795,0.0,0.0,0.0,0.0,0.0,0.0,0.0,0.0,0.0,0.0,0.0,0.0,0.0,0.0,0.0,0.0,0.0,0.0,0.0,0.0,0.0,0.0,0.0,0.0,0.0,0.0,0.0,0.0,0.0,0.0,0.0,0.0,0.0,0.0,0.0,0.0,0.0,0.0,0.0,0.0,0.0,0.0,0.0,0.0,0.0,0.0,0.0,0.0,0.0,0.0,0.0,0.0,-2.2441,-2.3594,-2.4883,-2.623,-2.7695,-2.7559,-2.7559,-2.7676,-2.5996,-2.4316,0.0,0.0,0.0,0.0,0.0,0.0,0.0,0.0,0.0,0.0,0.0,0.0,0.0,0.0,0.0,0.0,0.0,0.0,0.0,0.0,0.0,0.0,0.0,0.0,0.0,0.0,0.0,0.0,-1.684,-1.7746,-1.8892,0.0,0.0,0.0,0.0,0.0,0.0,0.0,0.0,0.0,0.0,-2.9227,-3.1119,-3.1898,-3.2508,-3.3214,-3.3043,-3.2692,-3.2265,-3.1311,-3.0105,-2.8637,0.0,0.0,0.0,0.0,0.0,0.0,0.0,0.0,0.0,0.0,0.0,0.0,0.0,0.0,0.0,0.0,0.0,0.0,0.0,0.0,0.0,0.0,0.0,0.0,0.0,0.0,0.0,0.0,0.0,0.0,0.0,0.0,0.0,0.0,0.0,0.0,0.0,0.0,0.0,0.0,0.0,0.0,0.0,0.0,0.0,0.0,0.0,0.0,0.0,0.0,0.0,0.0,0.0,0.0,-2.3101,-2.4434,-2.5575,-2.6426,-2.6816,-2.6836,-2.6465,-2.5547,-2.4499,-2.3208,0.0,0.0,0.0,0.0,0.0,0.0,0.0,0.0,0.0,0.0,0.0,0.0,0.0,0.0,0.0,0.0,0.0,0.0,0.0,0.0,0.0,0.0,0.0,0.0,0.0,0.0,-1.7812,-1.8296,-1.8892,0.0,0.0,0.0,0.0,0.0,0.0,0.0,0.0,0.0,0.0,-2.8838,-3.0743,-3.132,-3.2348,-3.3201,-3.3721,-3.2918,-3.2215,-3.2164,-3.1286,-2.988,0.0,0.0,0.0,0.0,0.0,0.0,0.0,0.0,0.0,0.0,0.0,0.0,0.0,0.0,0.0,0.0,0.0,0.0,0.0,0.0,0.0,0.0,0.0,0.0,0.0,0.0,0.0,-1.7194,-1.7261,0.0,0.0,0.0,0.0,0.0,0.0,0.0,0.0,0.0,0.0,0.0,-1.8126,-1.8268,0.0,0.0,0.0,0.0,0.0,0.0,0.0,0.0,0.0,0.0,0.0,0.0,-2.2305,-2.3101,-2.4414,-2.5488,-2.6367,-2.6523,-2.6543,-2.6387,-2.5254,-2.3906,-2.2363,0.0,0.0,0.0,0.0,0.0,0.0,0.0,0.0,0.0,0.0,0.0,0.0,0.0,0.0,0.0,0.0,0.0,0.0,0.0,0.0,0.0,0.0,0.0,0.0,0.0,-1.7909,0.0,0.0,0.0,0.0,0.0,0.0,0.0,0.0,0.0,0.0,0.0,-2.5963,-2.8373,-2.9478,-3.0382,-3.126,-3.2039,-3.2315,0.0,0.0,0.0,0.0,0.0,0.0,0.0,0.0,0.0,0.0,0.0,0.0,0.0,0.0,-2.836,-2.7218,-2.6751,-2.6499,-2.6499,0.0,0.0,0.0,0.0,0.0,0.0,0.0,0.0,0.0,0.0,0.0,0.0,0.0,0.0,0.0,0.0,-1.7729,0.0,0.0,0.0,0.0,0.0,0.0,0.0,0.0,-1.7702,-1.8388,-1.889,-1.9029,-1.9765,0.0,-2.0921,-2.0962,0.0,0.0,0.0,0.0,0.0,0.0,0.0,0.0,-2.2441,-2.3101,-2.4258,-2.5273,-2.6113,-2.6016,-2.5937,-2.5918,-2.4668,-2.3242,-2.1699,-2.0039,-1.918,0.0,0.0,0.0,0.0,0.0,0.0,0.0,0.0,0.0,0.0,0.0,0.0,0.0,0.0,0.0,0.0,0.0,0.0,0.0,0.0,0.0,0.0,0.0,-1.9114,0.0,0.0,0.0,0.0,0.0,0.0,0.0,0.0,0.0,-2.5795,-2.5762,-2.6766,-2.9704,-2.993,-3.0181,-3.1235,0.0,0.0,0.0,0.0,0.0,0.0,0.0,-2.9063,-2.8699,-2.8499,-2.8323,-2.8147,-2.8725,-2.9151,-2.8938,0.0,0.0,-2.8323,-2.7695,-2.7318,-2.7354,-2.7293,-2.7344,-2.7544,-2.7733,-2.7891,0.0,0.0,0.0,0.0,0.0,0.0,0.0,0.0,-1.829,-1.8715,0.0,-1.8528,0.0,0.0,0.0,0.0,0.0,0.0,0.0,0.0,-1.8985,-2.0083,-2.0475,-2.0351,-2.1015,-2.2349,-2.417,-2.4293,-2.2809,-2.0332,0.0,0.0,0.0,0.0,0.0,0.0,-2.2691,-2.314,-2.3978,-2.4863,-2.5615,-2.5293,-2.5106,-2.5047,-2.3893,-2.2617,-2.1327,-2.1171,-2.0586,-1.9434,-1.9668,0.0,0.0,0.0,0.0,0.0,0.0,0.0,0.0,0.0,0.0,0.0,0.0,0.0,0.0,0.0,0.0,0.0,0.0,0.0,0.0,-2.0478,0.0,0.0,0.0,0.0,0.0,0.0,0.0,0.0,0.0,0.0,-2.6524,-2.7017,-2.8172,-3.0342,0.0,0.0,0.0,0.0,-3.0583,-3.0583,-3.0583,-3.0543,-3.0583,-3.0131,-2.9428,-2.8373,0.0,0.0,-2.8247,-2.9076,-2.9603,-2.9038,-2.8963,-2.9088,-2.9603,-2.9151,-2.8762,-2.8737,-2.8021,-2.7595,-2.7957,-2.7975,-2.7781,-2.171,0.0,0.0,0.0,0.0,-1.9345,-1.9826,-2.0703,-2.0147,-1.9987,-2.0067,-1.9319,0.0,0.0,0.0,0.0,0.0,0.0,-1.837,-1.8814,-1.9479,-2.0118,-2.0626,-2.0626,-2.1213,-2.2409,-2.2162,-2.2823,-2.4074,-2.1964,-2.1313,-2.226,0.0,0.0,0.0,0.0,-2.3164,-2.3633,-2.4453,-2.5,-2.5302,-2.5184,-2.4785,-2.4225,-2.3854,-2.3144,-2.2187,-2.1522,-2.1015,-2.0644,-1.9572,0.0,0.0,0.0,0.0,0.0,0.0,0.0,0.0,0.0,0.0,0.0,0.0,0.0,0.0,0.0,0.0,0.0,0.0,0.0,-2.1239,-2.1342,-2.1551,0.0,0.0,0.0,0.0,0.0,0.0,0.0,0.0,0.0,-2.8574,-2.8599,-2.9239,0.0,0.0,-3.0633,-3.1286,-3.0608,-3.003,-3.003,0.0,0.0,0.0,-2.988,-2.9679,-2.9352,-2.9453,-2.9478,-2.9352,-2.9578,-2.9729,-2.9553,-2.9553,-2.9478,-2.9202,-2.8725,-2.8373,-2.8348,-2.8373,-2.8499,-2.8649,-2.8886,-2.9022,-2.3474,-2.1724,-2.0802,-2.0535,-2.0748,-2.0695,-2.1002,-2.1588,-2.1056,-2.0882,-2.0882,-2.0187,-1.9519,-1.8851,-1.817,0.0,0.0,0.0,-1.9025,-1.9559,-1.996,-2.0267,-2.0494,-2.0508,-2.0821,-2.1387,-2.1189,-2.2159,-2.4121,-2.3097,-2.3146,-2.403,0.0,0.0,-2.2422,-2.3066,-2.3613,-2.4043,-2.4727,-2.5059,-2.5106,-2.4793,-2.4238,-2.3555,-2.3535,-2.3281,-2.2773,-2.1934,-2.1366,-2.119,-1.9865,-1.8948,0.0,0.0,0.0,0.0,0.0,0.0,0.0,0.0,0.0,0.0,0.0,-1.8457,0.0,0.0,0.0,0.0,-1.9778,-2.0763,-2.1575,-2.2124,0.0,0.0,0.0,0.0,0.0,0.0,0.0,-2.5862,-2.665,-2.7731,-2.9227,-2.949,-3.0256,-3.1947,-3.111,-3.0557,-3.1286,0.0,-2.9779,-2.9779,-2.9779,-2.9779,-2.9779,-2.9779,-2.9779,-2.9779,-2.9779,-2.9779,-2.9779,-2.9779,-2.9704,-2.9528,-2.9453,-2.9277,-2.8699,-2.8323,-2.8122,-2.8122,-2.8373,-2.8562,-2.8599,-2.8875,-2.9026,-2.4823,-2.4182,-2.2779,-2.1991,-2.1762,-2.1937,-2.1911,-2.1695,-2.1323,-2.147,-2.1884,-2.1056,-2.0494,-2.0147,-1.9327,0.0,-1.9452,-1.9733,-1.988,-1.992,-2.0441,-2.0535,-2.0207,-2.0153,-2.0054,-1.98,-2.0902,-2.204,-2.3201,-2.3617,-2.4505,-2.5645,-2.3635,-2.28,-2.3325,-2.3672,-2.4082,-2.4453,-2.4863,-2.5086,-2.5008,-2.416,-2.3535,-2.3062,-2.3023,-2.2984,-2.2925,-2.2207,-2.1582,-2.1093,-2.0274,-1.9473,-1.8617,0.0,0.0,0.0,0.0,0.0,0.0,0.0,0.0,0.0,0.0,0.0,0.0,0.0,0.0,0.0,-2.0384,0.0,-2.1129,-2.2892,0.0,0.0,0.0,-2.4951,-2.4926,-2.546,-2.6013,-2.6549,0.0,0.0,0.0,0.0,-3.0909,-3.1888,-3.0758,-3.0231,-3.1235,-3.0522,-2.9779,-2.9779,-2.9779,-2.9779,-2.9679,-2.9603,-2.9578,-2.9654,-2.9679,-2.9603,-2.9654,-2.9603,-2.9428,-2.8976,-2.8813,-2.8637,-2.8122,-2.7971,-2.7971,-2.7846,-2.7996,-2.8122,-2.8072,-2.8122,-2.8147,-2.5531,-2.513,-2.4342,-2.3447,-2.2633,-2.2619,-2.2686,-2.2566,-2.2004,-2.1737,-2.1668,-2.1038,-2.0388,-1.9907,-1.992,-1.996,-2.004,-2.0334,-2.0588,-2.0788,-2.0708,-2.0641,-2.0548,-2.012,-1.9867,-1.9786,-1.9901,-2.1229,-2.3507,-2.2316,-2.3229,-2.6013,-2.4272,-2.3551,-2.4114,-2.4551,-2.4851,-2.4902,-2.5067,-2.4793,-2.4102,-2.3574,-2.3042,-2.2676,-2.2363,-2.2031,-2.1658,-2.1172,-2.0664,-2.0196,-1.9727,-1.9043,-1.8203,-1.8325,0.0,0.0,0.0,0.0,0.0,0.0,0.0,0.0,0.0,-2.007,-2.0379,0.0,-2.0715,0.0,-2.2043,-2.296,-2.3764,-2.4307,0.0,0.0,-2.5911,-2.654,-2.6172,-2.6917,-2.757,-2.7695,-2.8323,-2.895,-2.9528,-2.9829,-3.008,-3.0331,-3.0407,-3.0658,-3.126,-3.0482,-2.9779,-2.9754,-2.9754,-2.9628,-2.9202,-2.8775,-2.8674,-2.9076,-2.88,-2.8649,-2.9038,-2.8775,-2.8448,-2.8323,-2.8298,-2.8072,-2.757,-2.7143,-2.6725,-2.6389,-2.7193,-2.7971,-2.757,-2.7795,-2.7846,-2.5705,-2.5264,-2.469,-2.3915,-2.3086,-2.3207,-2.3193,-2.302,-2.2432,-2.2017,-2.171,-2.1122,-2.0695,-2.0401,-2.0548,-2.0628,-2.0628,-2.0788,-2.0882,-2.0909,-2.0748,-2.0535,-2.0281,-1.996,-1.9733,-1.9658,-2.0109,-2.1544,-2.3677,-2.3021,-2.4017,-2.661,-2.5206,-2.4627,-2.4972,-2.5039,-2.5204,-2.5371,-2.4961,-2.4473,-2.3809,-2.3359,-2.2984,-2.275,-2.2383,-2.1973,-2.1502,-2.0918,-2.0488,-2.0195,-1.9609,-1.8984,-1.8305,-1.8305,-1.7969,0.0,0.0,0.0,0.0,0.0,0.0,0.0,0.0,0.0,0.0,0.0,-2.1105,0.0,-2.2911,0.0,-2.5034,-2.5159,-2.5285,-2.5561,-2.6424,-2.6927,-2.6876,-2.7404,-2.7821,-2.8072,-2.8373,-2.8699,-2.9001,-2.9051,-2.9026,-2.9051,-2.9302,-2.9679,-3.0131,-2.9754,-2.9327,-2.9101,-2.9051,-2.895,-2.8562,-2.8286,-2.8197,-2.8473,-2.8323,-2.8222,-2.8499,-2.8323,-2.8047,-2.7795,-2.7544,-2.7193,-2.664,-2.6113,-2.5611,-2.5485,-2.5988,-2.644,-2.6264,-2.644,-2.6483,-2.5585,-2.5024,-2.4449,-2.3915,-2.346,-2.3634,-2.3541,-2.322,-2.2632,-2.2178,-2.1844,-2.1336,-2.1109,-2.1109,-2.1109,-2.1109,-2.1109,-2.1109,-2.0975,-2.0735,-2.0655,-2.0347,-1.9853,-1.9773,-1.973,-1.9764,-2.0973,-2.242,-2.4083,-2.4489,-2.5451,-2.689,-2.6071,-2.5644,-2.5674,-2.5352,-2.5293,-2.5499,-2.4758,-2.4219,-2.3789,-2.3418,-2.314,-2.3003,-2.2539,-2.2051,-2.1562,-2.0801,-2.037,-2.0331,-1.9646,-1.9043,-1.8617,-1.8266,-1.791,0.0,-1.7578,0.0,0.0,0.0,0.0,0.0,0.0,0.0,0.0,-2.0696,-2.1288,-2.3565,-2.349,-2.3898,-2.536,-2.5561,-2.5586,-2.5611,-2.6223,-2.6801,-2.7253,-2.7379,-2.757,-2.8047,-2.8122,-2.8122,-2.8147,-2.8122,-2.8122,-2.8197,-2.8222,-2.8398,-2.8612,-2.8762,-2.8637,-2.8147,-2.8047,-2.8047,-2.7996,-2.7921,-2.7871,-2.7946,-2.7871,-2.7896,-2.7846,-2.777,-2.757,-2.7042,-2.6575,-2.6122,-2.5586,-2.5084,-2.4725,-2.47,-2.47,-2.47,-2.4808,-2.4901,-2.5007,-2.5398,-2.5024,-2.4449,-2.4142,-2.4008,-2.3594,-2.3233,-2.2913,-2.2325,-2.1764,-2.1269,-2.1162,-2.1109,-2.1109,-2.1109,-2.1109,-2.1109,-2.1109,-2.1082,-2.1002,-2.0535,-2.0254,-2.012,-1.9666,-2.0095,-2.1145,-2.1472,-2.2983,-2.5663,-2.4518,-2.5004,-2.691,-2.5624,-2.5213,-2.5664,0.0,0.0,0.0,-2.4492,-2.4219,-2.3809,-2.3711,-2.334,-2.2637,-2.1523,0.0,-1.9805,-1.9277,-1.8968,-1.8968,-1.8812,0.0,0.0,0.0,0.0,0.0,0.0,0.0,0.0,0.0,0.0,0.0,-1.9041,-2.0142,-2.22,-2.3271,-2.4213,-2.5104,-2.4761,-2.46,-2.4933,-2.536,-2.5586,-2.5636,-2.6515,-2.7203,-2.7293,-2.767,-2.7996,-2.8097,-2.8097,-2.8097,-2.8072,-2.8122,-2.8097,-2.8047,-2.8097,-2.7971,-2.7645,-2.7996,-2.8197,-2.8097,-2.7695,-2.7444,-2.748,-2.7128,-2.7052,-2.7243,-2.7077,-2.6851,-2.6801,-2.6414,-2.5937,-2.546,-2.5209,-2.5109,-2.4958,-2.4531,-2.4155,-2.4155,-2.3772,-2.3572,-2.4054,-2.4506,-2.4714,-2.5184,0.0,-2.4168,-2.3821,0.0,-2.322,-2.2926,-2.2619,-2.2178,-2.1657,-2.1109,-2.1109,-2.1109,-2.1109,-2.1109,-2.1109,-2.1096,-2.0962,-2.0815,-2.0655,-2.0227,-1.9947,-1.98,-1.9506,-2.0141,-2.1586,-2.2379,-2.3861,-2.5973,-2.5847,-2.6178,-2.6961,-2.6066,-2.5648,-2.5713,-2.5508,-2.5078,-2.4414,-2.4219,-2.3906,-2.3452,-2.3477,-2.3262,-2.2769,0.0,0.0,0.0,0.0,0.0,0.0,0.0,0.0,0.0,0.0,0.0,-1.8086,-1.8613,-1.8867,-1.8617,-1.8617,-1.875,-1.8945,-1.9809,-2.0713,-2.1609,-2.2691,-2.3795,-2.4774,-2.4637,-2.4813,-2.5578,-2.5896,-2.6172,-2.6414,-2.6751,-2.7002,-2.7243,-2.7268,-2.7293,-2.7329,-2.7329,-2.7293,-2.7293,-2.7293,-2.7329,-2.7329,-2.7293,-2.7218,-2.7027,-2.7344,-2.762,-2.7379,-2.7128,-2.6927,-2.6876,-2.6725,-2.6549,-2.6801,-2.6675,-2.6399,-2.6122,-2.5787,-2.5435,-2.4901,-2.4575,-2.4399,-2.4381,-2.3923,-2.3547,-2.3521,-2.3296,-2.3195,-2.3496,-2.3772,-2.4053,-2.4957,-2.4182,-2.3888,-2.346,-2.2939,-2.2886,-2.2672,-2.2325,0.0,0.0,0.0,-2.1109,-2.1109,-2.1109,-2.1109,-2.1109,-2.1082,-2.0815,-2.0548,-2.0294,-1.996,-1.9679,-1.9452,-1.9457,-2.0199,-2.1643,-2.3095,-2.4599,-2.6082,-2.7275,-2.7559,-2.7129,-2.6777,-2.6367,-2.5859,-2.5332,-2.4883,-2.4531,-2.4121,-2.373,-2.3335,-2.3237,-2.3179,-2.3101,-2.2324,-2.168,-2.119,-2.0117,-1.9549,-1.9512,-1.9102,-1.8831,-1.8831,-1.9141,-1.8965,-1.832,-1.8555,-1.8715,-1.8715,-1.8403,-1.8574,-1.9355,-2.0463,-2.1016,-2.0749,-2.1642,-2.2682,-2.3956,-2.4212,-2.4878,-2.6114,-2.6405,-2.6606,-2.6856,-2.6671,-2.6606,-2.6841,-2.6706,-2.6549,-2.6499,-2.6549,-2.6499,-2.6524,-2.6549,-2.6499,-2.6499,-2.6575,-2.6499,-2.6549,-2.6901,-2.7027,-2.6675,-2.66,-2.6524,-2.6499,-2.6499,-2.6499,-2.6524,-2.6424,-2.6147,-2.5636,-2.546,-2.5209,-2.4499,-2.418,-2.4004,-2.3853,-2.3446,-2.312,-2.3095,-2.3095,-2.318,-2.3275,-2.3305,-2.3535,-2.477,-2.4182,-2.3888,-2.3567,-2.3247,-2.2979,-2.2552,-2.2031,-2.1737,-2.1416,-2.1109,-2.1109,-2.1109,-2.1109,-2.1109,-2.1109,-2.1096,-2.0802,-2.0655,0.0,-2.0054,-1.9773,-1.9733,-1.9551,-2.0141,-2.1643,-2.3095,-2.4599,-2.61,-2.7561,-2.7988,-2.7617,-2.7519,-2.707,-2.6289,-2.5536,-2.5086,-2.5028,-2.4551,-2.4297,-2.4238,-2.3887,-2.3516,-2.3188,-2.2386,-2.168,-2.121,-2.0684,-2.0429,-2.041,-1.998,-1.9709,-1.9727,-1.9453,-1.9238,-1.9121,-1.916,-1.9199,-1.9199,-1.9141,-1.9316,-1.9766,-1.9995,-2.0423,-2.1246,-2.2499,-2.3383,-2.3632,-2.4317,-2.4957,-2.5264,-2.599,-2.6154,-2.5597,-2.6039,-2.6213,-2.5586,-2.6099,-2.6499,-2.6499,-2.6499,-2.6499,-2.6499,-2.6499,-2.6499,-2.6499,-2.6499,-2.6499,-2.6499,-2.6549,-2.6575,-2.6524,-2.6499,-2.6499,-2.6499,-2.6499,-2.6474,-2.6499,-2.6072,-2.5586,-2.5008,-2.4933,-2.4582,-2.3547,-2.3697,-2.3753,-2.3371,-2.317,-2.3095,-2.3095,-2.3095,-2.3305,-2.3897,-2.4073,-2.4015,-2.4502,-2.3955,-2.3661,-2.3354,-2.3033,-2.2592,-2.2245,-2.1951,-2.151,-2.1243,-2.1109,-2.1109,-2.1109,-2.1109,-2.1109,-2.1015,-2.0855,-2.0561,-2.0347,-2.0174,-1.976,-1.9559,-1.9559,-1.9484,-2.0155,-2.1643,-2.3095,-2.4599,-2.61,-2.7565,-2.8086,-2.7728,-2.7441,-2.6992,-2.6406,-2.5977,-2.5664,-2.543,-2.4766,-2.4297,-2.4082,-2.3887,-2.3594,-2.3164,-2.2539,-2.2148,-2.1892,-2.1289,-2.0937,-2.0918,-2.0508,-2.0176,-1.9922,-1.9961,-1.9803,-1.9372,-1.9512,-1.9629,-1.9629,-1.9844,-1.9999,-1.9884,-2.0137,-2.0483,-2.0939,-2.1556,-2.2151,-2.2654,-2.3576,-2.442,-2.4945,-2.5406,-2.5711,-2.5816,-2.5781,-2.5746,-2.5886,-2.6164,-2.6499,-2.6499,-2.6499,-2.6499,-2.6499,-2.6499,-2.6499,-2.6499,-2.6499,-2.6499,-2.6499,-2.6499,-2.6499,-2.6499,-2.6499,-2.6499,-2.6499,-2.6499,-2.6373,-2.6097,-2.5787,-2.5259,-2.4582,-2.4381,-2.4029,-2.3296,-2.3346,-2.3371,-2.312,-2.3095,-2.3095,-2.3095,-2.3095,-2.3424,-2.4073,-2.4595,-2.4879,-2.4302,-2.3754,-2.3527,-2.3207,-2.2887,-2.2231,-2.1991,-2.1924,-2.1363,-2.1109,-2.1109,-2.1109,-2.1069,-2.1015,-2.1015,-2.0855,-2.0561,-2.0267,-2.0013,-1.9786,-1.9506,-1.943,-1.943,-1.943,-1.9982,-2.1259,-2.2927,-2.4433,-2.5663,-2.7403,-2.8125,-2.7793,-2.7383,-2.7012,-2.668,-2.6484,-2.623,-2.5859,-2.5117,-2.4512,-2.4082,-2.3887,-2.3633,-2.3257,-2.2828,-2.2656,-2.2574,-2.1892,-2.1483,-2.1463,-2.1094,-2.0703,-2.0254,-2.0527,-2.041,-1.9707,-1.9883,-2.0059,-2.0078,-2.0371,-2.0468,-2.0098,-2.041,-2.0605,-2.0605,-2.0605,-2.0895,-2.1659,-2.2601,-2.3489,-2.4108,-2.4528,-2.4886,-2.5417,-2.5028,-2.4921,-2.5652,-2.6025,-2.6267,-2.643,-2.6499,-2.6499,-2.6499,-2.6499,-2.6499,-2.6499,-2.6499,-2.6499,-2.6499,-2.6499,-2.6499,-2.6499,-2.6499,-2.6499,-2.6499,-2.6499,-2.6323,-2.5837,-2.5561,-2.5084,-2.4431,-2.4155,-2.3778,-2.3296,-2.3246,-2.3271,-2.317,-2.3275,-2.3395,-2.3484,-2.3607,-2.3989,-2.4794,-2.5467,-2.5933,-2.4289,-2.3808,-2.3728,-2.3394,-2.2874,-2.2231,-2.1977,-2.1897,-2.1363,-2.1109,-2.1109,-2.1109,-2.0962,-2.0735,-2.0722,-2.0575,-2.0267,-1.9973,-1.9826,-1.976,-1.9506,-1.943,-1.9417,-1.943,-1.9475,-2.004,-2.2548,-2.4044,-2.4433,-2.7006,-2.8262,-2.8184,-2.7812,-2.763,-2.7513,-2.6777,-2.6387,-2.6328,-2.5859,-2.5391,-2.4988,-2.4199,-2.3769,-2.373,-2.3276,-2.3042,-2.3003,-2.2637,-2.2383,-2.2363,-2.1992,-2.1562,-2.1132,-2.1112,-2.0957,-2.0527,-2.0527,-2.0546,-2.0546,-2.0566,-2.0586,-2.0546,-2.0566,-2.0605,-2.0605,-2.0605,-2.0644,-2.0934,-2.1621,-2.2264,-2.2339,-2.3099,-2.3415,-2.3025,-2.3342,-2.3708,-2.4036,-2.46,-2.5476,-2.643,-2.6499,-2.6499,-2.6499,-2.6499,-2.6499,-2.6499,-2.6499,-2.6499,-2.6499,-2.6499,-2.6499,-2.6499,-2.6499,-2.6474,-2.6449,-2.6499,-2.6323,-2.6248,-2.5536,-2.4933,-2.4575,-2.423,-2.3803,-2.3296,-2.3471,-2.3577,-2.3517,-2.3607,-2.4131,-2.425,-2.4652,-2.5384,-2.6149,-2.6733,-2.7019,-2.4142,-2.3754,-2.3581,-2.3153,-2.2579,-2.2164,-2.1884,-2.1683,-2.1296,-2.1109,-2.1109,-2.1109,-2.0949,-2.0681,-2.0668,-2.0428,-1.9973,-1.9853,-1.9706,-1.9546,-1.9412,-1.943,-1.9475,-2.0314,-2.0702,-2.0988,-2.3766,-2.5151,-2.5516,-2.7276,-2.8301,-2.8281,-2.8105,-2.791,-2.7708,-2.7376,-2.7012,-2.6758,-2.6328,-2.6035,-2.5781,-2.5,-2.4297,-2.3828,-2.3613,-2.3398,-2.312,-2.2925,-2.2847,-2.2828,-2.2672,-2.2441,-2.197,-2.1758,-2.1543,-2.1348,-2.1094,-2.084,-2.0625,-2.0605,-2.0605,-2.0605,-2.0605,-2.0605,-2.0605,-2.0605,-2.0605,-2.0722,-2.1451,-2.2,-2.2038,-2.2392,-2.2675,-2.2765,-2.2765,-2.3025,-2.4289,-2.4707,-2.537,-2.6302,-2.6499,-2.6499,-2.6499,-2.6499,-2.6499,-2.6499,-2.6499,-2.6499,-2.6499,-2.6499,-2.6499,-2.6499,-2.6499,-2.6323,-2.6122,-2.5971,-2.5896,-2.5586,-2.541,-2.5184,-2.4481,-2.4205,-2.3803,-2.3221,-2.3432,-2.3725,-2.3861,-2.4015,-2.4421,-2.4851,-2.5494,-2.6176,-2.6443,-2.71,-2.7331,-2.4102,-2.3728,-2.3273,-2.2819,-2.2392,-2.2017,-2.1815,-2.1601,-2.1243,-2.1109,-2.1109,-2.1109,-2.0895,-2.0588,-2.0561,-2.0241,-1.9733,-1.9679,-1.9573,-1.943,-1.943,-1.943,-1.9533,-2.0931,-2.1586,-2.2081,-2.4654,-2.6282,-2.6735,-2.7745,-2.8301,-2.8301,-2.8301,-2.8144,-2.7904,-2.7806,-2.7519,-2.7168,-2.668,-2.6387,-2.6269,-2.5644,-2.4844,-2.4043,-2.3848,-2.3594,-2.312,-2.3101,-2.3101,-2.3101,-2.3101,-2.2906,-2.2539,-2.2227,-2.1953,-2.1719,-2.1385,-2.1035,-2.0644,-2.0605,-2.0605,-2.0605,-2.0605,-2.0605,-2.0605,-2.0605,-2.0605,-2.0644,-2.1221,-2.1603,-2.1642,-2.1621,-2.1962,-2.2563,-2.2,-2.2451,-2.4217,-2.46,-2.5063,-2.6233,-2.6499,-2.6499,-2.6499,-2.6499,-2.6499,-2.6499,-2.6499,-2.6499,-2.6499,-2.6499,-2.6499,-2.6474,-2.6373,-2.6172,-2.5862,-2.5937,-2.5636,-2.546,-2.5561,-2.5285,-2.4506,-2.4305,-2.4171,-2.3917,-2.3603,-2.375,-2.4452,-2.4738,-2.5161,-2.5823,-2.6388,-2.6733,-2.6864,-2.7331,-2.7509,-2.4289,-2.3661,-2.2832,-2.2458,-2.2365,-2.1817,-2.1641,-2.1496,-2.1229,-2.1109,-2.1109,-2.1109,-2.0788,-2.0281,-2.0281,-1.9947,-1.9511,-1.9412,-1.9457,-1.943,-1.943,-1.943,-1.9533,-2.0859,-2.1643,-2.2024,-2.4693,-2.6771,-2.8067,-2.8228,-2.8301,-2.8301,-2.8301,-2.8281,-2.8184,-2.7871,-2.7676,-2.7611,-2.6875,-2.6426,-2.6367,-2.5957,-2.5245,-2.4492,-2.4004,-2.3613,-2.3179,-2.3101,-2.3101,-2.3101,-2.3101,-2.2906,-2.2578,-2.25,-2.2148,-2.1366,-2.1229,-2.1055,-2.0683,-2.0605,-2.0605,-2.0605,-2.0605,-2.0605,-2.0605,-2.0605,-2.0605,-2.0605,-2.0722,-2.0741,-2.0857,-2.0895,-2.0857,-2.1011,-2.0857,-2.1718,-2.343,-2.3891,-2.4541,-2.6,-2.6499,-2.6499,-2.6499,-2.6499,-2.6499,-2.6499,-2.6499,-2.6449,-2.6424,-2.6449,-2.6474,-2.6348,-2.6122,-2.5871,-2.6298,-2.6072,-2.6147,-2.5971,-2.546,-2.546,-2.5184,-2.4872,-2.4725,-2.4606,-2.4393,-2.4565,-2.5245,-2.585,-2.6496,-2.6967,-2.7122,-2.7382,-2.728,-2.7458,-2.7585,-2.3728,-2.3153,-2.2632,-2.2205,-2.1844,-2.1695,-2.1521,-2.1269,-2.1162,-2.1109,-2.1109,-2.1109,-2.0788,-2.018,-2.018,-1.992,-1.9457,-1.943,-1.943,-1.943,-1.943,-1.943,-1.9533,-2.0916,-2.2153,-2.3263,-2.5096,-2.6825,-2.8121,-2.8301,-2.8301,-2.8301,-2.8301,-2.8301,-2.8262,-2.8144,-2.8066,-2.8008,-2.748,-2.7207,-2.7109,-2.6523,-2.5859,-2.5226,-2.457,-2.3984,-2.3574,-2.3237,-2.3101,-2.3101,-2.3101,-2.3042,-2.2886,-2.2867,-2.236,-2.1385,-2.1504,-2.1328,-2.0742,-2.0605,-2.0605,-2.0605,-2.0605,-2.0605,-2.0605,-2.0605,-2.0605,-2.0605,-2.0605,-2.0799,-2.1221,-2.0972,-2.0818,-2.1375,-2.1527,-2.2264,-2.3891,-2.4492,-2.4992,-2.6164,-2.6499,-2.6499,-2.6499,-2.6499,-2.6499,-2.6499,-2.6499,-2.6348,-2.6097,-2.6223,-2.6399,-2.6097,-2.6097,-2.6248,-2.6399,-2.5795,-2.5385,-2.536,-2.5134,-2.489,-2.4613,-2.4935,-2.4875,-2.4928,-2.487,-2.5328,-2.5932,-2.6575,-2.7255,-2.7382,-2.7585,-2.7585,-2.7585,-2.7585,-2.7585,-2.3721,-2.2767,-2.2298,-2.1924,-2.1628,-2.1507,-2.1296,-2.1109,-2.1109,-2.1109,-2.1109,-2.1109,-2.0788,-2.0294,-2.018,-1.992,-1.9457,-1.943,-1.943,-1.943,-1.943,-1.943,-1.9707,-2.1373,-2.2814,-2.3989,-2.5882,-2.7384,-2.8174,-2.8301,-2.8301,-2.8301,-2.8301,-2.8301,-2.8301,-2.8301,-2.8301,-2.8223,-2.7943,-2.7598,-2.7402,-2.6758,-2.6191,-2.5654,-2.5,-2.4355,-2.3828,-2.3379,-2.3101,-2.3101,-2.3101,-2.3101,-2.3101,-2.3101,-2.2594,-2.1619,-2.1719,-2.1544,-2.0762,-2.0605,-2.0605,-2.0605,-2.0605,-2.0605,-2.0605,-2.0605,-2.0605,-2.0605,-2.0605,-2.0972,-2.1545,-2.1145,-2.1011,-2.1849,-2.2301,-2.2988,-2.4312,-2.4779,-2.5406,-2.6233,-2.6499,-2.6499,-2.6499,-2.6499,-2.6499,-2.6499,-2.6499,-2.6298,-2.6072,-2.6197,-2.6399,-2.6021,-2.6248,-2.6399,-2.6399,-2.5837,-2.5435,-2.5335,-2.5134,-2.4739,-2.46,-2.4918,-2.5169,-2.5231,-2.555,-2.6096,-2.6654,-2.7229,-2.7458,-2.756,-2.7585,-2.7585,-2.7585,-2.7585,-2.7585,-2.4199,-2.2472,-2.1856,-2.1641,-2.1483,-2.1256,-2.1122,-2.1109,-2.1109,-2.1109,-2.1109,-2.1109,-2.0775,-2.0321,-2.018,-1.992,-1.9497,-1.943,-1.943,-1.943,-1.943,-1.9475,-1.9764,-2.2153,-2.3599,-2.4156,-2.6844,-2.8174,-2.8301,-2.8301,-2.8301,-2.8301,-2.8301,-2.8301,-2.8301,-2.8301,-2.8301,-2.8203,-2.7891,-2.748,-2.7031,-2.6641,-2.6211,-2.5781,-2.5293,-2.4695,-2.3867,-2.3374,-2.314,-2.3101,-2.3101,-2.3101,-2.3101,-2.3101,-2.2711,-2.2051,-2.1894,-2.1486,-2.0781,-2.0625,-2.0605,-2.0605,-2.0605,-2.0605,-2.0605,-2.0605,-2.0605,-2.0605,-2.0644,-2.1011,-2.1735,-2.1298,-2.1126,-2.1924,-2.2861,-2.3452,-2.3818,-2.4492,-2.5406,-2.6267,-2.6499,-2.6499,-2.6499,-2.6499,-2.6499,-2.6499,-2.6499,-2.6424,-2.6273,-2.6373,-2.6474,-2.6399,-2.6424,-2.6474,-2.6298,-2.6013,-2.5787,-2.5561,-2.5343,-2.5023,-2.4946,-2.5131,-2.5499,-2.5659,-2.6207,-2.6736,-2.6993,-2.7509,-2.7509,-2.7585,-2.7585,-2.7585,-2.7585,-2.7585,-2.7585,-2.3622,-2.1882,-2.1695,-2.143,-2.1256,-2.1149,-2.1109,-2.1109,-2.1109,-2.1109,-2.1109,-2.1109,-2.0788,-2.0334,-2.0227,-1.992,-1.9457,-1.943,-1.943,-1.943,-1.943,-1.9924,-2.0859,-2.187,-2.3375,-2.5371,-2.733,-2.8301,-2.8301,-2.8301,-2.8301,-2.8301,-2.8301,-2.8301,-2.8301,-2.8301,-2.8301,-2.8242,-2.7891,-2.763,-2.7402,-2.6758,-2.6309,-2.6133,-2.5469,-2.4785,-2.4238,-2.3809,-2.3437,-2.312,-2.3101,-2.3101,-2.3101,-2.3101,-2.2828,-2.2383,-2.2031,-2.166,-2.1094,-2.0762,-2.0605,-2.0605,-2.0605,-2.0605,-2.0605,-2.0605,-2.0605,-2.0605,-2.0644,-2.1203,-2.2451,-2.2151,-2.2,-2.2936,-2.332,-2.3854,-2.4528,-2.5406,-2.6094,-2.6371,-2.6499,-2.6499,-2.6499,-2.6499,-2.6499,-2.6499,-2.6499,-2.6399,-2.6072,-2.6323,-2.6273,-2.6021,-2.6223,-2.6474,-2.6348,-2.6223,-2.5988,-2.5635,-2.5347,-2.5307,-2.5261,-2.5424,-2.5767,-2.6243,-2.6796,-2.7152,-2.7458,-2.7585,-2.7585,-2.7585,-2.7585,-2.7585,-2.7585,-2.7585,-2.7585,-2.3725,-2.1454,-2.139,-2.1283,-2.1109,-2.1109,-2.1109,-2.1109,-2.1109,-2.1109,-2.1109,-2.1109,-2.0855,-2.0468,-2.0401,-2.0067,-1.9559,-1.9533,-1.9466,-1.9444,-1.943,-1.9982,-2.0973,-2.2024,-2.3989,-2.6554,-2.7833,-2.8301,-2.8301,-2.8301,-2.8301,-2.8301,-2.8301,-2.8301,-2.8301,-2.8301,-2.8301,-2.8242,-2.8027,-2.7754,-2.7383,-2.6914,-2.6465,-2.6113,-2.5605,-2.5019,-2.4473,-2.416,-2.375,-2.3218,-2.3101,-2.3101,-2.3101,-2.3081,-2.2906,-2.2496,-2.2109,-2.168,-2.1229,-2.082,-2.0605,-2.0605,-2.0605,-2.0605,-2.0605,-2.0605,-2.0605,-2.0605,-2.0972,-2.1773,-2.301,-2.2579,-2.2504,-2.3379,-2.3854,-2.4469,-2.5406,-2.6094,-2.644,-2.6499,-2.6499,-2.6499,-2.6499,-2.6499,-2.6499,-2.6499,-2.6499,-2.6449,-2.6122,-2.6298,-2.6147,-2.6072,-2.6298,-2.6449,-2.6474,-2.6373,-2.6197,-2.5752,-2.5313,-2.5376,-2.5455,-2.5766,-2.6127,-2.6693,-2.7229,-2.7331,-2.7585,-2.7585,-2.7585,-2.7585,-2.7585,-2.7585,-2.7585,-2.7585,-2.7585,-2.4454,-2.1362,-2.1109,-2.1122,-2.1109,-2.1109,-2.1109,-2.1109,-2.1109,-2.1109,-2.1109,-2.1109,-2.0935,-2.0708,-2.0628,-2.0321,-1.9893,-1.976,-1.9639,-1.9466,-1.9444,-1.9707,-2.0587,-2.2886,-2.5388,-2.778,-2.8228,-2.8301,-2.8301,-2.8301,-2.8301,-2.8301,-2.8301,-2.8301,-2.8301,-2.8301,-2.8301,-2.8281,-2.8223,-2.7793,-2.7109,-2.6953,-2.6582,-2.5771,-2.5654,-2.5265,-2.4648,-2.4336,-2.3881,-2.3218,-2.3101,-2.3101,-2.3101,-2.3101,-2.2925,-2.2617,-2.2168,-2.1777,-2.1309,-2.0918,-2.0664,-2.0605,-2.0605,-2.0605,-2.0605,-2.0605,-2.0605,-2.0644,-2.1221,-2.2151,-2.284,-2.2414,-2.2376,-2.3268,-2.4,-2.4992,-2.6164,-2.6371,-2.6499,-2.6499,-2.6499,-2.6499,-2.6499,-2.6499,-2.6499,-2.6499,-2.6499,-2.6449,-2.6424,-2.6424,-2.6474,-2.6474,-2.6449,-2.6449,-2.6499,-2.6474,-2.6298,-2.6147,-2.5717,-2.5678,-2.5681,-2.5995,-2.6522,-2.71,-2.7408,-2.7534,-2.7585,-2.7585,-2.7585,-2.7585,-2.7585,-2.7585,-2.7585,-2.7585,-2.7585,-2.4919,-2.2827,-2.1601,-2.1109,-2.1109,-2.1109,-2.1109,-2.1109,-2.1109,-2.1109,-2.1109,-2.1109,-2.0962,-2.0695,-2.0681,-2.0468,-2.0134,-1.9907,-1.9786,-1.9666,-1.9452,-2.0773,-2.2605,-2.4488,-2.6391,-2.8067,-2.8301,-2.8301,-2.8301,-2.8301,-2.8301,-2.8301,-2.8301,-2.8301,-2.8301,-2.8301,-2.8301,-2.8242,-2.7969,-2.7598,-2.709,-2.6719,-2.6309,-2.5771,-2.5674,-2.5449,-2.4883,-2.4277,-2.373,-2.3159,-2.3101,-2.3101,-2.3101,-2.3101,-2.3042,-2.2867,-2.2559,-2.2148,-2.1719,-2.1289,-2.0918,-2.0644,-2.0605,-2.0605,-2.0605,-2.0605,-2.0605,-2.0644,-2.0895,-2.1413,-2.2038,-2.1583,-2.1603,-2.228,-2.3305,-2.4312,-2.53,-2.606,-2.6499,-2.6499,-2.6499,-2.6499,-2.6499,-2.6499,-2.6499,-2.6499,-2.6499,-2.6499,-2.6499,-2.6499,-2.6499,-2.6499,-2.6474,-2.6474,-2.6499,-2.6499,-2.6467,-2.6468,-2.6259,-2.6106,-2.6034,-2.605,-2.6691,-2.7382,-2.7458,-2.7585,-2.7585,-2.7585,-2.7585,-2.7585,-2.7585,-2.7585,-2.7585,-2.7585,-2.7585,-2.5696,-2.3512,-2.2529,-2.1727,-2.1109,-2.1109,-2.1109,-2.1109,-2.1109,-2.1109,-2.1109,-2.1109,-2.1015,-2.0869,-2.0855,-2.0615,-2.0241,-2.0054,-1.9853,-1.9703,-2.0167,-2.1601,-2.3543,-2.4875,-2.6209,-2.8121,-2.8301,-2.8301,-2.8301,-2.8301,-2.8301,-2.8301,-2.8301,-2.8301,-2.8301,-2.8301,-2.8301,-2.8262,-2.8027,-2.7656,-2.7031,-2.6797,-2.6328,-2.583,-2.5654,-2.5469,-2.4805,-2.4141,-2.3594,-2.3198,-2.3101,-2.3101,-2.3101,-2.3101,-2.3101,-2.3081,-2.2754,-2.2324,-2.1914,-2.1484,-2.1035,-2.0684,-2.0605,-2.0605,-2.0605,-2.0605,-2.0605,-2.0605,-2.0934,-2.1451,-2.1735,-2.1469,-2.1298,-2.1527,-2.2301,-2.3452,-2.4814,-2.5476,-2.606,-2.6302,-2.6499,-2.6499,-2.6499,-2.6499,-2.6499,-2.6499,-2.6499,-2.6499,-2.6499,-2.6499,-2.6499,-2.6499,-2.6424,-2.6399,-2.6223,-2.6147,-2.5794,-2.5841,-2.6112,-2.6045,-2.6469,-2.6378,-2.6905,-2.7484,-2.7534,-2.7585,-2.7585,-2.7585,-2.7585,-2.7585,-2.7585,-2.7585,-2.7585,-2.7585,-2.7585,-2.6608,-2.3869,-2.3698,-2.2654,-2.1235,-2.1109,-2.1109,-2.1109,-2.1109,-2.1109,-2.1109,-2.1109,-2.1082,-2.1109,-2.1042,-2.0802,-2.0294,-2.0227,-2.0077,-2.0219,-2.0988,-2.2435,-2.4156,-2.4488,-2.5991,-2.796,-2.8301,-2.8301,-2.8301,-2.8301,-2.8301,-2.8301,-2.8301,-2.8301,-2.8301,-2.8301,-2.8301,-2.8301,-2.8262,-2.7793,-2.7168,-2.6934,-2.6543,-2.581,-2.5674,-2.5245,-2.4629,-2.4062,-2.3652,-2.3101,-2.3101,-2.3101,-2.3101,-2.3101,-2.3101,-2.3062,-2.2769,-2.2422,-2.1934,-2.1543,-2.1094,-2.0703,-2.0605,-2.0605,-2.0605,-2.0605,-2.0605,-2.0605,-2.1375,-2.1603,-2.1659,-2.1735,-2.1375,-2.1011,-2.1489,-2.275,-2.4312,-2.4921,-2.537,-2.6302,-2.6499,-2.6499,-2.6499,-2.6499,-2.6499,-2.6499,-2.6499,-2.6499,-2.6499,-2.6499,-2.6499,-2.6499,-2.6399,-2.6298,-2.6021,-2.5711,-2.5246,-2.4963,-2.538,-2.5734,-2.6791,-2.7003,-2.731,-2.7585,-2.7585,-2.7585,-2.7585,-2.7585,-2.7585,-2.7585,-2.7585,-2.7585,-2.7585,-2.7585,-2.7585,-2.7254,-2.5375,-2.4116,-2.2654,-2.1222,-2.1109,-2.1109,-2.1109,-2.1109,-2.1109,-2.1109,-2.1109,-2.1109,-2.1109,-2.1096,-2.0909,-2.0535,-2.0429,-2.0488,-2.1203,-2.1358,-2.3207,-2.5041,-2.5553,-2.6608,-2.8014,-2.8301,-2.8301,-2.8301,-2.8301,-2.8301,-2.8301,-2.8301,-2.8301,-2.8301,-2.8301,-2.8301,-2.8301,-2.8301,-2.7871,-2.7226,-2.7012,-2.6602,-2.5771,-2.5674,-2.5226,-2.4609,-2.4316,-2.3861,-2.3296,-2.3101,-2.3101,-2.3101,-2.3101,-2.3101,-2.3081,-2.3003,-2.2676,-2.2031,-2.1738,-2.1387,-2.0723,-2.0605,-2.0605,-2.0605,-2.0605,-2.0605,-2.0605,-2.0779,-2.1011,-2.1011,-2.0934,-2.0818,-2.076,-2.0857,-2.1756,-2.3452,-2.4528,-2.53,-2.6164,-2.6499,-2.6499,-2.6499,-2.6499,-2.6499,-2.6499,-2.6499,-2.6499,-2.6499,-2.6499,-2.6499,-2.6499,-2.6449,-2.6323,-2.5946,-2.5519,-2.4886,-2.4555,-2.485,-2.5282,-2.6322,-2.7203,-2.7331,-2.7484,-2.7585,-2.7585,-2.7585,-2.7585,-2.7585,-2.7585,-2.7585,-2.7585,-2.7585,-2.7585,-2.7585,-2.8605,-2.6953,-2.5375,-2.3807,-2.2278,-2.1488,-2.1109,-2.1109,-2.1109,-2.1109,-2.1109,-2.1109,-2.1109,-2.1109,-2.1096,-2.0949,-2.0862,-2.1018,-2.1613,-2.2611,-2.3303,-2.4582,-2.5882,-2.6825,-2.7618,-2.8247,-2.8301,-2.8301,-2.8301,-2.8301,-2.8301,-2.8301,-2.8301,-2.8301,-2.8301,-2.8301,-2.8301,-2.8301,-2.8281,-2.7969,-2.7422,-2.709,-2.6602,-2.5869,-2.5654,-2.5284,-2.4512,-2.4414,-2.3945,-2.3335,-2.3101,-2.3101,-2.3101,-2.3101,-2.3101,-2.3101,-2.3081,-2.2734,-2.2129,-2.1836,-2.1504,-2.0683,-2.0605,-2.0605,-2.0605,-2.0605,-2.0605,-2.0605,-2.0605,-2.0605,-2.0605,-2.0605,-2.0605,-2.0605,-2.0605,-2.1451,-2.3084,-2.4,-2.4921,-2.6025,-2.6499,-2.6499,-2.6499,-2.6499,-2.6499,-2.6499,-2.6499,-2.6499,-2.6499,-2.6499,-2.6499,-2.6499,-2.6499,-2.6323,-2.5896,-2.5375,-2.4627,-2.4433,-2.4506,-2.4925,-2.5623,-2.6432,-2.7152,-2.7306,-2.7484,-2.7585,-2.7585,-2.7585,-2.7585,-2.7585,-2.7585,-2.7585,-2.7585,-2.7585,-2.7585,-2.9962,-2.823,-2.6651,-2.5085,-2.345,-2.1853,-2.1109,-2.1109,-2.1109,-2.1109,-2.1082,-2.1069,-2.1002,-2.1015,-2.0949,-2.0864,-2.1208,-2.1965,-2.2922,-2.4189,-2.5151,-2.5991,-2.6771,-2.7618,-2.8121,-2.8301,-2.8301,-2.8301,-2.8301,-2.8301,-2.8301,-2.8301,-2.8301,-2.8301,-2.8301,-2.8301,-2.8301,-2.8301,-2.8281,-2.8086,-2.7617,-2.7226,-2.6582,-2.5849,-2.5674,-2.5323,-2.4727,-2.4453,-2.4017,-2.3257,-2.314,-2.3101,-2.3101,-2.3101,-2.3101,-2.3101,-2.3101,-2.273,-2.2207,-2.1914,-2.1543,-2.0762,-2.0625,-2.0605,-2.0605,-2.0605,-2.0605,-2.0605,-2.0605,-2.0605,-2.0605,-2.0605,-2.0605,-2.0605,-2.0605,-2.1527,-2.2973,-2.3526,-2.4505,-2.6,-2.6499,-2.6499,-2.6499,-2.6499,-2.6499,-2.6499,-2.6499,-2.6499,-2.6499,-2.6474,-2.6474,-2.6474,-2.6499,-2.6021,-2.5536,-2.5066,-2.4375,-2.4019,-2.406,-2.4435,-2.4866,-2.5406,-2.6147,-2.71,-2.7357,-2.7458,-2.756,-2.7585,-2.7585,-2.7585,-2.7585,-2.7585,-2.7585,-2.7585,-2.7585,-2.9903,-2.8307,-2.6651,-2.5085,-2.3512,-2.1839,-2.1172,-2.1109,-2.1109,-2.1109,-2.1082,-2.0869,-2.0802,-2.0735,-2.0481,-2.0865,-2.2127,-2.3178,-2.4329,-2.5498,-2.6209,-2.6717,-2.7726,-2.8014,-2.8301,-2.8301,-2.8301,-2.8301,-2.8301,-2.8301,-2.8301,-2.8301,-2.8301,-2.8301,-2.8301,-2.8301,-2.8301,-2.8301,-2.8281,-2.8086,-2.7734,-2.7226,-2.6551,-2.5791,-2.5674,-2.5449,-2.5,-2.459,-2.418,-2.3711,-2.3296,-2.314,-2.3101,-2.3101,-2.3101,-2.3101,-2.3101,-2.2847,-2.2422,-2.2031,-2.166,-2.1172,-2.0781,-2.0625,-2.0605,-2.0605,-2.0605,-2.0605,-2.0605,-2.0605,-2.0605,-2.0605,-2.0605,-2.0605,-2.0722,-2.1375,-2.2936,-2.3635,-2.4325,-2.6129,-2.6405,-2.6499,-2.6499,-2.6499,-2.6499,-2.6499,-2.6499,-2.6499,-2.6499,-2.6449,-2.6424,-2.6449,-2.6499,-2.5787,-2.5109,-2.4607,-2.4035,-2.3583,-2.3552,-2.3765,-2.4142,-2.4385,-2.5077,-2.6183,-2.7003,-2.7331,-2.7433,-2.7433,-2.7357,-2.7174,-2.7357,-2.756,-2.7458,-2.7382,-2.7585,-3.047,-2.953,-2.7931,-2.6288,-2.4717,-2.3076,-2.1839,-2.1172,-2.1109,-2.1109,-2.1069,-2.0962,-2.0895,-2.1002,-2.1497,-2.2572,-2.4114,-2.4839,-2.5968,-2.7008,-2.7276,-2.7511,-2.8281,-2.8301,-2.8301,-2.8301,-2.8301,-2.8301,-2.8301,-2.8301,-2.8301,-2.8301,-2.8301,-2.8301,-2.8301,-2.8301,-2.8301,-2.8301,-2.8281,-2.8184,-2.791,-2.7363,-2.6582,-2.5927,-2.5654,-2.5508,-2.5117,-2.4922,-2.4434,-2.3906,-2.3594,-2.3359,-2.3159,-2.3101,-2.3101,-2.3101,-2.3081,-2.2969,-2.2539,-2.2109,-2.168,-2.125,-2.082,-2.0644,-2.0605,-2.0605,-2.0605,-2.0605,-2.0605,-2.0605,-2.0605,-2.0605,-2.0605,-2.0605,-2.0605,-2.1527,-2.2898,-2.3379,-2.4648,-2.6094,-2.6371,-2.6499,-2.6499,-2.6499,-2.6499,-2.6499,-2.6499,-2.6499,-2.6499,-2.6323,-2.6197,-2.6248,-2.6223,-2.5711,-2.5034,-2.4531,-2.4004,-2.3471,-2.3125,-2.3395,-2.3658,-2.4008,-2.4628,-2.551,-2.6188,-2.6965,-2.6893,-2.6762,-2.6759,-2.6811,-2.7071,-2.7255,-2.7203,-2.7229,-2.7382,-3.0898,-3.0762,-2.9098,-2.7512,-2.5863,-2.4301,-2.2591,-2.1285,-2.1109,-2.1109,-2.1096,-2.1092,-2.1177,-2.1832,-2.3112,-2.4687,-2.6457,-2.657,-2.7377,-2.791,-2.814,-2.8281,-2.8301,-2.8301,-2.8301,-2.8301,-2.8301,-2.8301,-2.8301,-2.8301,-2.8301,-2.8301,-2.8301,-2.8301,-2.8301,-2.8301,-2.8301,-2.8301,-2.8301,-2.8262,-2.7891,-2.7363,-2.6602,-2.5791,-2.5674,-2.5518,-2.5293,-2.5125,-2.4715,-2.4141,-2.3809,-2.3594,-2.3179,-2.3101,-2.3101,-2.3101,-2.3101,-2.2906,-2.2656,-2.2129,-2.1738,-2.1445,-2.0879,-2.0683,-2.0605,-2.0605,-2.0605,-2.0605,-2.0605,-2.0605,-2.0605,-2.0605,-2.0605,-2.0605,-2.0722,-2.128,-2.2787,-2.3745,-2.4541,-2.5616,-2.6198,-2.6499,-2.6499,-2.6499,-2.6499,-2.6499,-2.6499,-2.6499,-2.6424,-2.5937,-2.5812,-2.5887,-2.5812,-2.5511,-2.5034,-2.4575,-2.413,-2.3647,-2.3271,-2.3215,-2.3471,-2.3731,-2.4376,-2.4883,-2.5805,-2.6442,-2.6244,-2.6152,-2.6149,-2.6336,-2.6759,-2.6811,-2.6496,-2.6707,-2.7074,-3.0898,-3.0762,-2.9098,-2.7512,-2.5924,-2.4363,-2.2702,-2.1285,-2.1172,-2.1109,-2.1056,-2.1043,-2.174,-2.3172,-2.5136,-2.6084,-2.661,-2.7408,-2.8003,-2.8301,-2.8301,-2.8301,-2.8301,-2.8301,-2.8301,-2.8301,-2.8301,-2.8301,-2.8301,-2.8301,-2.8301,-2.8301,-2.8301,-2.8301,-2.8301,-2.8301,-2.8301,-2.8301,-2.8301,-2.7969,-2.7363,-2.7109,-2.6562,-2.5966,-2.5693,-2.5654,-2.5527,-2.5254,-2.4832,-2.4355,-2.3965,-2.3594,-2.3179,-2.3101,-2.3101,-2.3101,-2.3101,-2.3062,-2.2886,-2.2324,-2.1875,-2.1582,-2.1075,-2.0703,-2.0625,-2.0664,-2.0683,-2.0605,-2.0605,-2.0605,-2.0605,-2.0605,-2.0605,-2.0722,-2.0818,-2.1794,-2.3121,-2.3963,-2.4814,-2.5652,-2.6405,-2.6499,-2.6499,-2.6499,-2.6499,-2.6499,-2.6474,-2.6474,-2.6399,-2.6021,-2.5435,-2.546,-2.5611,-2.536,-2.5084,-2.4625,-2.4349,-2.3904,-2.3647,-2.3321,-2.3498,-2.3745,-2.368,-2.4309,-2.5263,-2.5977,-2.6025,-2.5902,-2.5688,-2.5772,-2.6133,-2.5965,-2.5605,-2.6069,-2.6968,-3.0898,-3.084,-3.0157,-2.8842,-2.7254,-2.5635,-2.4054,-2.2529,-2.1475,-2.1015,-2.1159,-2.2032,-2.346,-2.5227,-2.6367,-2.6848,-2.7352,-2.8014,-2.8301,-2.8301,-2.8301,-2.8301,-2.8301,-2.8301,-2.8301,-2.8301,-2.8301,-2.8301,-2.8301,-2.8301,-2.8301,-2.8301,-2.8301,-2.8301,-2.8301,-2.8301,-2.8301,-2.8301,-2.8242,-2.7969,-2.748,-2.7109,-2.6719,-2.6113,-2.5879,-2.5713,-2.5644,-2.5312,-2.4863,-2.4434,-2.4023,-2.3594,-2.3218,-2.3101,-2.3101,-2.3101,-2.3101,-2.3101,-2.2984,-2.2344,-2.2031,-2.1699,-2.1173,-2.0644,-2.0644,-2.0781,-2.0781,-2.0625,-2.0605,-2.0605,-2.0605,-2.0605,-2.0972,-2.1145,-2.1183,-2.2451,-2.3526,-2.4108,-2.4957,-2.5791,-2.6499,-2.6499,-2.6499,-2.6499,-2.6474,-2.6474,-2.6424,-2.6348,-2.6399,-2.6348,-2.5661,-2.4983,-2.5184,-2.5285,-2.5034,-2.4675,-2.4675,-2.4399,-2.4399,-2.4073,-2.3778,-2.3778,-2.3904,-2.3979,-2.4622,-2.5257,-2.5686,-2.5825,-2.5672,-2.5558,-2.5493,-2.5414,-2.5505,-2.6863,-2.7732,-3.0703,-3.0723,-3.084,-2.9962,-2.8349,-2.7073,-2.5388,-2.3392,-2.2798,-2.1984,-2.2091,-2.3672,-2.5718,-2.6778,-2.7156,-2.7768,-2.8194,-2.8301,-2.8301,-2.8301,-2.8301,-2.8301,-2.8301,-2.8301,-2.8301,-2.8301,-2.8301,-2.8301,-2.8301,-2.8301,-2.8301,-2.8301,-2.8301,-2.8301,-2.8301,-2.8301,-2.8301,-2.8301,-2.8301,-2.7988,-2.75,-2.7305,-2.6816,-2.6348,-2.6016,-2.5791,-2.5654,-2.5469,-2.5059,-2.4434,-2.418,-2.375,-2.3218,-2.3101,-2.3101,-2.3101,-2.3101,-2.3101,-2.2925,-2.2539,-2.2129,-2.1816,-2.1426,-2.0977,-2.0801,-2.1034,-2.1015,-2.0644,-2.0605,-2.0605,-2.0605,-2.0605,-2.0818,-2.1298,-2.1697,-2.3084,-2.424,-2.4636,-2.517,-2.599,-2.6499,-2.6499,-2.6499,-2.6499,-2.6474,-2.6474,-2.6373,-2.6223,-2.6147,-2.6172,-2.5418,-2.4506,-2.4632,-2.4833,-2.4757,-2.4632,-2.4707,-2.4908,-2.4933,-2.4757,-2.4356,-2.4381,-2.4556,-2.4582,-2.4531,-2.4994,-2.5794,-2.5756,-2.5655,-2.5222,-2.4927,-2.5232,-2.5788,-2.7214,-2.8397,-3.0254,-3.0273,-3.0703,-2.9962,-2.8468,-2.8307,-2.6285,-2.3779,-2.4942,-2.4421,-2.3626,-2.6107,-2.7017,-2.7227,-2.8144,-2.8633,-2.8301,-2.8301,-2.8301,-2.8301,-2.8301,-2.8301,-2.8301,-2.8301,-2.8301,-2.8301,-2.8301,-2.8301,-2.8262,-2.8203,-2.8242,-2.8301,-2.8301,-2.8301,-2.8301,-2.8301,-2.8301,-2.8301,-2.8301,-2.793,-2.7539,-2.7285,-2.6992,-2.6211,-2.6133,-2.6152,-2.5713,-2.5586,-2.5254,-2.4531,-2.4277,-2.3945,-2.3335,-2.314,-2.3101,-2.3101,-2.3101,-2.3101,-2.2945,-2.2715,-2.25,-2.2324,-2.2031,-2.1543,-2.125,-2.1191,-2.1016,-2.0801,-2.0801,-2.0664,-2.0664,-2.0664,-2.1111,-2.1642,-2.2414,-2.343,-2.4397,-2.4957,-2.5511,-2.6233,-2.6499,-2.6499,-2.6499,-2.6499,-2.6499,-2.6474,-2.6273,-2.6122,-2.5519,-2.5343,-2.4632,-2.4054,-2.4104,-2.423,-2.4305,-2.4431,-2.4833,-2.5159,-2.531,-2.5109,-2.4833,-2.4958,-2.5084,-2.5134,-2.5109,-2.5485,-2.5745,-2.58,-2.5556,-2.469,-2.4526,-2.5323,-2.61,-2.7267,-2.8511,-3.0195,-3.0254,-3.0703,-3.0509,-2.9844,-2.8861,-2.7481,-2.6041,-2.5708,-2.5694,-2.5562,-2.654,-2.7381,-2.7992,-2.8221,-2.8633,-2.8301,-2.8301,-2.8301,-2.8301,-2.8301,-2.8301,-2.8301,-2.8301,-2.8301,-2.8301,-2.8301,-2.8301,-2.8281,-2.8125,-2.8144,-2.8203,-2.8262,-2.8301,-2.8301,-2.8262,-2.8262,-2.8281,-2.8281,-2.8047,-2.7871,-2.7344,-2.7031,-2.666,-2.5977,-2.5957,-2.5674,-2.5449,-2.5137,-2.4785,-2.4336,-2.3887,-2.3452,-2.3237,-2.312,-2.3101,-2.3101,-2.3101,-2.3042,-2.2711,-2.2422,-2.2207,-2.2148,-2.209,-2.1699,-2.1641,-2.1582,-2.1367,-2.1173,-2.1135,-2.1016,-2.1528,-2.2146,-2.2542,-2.3158,-2.4036,-2.4684,-2.53,-2.5721,-2.6371,-2.6499,-2.6499,-2.6499,-2.6499,-2.6499,-2.6474,-2.6248,-2.5946,-2.5335,-2.5008,-2.4556,-2.4199,-2.4305,-2.4506,-2.4632,-2.4858,-2.5084,-2.536,-2.5661,-2.5536,-2.536,-2.531,-2.5435,-2.5536,-2.5611,-2.5812,-2.5912,-2.5912,-2.5636,-2.5242,-2.542,-2.5955,-2.6733,-2.7577,-2.8819,-2.9902,-3.0059,-3.0488,-3.0762,-3.0704,-2.9648,-2.855,-2.7607,-2.7135,-2.6969,-2.7621,-2.7308,-2.7616,-2.8509,-2.8633,-2.8418,-2.834,-2.8301,-2.8301,-2.8301,-2.8301,-2.8301,-2.8301,-2.8301,-2.8301,-2.8301,-2.8301,-2.8301,-2.8281,-2.8041,-2.8086,-2.8203,-2.8164,-2.8086,-2.8086,-2.8105,-2.8105,-2.8105,-2.8105,-2.8008,-2.7793,-2.7363,-2.6894,-2.6758,-2.623,-2.5869,-2.5713,-2.5488,-2.5176,-2.4766,-2.4336,-2.3906,-2.3594,-2.334,-2.312,-2.3101,-2.3101,-2.3101,-2.3003,-2.2847,-2.2578,-2.25,-2.2578,-2.2461,-2.2207,-2.207,-2.1992,-2.1879,-2.1787,-2.183,-2.179,-2.2512,-2.2934,-2.329,-2.3986,-2.4779,-2.524,-2.5816,-2.6094,-2.6499,-2.6499,-2.6499,-2.6499,-2.6474,-2.6298,-2.6248,-2.5963,-2.5711,-2.536,-2.5134,-2.5184,-2.4876,-2.475,-2.5008,-2.5209,-2.5259,-2.5335,-2.5536,-2.5812,-2.6072,-2.5996,-2.5862,-2.5837,-2.5937,-2.6072,-2.6122,-2.6172,-2.6197,-2.6172,-2.6097,-2.6322,-2.6525,-2.7781,-2.8685,-2.9713,-2.9219,-2.9609,-3.0039,-3.0449,-3.0781,-3.082,-2.9506,-2.7914,-2.888,-2.9141,-2.8674,-2.892,-2.8707,-2.8555,-2.8594,-2.8535,-2.834,-2.8301,-2.8301,-2.8301,-2.8301,-2.8301,-2.8301,-2.8301,-2.8301,-2.8301,-2.8301,-2.8301,-2.8301,-2.8105,-2.8184,-2.8105,-2.791,-2.7676,-2.7728,-2.7728,-2.7728,-2.7676,-2.7676,-2.748,-2.7246,-2.7031,-2.6758,-2.6523,-2.6269,-2.5977,-2.5713,-2.5615,-2.5332,-2.4844,-2.4512,-2.3997,-2.3471,-2.3237,-2.3101,-2.3101,-2.3101,-2.3101,-2.3081,-2.3062,-2.2984,-2.2886,-2.2906,-2.2789,-2.2578,-2.2441,-2.2431,-2.2383,-2.2676,-2.2931,-2.3193,-2.3536,-2.3802,-2.4086,-2.479,-2.537,-2.5851,-2.6094,-2.6336,-2.6499,-2.6499,-2.6499,-2.6499,-2.6424,-2.6172,-2.5971,-2.5711,-2.5511,-2.5385,-2.546,-2.5611,-2.5485,-2.531,-2.5335,-2.5511,-2.5511,-2.5586,-2.5787,-2.5988,-2.6248,-2.6373,-2.6273,-2.6298,-2.6399,-2.6373,-2.6323,-2.6399,-2.6449,-2.6373,-2.6324,-2.6712,-2.7232,-2.8565,-2.9628,-3.0389,-2.9004,-2.918,-2.9609,-2.9863,-3.0098,-3.0664,-3.0084,-2.8991,-2.892,-2.8769,-2.8574,-2.8691,-2.8633,-2.8398,-2.8398,-2.8437,-2.834,-2.8301,-2.8301,-2.8301,-2.8301,-2.8301,-2.8301,-2.8301,-2.8301,-2.8301,-2.8301,-2.8301,-2.8281,-2.8125,-2.8125,-2.8066,-2.7637,-2.7266,-2.7226,-2.7226,-2.7226,-2.7226,-2.7226,-2.7148,-2.6992,-2.6758,-2.6523,-2.6367,-2.6152,-2.5898,-2.5674,-2.5615,-2.5362,-2.4953,-2.4641,-2.4134,-2.3705,-2.3471,-2.3101,-2.3101,-2.3101,-2.3101,-2.3101,-2.3081,-2.3101,-2.3101,-2.3081,-2.3023,-2.2886,-2.2637,-2.278,-2.3144,-2.3449,-2.3609,-2.3766,-2.4589,-2.4931,-2.4848,-2.537,-2.5896,-2.6302,-2.6371,-2.6499,-2.6499,-2.6499,-2.6499,-2.6499,-2.6499,-2.6273,-2.6223,-2.6072,-2.6097,-2.6021,-2.6072,-2.6197,-2.5988,-2.5837,-2.5787,-2.5787,-2.5812,-2.5912,-2.6147,-2.6248,-2.6373,-2.6474,-2.6499,-2.6474,-2.6449,-2.6474,-2.6499,-2.6499,-2.6474,-2.6424,-2.6511,-2.7072,-2.7675,-2.8679,-2.9659,-3.048,-2.8789,-2.8945,-2.9219,-2.9434,-2.9648,-3.0195,-3.0,-2.9297,-2.8613,-2.8301,-2.8301,-2.8301,-2.8301,-2.8301,-2.8301,-2.8301,-2.8301,-2.8301,-2.8301,-2.8301,-2.8301,-2.8301,-2.8301,-2.8281,-2.8301,-2.8301,-2.8301,-2.8301,-2.8281,-2.8027,-2.7969,-2.7851,-2.7383,-2.7012,-2.6875,-2.6797,-2.6894,-2.6934,-2.6953,-2.6797,-2.6641,-2.6465,-2.625,-2.6211,-2.6016,-2.5615,-2.5547,-2.5469,-2.5371,-2.5039,-2.4609,-2.4141,-2.3867,-2.3491,-2.3101,-2.3101,-2.3101,-2.3101,-2.3101,-2.3101,-2.3101,-2.3101,-2.3101,-2.3101,-2.3153,-2.31,-2.3385,-2.3743,-2.4119,-2.4454,-2.4838,-2.5701,-2.5961,-2.5895,-2.59,-2.6446,-2.649,-2.6524,-2.6499,-2.6499,-2.6499,-2.6499,-2.6499,-2.6499,-2.6424,-2.6449,-2.6449,-2.6499,-2.6499,-2.6499,-2.6499,-2.6323,-2.6223,-2.6172,-2.6122,-2.6147,-2.6273,-2.6449,-2.6499,-2.6499,-2.6499,-2.6499,-2.6499,-2.6499,-2.6499,-2.6499,-2.6499,-2.6474,-2.6552,-2.6976,-2.7729,-2.8314,-2.8907,-2.9842,-3.0807,-2.8535,-2.8867,-2.8887,-2.9141,-2.9473,-2.9512,-2.9297,-2.8906,-2.8476,-2.8301,-2.8301,-2.8301,-2.8301,-2.8301,-2.8301,-2.8301,-2.8301,-2.8301,-2.8242,-2.8262,-2.8242,-2.8262,-2.8242,-2.8262,-2.8281,-2.8301,-2.8301,-2.8301,-2.8281,-2.8203,-2.8027,-2.7695,-2.7266,-2.6914,-2.6699,-2.6484,-2.6562,-2.6582,-2.6504,-2.6387,-2.6269,-2.6035,-2.6035,-2.6035,-2.5869,-2.5547,-2.5332,-2.5156,-2.4727,-2.4316,-2.3887,-2.3594,-2.3296,-2.312,-2.3101,-2.3101,-2.3101,-2.3101,-2.3101,-2.3101,-2.3101,-2.3101,-2.3101,-2.3101,-2.3264,-2.3564,-2.4054,-2.4689,-2.5227,-2.5585,-2.6028,-2.6517,-2.703,-2.6801,-2.6561,-2.665,-2.66,-2.6575,-2.6499,-2.6499,-2.6499,-2.6499,-2.6499,-2.6499,-2.6499,-2.6499,-2.6499,-2.6499,-2.6499,-2.6499,-2.6499,-2.6474,-2.6424,-2.6449,-2.6424,-2.6348,-2.6373,-2.6499,-2.6499,-2.6499,-2.6499,-2.6499,-2.6499,-2.6499,-2.6499,-2.6499,-2.6499,-2.6577,-2.6748,-2.733,-2.7934,-2.8812,-2.9348,-3.0419,-3.1278,-2.8359,-2.8476,-2.8476,-2.8535,-2.8652,-2.8672,-2.875,-2.8848,-2.8476,-2.8301,-2.8301,-2.8301,-2.8262,-2.8301,-2.8301,-2.8262,-2.8281,-2.8242,-2.8047,-2.8047,-2.8125,-2.8027,-2.8047,-2.8144,-2.8242,-2.8301,-2.8301,-2.8281,-2.8262,-2.8281,-2.8027,-2.7708,-2.7187,-2.6914,-2.6621,-2.623,-2.6103,-2.6064,-2.6005,-2.5966,-2.5977,-2.5771,-2.5879,-2.581,-2.5791,-2.5469,-2.5137,-2.5019,-2.4648,-2.4277,-2.3926,-2.3672,-2.3652,-2.3296,-2.3101,-2.3101,-2.3101,-2.3101,-2.3101,-2.3101,-2.3101,-2.3101,-2.3101,-2.3101,-2.3347,-2.3876,-2.4555,-2.526,-2.6027,-2.6396,-2.6796,-2.727,-2.7444,-2.7203,-2.6977,-2.6901,-2.6801,-2.66,-2.6524,-2.6499,-2.6499,-2.6499,-2.6499,-2.6499,-2.6499,-2.6499,-2.6499,-2.6499,-2.6499,-2.6499,-2.6499,-2.6499,-2.6499,-2.6499,-2.6499,-2.6424,-2.6449,-2.6499,-2.6499,-2.6499,-2.6499,-2.6499,-2.6499,-2.6499,-2.6499,-2.6499,-2.6499,-2.6611,-2.6714,-2.7162,-2.7802,-2.8844,-2.9903,-3.0837,-3.1452,-2.8301,-2.8301,-2.8301,-2.8301,-2.8301,-2.8301,-2.8457,-2.8594,-2.8398,-2.8301,-2.8281,-2.8105,-2.8125,-2.8223,-2.7949,-2.7832,-2.8008,-2.7773,-2.7656,-2.7851,-2.793,-2.7988,-2.8027,-2.8125,-2.8262,-2.8281,-2.8242,-2.8184,-2.8066,-2.7851,-2.7617,-2.7689,-2.7109,-2.6836,-2.6562,-2.6083,-2.5752,-2.5732,-2.5713,-2.5674,-2.5674,-2.5674,-2.5674,-2.5654,-2.5654,-2.5391,-2.4902,-2.4824,-2.4512,-2.3997,-2.3613,-2.3535,-2.3496,-2.3218,-2.3101,-2.3101,-2.3101,-2.3101,-2.3101,-2.3101,-2.3101,-2.3101,-2.3101,-2.3101,-2.3374,-2.3815,-2.4637,-2.544,-2.6325,-2.709,-2.7545,-2.7896,-2.767,-2.7454,-2.7329,-2.7203,-2.6952,-2.6675,-2.6575,-2.6499,-2.6499,-2.6499,-2.6499,-2.6499,-2.6499,-2.6499,-2.6499,-2.6499,-2.6499,-2.6499,-2.6499,-2.6499,-2.6499,-2.6499,-2.6499,-2.6499,-2.6499,-2.6499,-2.6499,-2.6499,-2.6499,-2.6499,-2.6499,-2.6499,-2.6499,-2.6499,-2.6499,-2.6533,-2.6671,-2.7129,-2.7703,-2.8652,-2.9752,-3.0866,-3.1336,-2.8184,-2.8164,-2.8203,-2.8125,-2.8184,-2.8125,-2.8144,-2.8184,-2.8125,-2.8203,-2.8125,-2.7885,-2.7851,-2.7891,-2.748,-2.7383,-2.7461,-2.7344,-2.7383,-2.7689,-2.7767,-2.7832,-2.8027,-2.8223,-2.8125,-2.8184,-2.8086,-2.7812,-2.7559,-2.7383,-2.7363,-2.7571,-2.6887,-2.6445,-2.625,-2.5927,-2.5693,-2.5674,-2.5674,-2.5674,-2.5674,-2.5674,-2.5674,-2.5596,-2.5479,-2.5293,-2.4609,-2.4238,-2.4004,-2.3393,-2.312,-2.314,-2.314,-2.312,-2.3101,-2.3101,-2.3101,-2.3101,-2.3101,-2.3101,-2.3101,-2.3101,-2.3101,-2.3101,-2.3351,-2.3941,-2.4784,-2.5806,-2.6704,-2.7613,-2.8176,-2.8499,-2.8423,-2.8072,-2.7795,-2.7695,-2.7544,-2.7168,-2.6826,-2.6725,-2.6549,-2.6549,-2.6499,-2.6499,-2.6499,-2.6499,-2.6499,-2.6499,-2.6499,-2.6499,-2.6499,-2.6499,-2.6499,-2.6499,-2.6499,-2.6499,-2.6499,-2.6499,-2.6499,-2.6499,-2.6499,-2.6499,-2.6499,-2.6499,-2.6499,-2.6499,-2.6499,-2.6533,-2.6645,-2.7061,-2.7703,-2.8492,-2.9535,-3.0599,-3.1248,-2.7324,-2.7324,-2.7324,-2.7324,-2.7324,-2.7324,-2.7344,-2.7324,-2.7324,-2.7519,-2.7734,-2.7676,-2.7519,-2.7344,-2.709,-2.7031,-2.707,-2.6973,-2.707,-2.7285,-2.7461,-2.7728,-2.7885,-2.7891,-2.7832,-2.7695,-2.7539,-2.7324,-2.7207,-2.7051,-2.6855,-2.6719,-2.6348,-2.623,-2.5957,-2.5693,-2.5693,-2.5674,-2.5615,-2.5615,-2.5615,-2.5596,-2.5577,-2.5391,-2.5176,-2.4824,-2.4277,-2.3945,-2.3633,-2.3198,-2.312,-2.3101,-2.3101,-2.3101,-2.3101,-2.3101,-2.3101,-2.3101,-2.3101,-2.3101,-2.3101,-2.3101,-2.3101,-2.3101,-2.3391,-2.4151,-2.5018,-2.6092,-2.6995,-2.7882,-2.8696,-2.8936,-2.9076,-2.8624,-2.8273,-2.8222,-2.8147,-2.762,-2.7092,-2.6876,-2.6675,-2.6575,-2.6499,-2.6499,-2.6499,-2.6499,-2.6499,-2.6499,-2.6499,-2.6499,-2.6499,-2.6499,-2.6499,-2.6499,-2.6499,-2.6499,-2.6499,-2.6499,-2.6499,-2.6499,-2.6499,-2.6499,-2.6499,-2.6499,-2.6499,-2.6499,-2.6499,-2.6499,-2.6714,-2.6994,-2.7371,-2.8038,-2.8939,-2.9995,-3.0748,-2.7012,-2.7012,-2.7012,-2.7012,-2.7012,-2.7012,-2.7012,-2.7012,-2.7012,-2.7031,-2.709,-2.709,-2.7051,-2.6855,-2.666,-2.6641,-2.666,-2.6454,-2.6688,-2.7012,-2.7246,-2.7513,-2.763,-2.7669,-2.75,-2.7344,-2.6992,-2.6797,-2.6875,-2.6562,-2.6289,-2.6309,-2.623,-2.5996,-2.5674,-2.5674,-2.5654,-2.5674,-2.5499,-2.5449,-2.5488,-2.5479,-2.5469,-2.5215,-2.4969,-2.4578,-2.4102,-2.3769,-2.3516,-2.3218,-2.3101,-2.3101,-2.3101,-2.3101,-2.3101,-2.3101,-2.3101,-2.3101,-2.3101,-2.3101,-2.3101,-2.3101,-2.3101,-2.3101,-2.3101,-2.3826,-2.4766,-2.5729,-2.5729,-2.6477,-2.8203,-2.8859,-2.8699,-2.8338,-2.8374,-2.8423,-2.8021,-2.7444,-2.7027,-2.67,-2.6575,-2.6524,-2.6499,-2.6499,-2.6499,-2.6499,-2.6499,-2.6499,-2.6499,-2.6499,-2.6499,-2.6499,-2.6499,-2.6499,-2.6499,-2.6499,-2.6499,-2.6499,-2.6499,-2.6499,-2.6499,-2.6499,-2.6499,-2.6499,-2.6499,-2.6499,-2.6499,-2.6499,-2.6499,-2.6679,-2.7061,-2.7504,-2.846,-2.938,-3.0117,-2.6816,-2.6855,-2.6836,-2.6836,-2.6855,-2.6836,-2.6816,-2.6816,-2.6836,-2.6641,-2.6367,-2.6348,-2.6543,-2.6465,-2.6122,-2.6172,-2.6191,-2.623,-2.6484,-2.6855,-2.7031,-2.7344,-2.7552,-2.7532,-2.7129,-2.6797,-2.6465,-2.6523,-2.661,-2.62,-2.6035,-2.6172,-2.5996,-2.5654,-2.5615,-2.5625,-2.5566,-2.5352,-2.5156,-2.5019,-2.5156,-2.5332,-2.5137,-2.5,-2.4891,-2.4519,-2.3965,-2.3633,-2.3437,-2.332,-2.3101,-2.3101,-2.3101,-2.3101,-2.3101,-2.3101,-2.3101,-2.3101,-2.3101,-2.3101,-2.3101,-2.3101,-2.3101,-2.3101,-2.3144,-2.3604,-2.451,-2.5041,-2.5041,-2.5959,-2.7703,-2.8755,-2.8548,-2.8487,-2.8637,-2.8599,-2.7996,-2.7469,-2.7153,-2.6751,-2.66,-2.6575,-2.6524,-2.6499,-2.6499,-2.6499,-2.6499,-2.6499,-2.6499,-2.6499,-2.6499,-2.6499,-2.6499,-2.6499,-2.6499,-2.6499,-2.6499,-2.6499,-2.6499,-2.6499,-2.6499,-2.6499,-2.6499,-2.6499,-2.6499,-2.6499,-2.6499,-2.6499,-2.6499,-2.6499,-2.6714,-2.7162,-2.7966,-2.8844,-2.9535,-2.5927,-2.5947,-2.5927,-2.5947,-2.5947,-2.5927,-2.5927,-2.5927,-2.5947,-2.5869,-2.5918,-2.583,-2.5888,-2.5947,-2.581,-2.581,-2.5888,-2.6016,-2.6484,-2.6953,-2.6934,-2.7246,-2.7376,-2.6992,-2.6426,-2.6152,-2.5996,-2.5927,-2.6161,-2.5888,-2.5713,-2.581,-2.584,-2.5547,-2.5234,-2.5176,-2.5078,-2.4863,-2.4707,-2.4551,-2.4531,-2.457,-2.4375,-2.4219,-2.4023,-2.3691,-2.3354,-2.3218,-2.3159,-2.312,-2.3101,-2.3101,-2.3101,-2.3101,-2.3101,-2.3101,-2.3101,-2.3101,-2.3101,-2.3101,-2.3101,-2.3101,-2.3101,-2.3101,-2.3101,-2.3144,-2.4102,-2.4999,-2.542,-2.6543,-2.7965,-2.8959,-2.9134,-2.9249,-2.9428,-2.8875,-2.8298,-2.7996,-2.772,-2.7278,-2.6876,-2.6776,-2.66,-2.66,-2.6549,-2.6524,-2.6499,-2.6499,-2.6499,-2.6499,-2.6499,-2.6499,-2.6499,-2.6499,-2.6499,-2.6499,-2.6499,-2.6499,-2.6499,-2.6499,-2.6499,-2.6499,-2.6499,-2.6499,-2.6499,-2.6499,-2.6499,-2.6499,-2.6499,-2.6499,-2.6499,-2.685,-2.7637,-2.8266,-2.8939]}]]